[[{"header":{"parameterUnit":"m.s-1","parameterCategory":1,"la1":30.6,"la2":28.766,"lo1":-90.7593,"lo2":-88.6598,"dx":0.0162,"dy":0.0183,"nx":116,"ny":114,"refTime":"2022-12-28T06:00:00:Z","depth":0,"parameterNumber":2,"parameterNumberName":"U-component_of_WINDS"},"data":[0.0,0.0,0.0,0.0,0.0,0.0,0.0,0.0,0.0,0.0,0.0,0.0,0.0,0.0,0.0,0.0,0.0,0.0,0.0,0.0,0.0,0.0,0.0,0.0,0.0,0.0,0.0,0.0,0.0,0.0,0.0,0.0,0.0,0.0,0.0,0.0,0.0,0.0,0.0,0.0,0.0,0.0,0.0,0.0,0.0,0.0,0.0,0.0,0.0,0.0,0.0,0.0,0.0,0.0,0.0,0.0,0.0,0.0,0.0,0.0,0.0,0.0,0.0,0.0,0.0,0.0,0.0,0.0,0.0,0.0,0.0,0.0,0.0,0.0,0.0,0.0,0.0,0.0,0.0,0.0,0.0,0.0,0.0,0.0,0.0,0.0,0.0,0.0,0.0,0.0,0.0,0.0,0.0,0.0,0.0,0.0,0.0,0.0,0.0,0.0,0.0,0.0,0.0,0.0,0.0,0.0,0.0,0.0,0.0,0.0,0.0,0.0,0.0,0.0,0.0,0.0,0.0,0.0,0.0,0.0,0.0,0.0,0.0,0.0,0.0,0.0,0.0,0.0,0.0,0.0,0.0,0.0,0.0,0.0,0.0,0.0,0.0,0.0,0.0,0.0,0.0,0.0,0.0,0.0,0.0,0.0,0.0,0.0,0.0,0.0,0.0,0.0,0.0,0.0,0.0,0.0,0.0,0.0,0.0,0.0,0.0,0.0,0.0,0.0,0.0,0.0,0.0,0.0,0.0,0.0,0.0,0.0,0.0,0.0,0.0,0.0,0.0,0.0,0.0,0.0,0.0,0.0,0.0,0.0,0.0,0.0,0.0,0.0,0.0,0.0,0.0,0.0,0.0,0.0,0.0,0.0,0.0,0.0,0.0,0.0,0.0,0.0,0.0,0.0,0.0,0.0,0.0,0.0,0.0,0.0,0.0,0.0,0.0,0.0,0.0,0.0,0.0,0.0,0.0,0.0,0.0,0.0,0.0,0.0,0.0,0.0,0.0,0.0,0.0,0.0,0.0,0.0,0.0,0.0,0.0,0.0,0.0,0.0,0.0,0.0,0.0,0.0,0.0,0.0,0.0,0.0,0.0,0.0,0.0,0.0,0.0,0.0,0.0,0.0,0.0,0.0,0.0,0.0,0.0,0.0,0.0,0.0,0.0,0.0,0.0,0.0,0.0,0.0,0.0,0.0,0.0,0.0,0.0,0.0,0.0,0.0,0.0,0.0,0.0,0.0,0.0,0.0,0.0,0.0,0.0,0.0,0.0,0.0,0.0,0.0,0.0,0.0,0.0,0.0,0.0,0.0,0.0,0.0,0.0,0.0,0.0,0.0,0.0,0.0,0.0,0.0,0.0,0.0,0.0,0.0,0.0,0.0,0.0,0.0,0.0,0.0,0.0,0.0,0.0,0.0,0.0,0.0,0.0,0.0,0.0,0.0,0.0,0.0,0.0,0.0,0.0,0.0,0.0,0.0,0.0,0.0,0.0,0.0,0.0,0.0,0.0,0.0,0.0,0.0,0.0,0.0,0.0,0.0,0.0,0.0,0.0,0.0,0.0,0.0,0.0,0.0,0.0,0.0,0.0,0.0,0.0,0.0,0.0,0.0,0.0,0.0,0.0,0.0,0.0,0.0,0.0,0.0,0.0,0.0,0.0,0.0,0.0,0.0,0.0,0.0,0.0,0.0,0.0,0.0,0.0,0.0,0.0,0.0,0.0,0.0,0.0,0.0,0.0,0.0,0.0,0.0,0.0,0.0,0.0,0.0,0.0,0.0,0.0,0.0,0.0,0.0,0.0,0.0,0.0,0.0,0.0,0.0,0.0,0.0,0.0,0.0,0.0,0.0,0.0,0.0,0.0,0.0,0.0,0.0,0.0,0.0,0.0,0.0,0.0,0.0,0.0,0.0,0.0,0.0,0.0,0.0,0.0,0.0,0.0,0.0,0.0,0.0,0.0,0.0,0.0,0.0,0.0,0.0,0.0,0.0,0.0,0.0,0.0,0.0,0.0,0.0,0.0,0.0,0.0,0.0,0.0,0.0,0.0,0.0,0.0,0.0,0.0,0.0,0.0,0.0,0.0,0.0,0.0,0.0,0.0,0.0,0.0,0.0,0.0,0.0,0.0,0.0,0.0,0.0,0.0,0.0,0.0,0.0,0.0,0.0,0.0,0.0,0.0,0.0,0.0,0.0,0.0,0.0,0.0,0.0,0.0,0.0,0.0,0.0,0.0,0.0,0.0,0.0,0.0,0.0,0.0,0.0,0.0,0.0,0.0,0.0,0.0,0.0,0.0,0.0,0.0,0.0,0.0,0.0,0.0,0.0,0.0,0.0,0.0,0.0,0.0,0.0,0.0,0.0,0.0,0.0,0.0,0.0,0.0,0.0,0.0,0.0,0.0,0.0,0.0,0.0,0.0,0.0,0.0,0.0,0.0,0.0,0.0,0.0,0.0,0.0,0.0,0.0,0.0,0.0,0.0,0.0,0.0,0.0,0.0,0.0,0.0,0.0,0.0,0.0,0.0,0.0,0.0,0.0,0.0,0.0,0.0,0.0,0.0,0.0,0.0,0.0,0.0,0.0,0.0,0.0,0.0,0.0,0.0,0.0,0.0,0.0,0.0,0.0,0.0,0.0,0.0,0.0,0.0,0.0,0.0,0.0,0.0,0.0,0.0,0.0,0.0,0.0,0.0,0.0,0.0,0.0,0.0,0.0,0.0,0.0,0.0,0.0,0.0,0.0,0.0,0.0,0.0,0.0,0.0,0.0,0.0,0.0,0.0,0.0,0.0,0.0,0.0,0.0,0.0,0.0,0.0,0.0,0.0,0.0,0.0,0.0,0.0,0.0,0.0,0.0,0.0,0.0,0.0,0.0,0.0,0.0,0.0,0.0,0.0,0.0,0.0,0.0,0.0,0.0,0.0,0.0,0.0,0.0,0.0,0.0,0.0,0.0,0.0,0.0,0.0,0.0,0.0,0.0,0.0,0.0,0.0,0.0,0.0,0.0,0.0,0.0,0.0,0.0,0.0,0.0,0.0,0.0,0.0,0.0,0.0,0.0,0.0,0.0,0.0,0.0,0.0,0.0,0.0,0.0,0.0,0.0,0.0,0.0,0.0,0.0,0.0,0.0,0.0,0.0,0.0,0.0,0.0,0.0,0.0,0.0,0.0,0.0,0.0,0.0,0.0,0.0,0.0,0.0,0.0,0.0,0.0,0.0,0.0,0.0,0.0,0.0,0.0,0.0,0.0,0.0,0.0,0.0,0.0,0.0,0.0,0.0,0.0,0.0,0.0,0.0,0.0,0.0,0.0,0.0,0.0,0.0,0.0,0.0,0.0,0.0,0.0,0.0,0.0,0.0,0.0,0.0,0.0,0.0,0.0,0.0,0.0,0.0,0.0,0.0,0.0,0.0,0.0,0.0,0.0,0.0,0.0,0.0,0.0,0.0,0.0,0.0,0.0,0.0,0.0,0.0,0.0,0.0,0.0,0.0,0.0,0.0,0.0,0.0,0.0,0.0,0.0,0.0,0.0,0.0,0.0,0.0,0.0,0.0,0.0,0.0,0.0,0.0,0.0,0.0,0.0,0.0,0.0,0.0,0.0,0.0,0.0,0.0,0.0,0.0,0.0,0.0,0.0,0.0,0.0,0.0,0.0,0.0,0.0,0.0,0.0,0.0,0.0,0.0,0.0,0.0,0.0,0.0,0.0,0.0,0.0,0.0,0.0,0.0,0.0,0.0,0.0,0.0,0.0,0.0,0.0,0.0,0.0,0.0,0.0,0.0,0.0,0.0,0.0,0.0,0.0,0.0,0.0,0.0,0.0,0.0,0.0,0.0,0.0,0.0,0.0,0.0,0.0,0.0,0.0,0.0,0.0,0.0,0.0,0.0,0.0,0.0,0.0,0.0,0.0,0.0,0.0,0.0,0.0,0.0,0.0,0.0,0.0,0.0,0.0,0.0,0.0,0.0,0.0,0.0,0.0,0.0,0.0,0.0,0.0,0.0,0.0,0.0,0.0,0.0,0.0,0.0,0.0,0.0,0.0,0.0,0.0,0.0,0.0,0.0,0.0,0.0,0.0,0.0,0.0,0.0,0.0,0.0,0.0,0.0,0.0,0.0,0.0,0.0,0.0,0.0,0.0,0.0,0.0,0.0,0.0,0.0,0.0,0.0,0.0,0.0,0.0,0.0,0.0,0.0,0.0,0.0,0.0,0.0,0.0,0.0,0.0,0.0,0.0,0.0,0.0,0.0,0.0,0.0,0.0,0.0,0.0,0.0,0.0,0.0,0.0,0.0,0.0,0.0,0.0,0.0,0.0,0.0,0.0,0.0,0.0,0.0,0.0,0.0,0.0,0.0,0.0,0.0,0.0,0.0,0.0,0.0,0.0,0.0,0.0,0.0,0.0,0.0,0.0,0.0,0.0,0.0,0.0,0.0,0.0,0.0,0.0,0.0,0.0,0.0,0.0,0.0,0.0,0.0,0.0,0.0,0.0,0.0,0.0,0.0,0.0,0.0,0.0,0.0,0.0,0.0,0.0,0.0,0.0,0.0,0.0,0.0,0.0,0.0,0.0,0.0,0.0,0.0,0.0,0.0,0.0,0.0,0.0,0.0,0.0,0.0,0.0,0.0,0.0,0.0,0.0,0.0,0.0,0.0,0.0,0.0,0.0,0.0,0.0,0.0,0.0,0.0,0.0,0.0,0.0,0.0,0.0,0.0,0.0,0.0,0.0,0.0,0.0,0.0,0.0,0.0,0.0,0.0,0.0,0.0,0.0,0.0,0.0,0.0,0.0,0.0,0.0,0.0,0.0,0.0,0.0,0.0,0.0,0.0,0.0,0.0,0.0,0.0,0.0,0.0,0.0,0.0,0.0,0.0,0.0,0.0,0.0,0.0,0.0,0.0,0.0,0.0,0.0,0.0,0.0,0.0,0.0,0.0,0.0,0.0,0.0,0.0,0.0,0.0,0.0,0.0,0.0,0.0,0.0,0.0,0.0,0.0,0.0,0.0,0.0,0.0,0.0,0.0,0.0,0.0,0.0,0.0,0.0,0.0,0.0,0.0,0.0,0.0,0.0,0.0,0.0,0.0,0.0,0.0,0.0,0.0,0.0,0.0,0.0,0.0,0.0,0.0,0.0,0.0,0.0,0.0,0.0,0.0,0.0,0.0,0.0,0.0,0.0,0.0,0.0,0.0,0.0,0.0,0.0,0.0,0.0,0.0,0.0,0.0,0.0,0.0,0.0,0.0,0.0,0.0,0.0,0.0,0.0,0.0,0.0,0.0,0.0,0.0,0.0,0.0,0.0,0.0,0.0,0.0,0.0,0.0,0.0,0.0,0.0,0.0,0.0,0.0,0.0,0.0,0.0,0.0,0.0,0.0,0.0,0.0,0.0,0.0,0.0,0.0,0.0,0.0,0.0,0.0,0.0,0.0,0.0,0.0,0.0,0.0,0.0,0.0,0.0,0.0,0.0,0.0,0.0,0.0,0.0,0.0,0.0,0.0,0.0,0.0,0.0,0.0,0.0,0.0,0.0,0.0,0.0,0.0,0.0,0.0,0.0,0.0,0.0,0.0,0.0,0.0,0.0,0.0,0.0,0.0,0.0,0.0,0.0,0.0,0.0,0.0,0.0,0.0,0.0,0.0,0.0,0.0,0.0,0.0,0.0,0.0,0.0,0.0,0.0,0.0,0.0,0.0,0.0,0.0,0.0,0.0,0.0,0.0,0.0,0.0,0.0,0.0,0.0,0.0,0.0,0.0,0.0,0.0,0.0,0.0,0.0,0.0,0.0,0.0,0.0,0.0,0.0,0.0,0.0,0.0,0.0,0.0,0.0,0.0,0.0,0.0,0.0,0.0,0.0,0.0,0.0,0.0,0.0,0.0,0.0,0.0,0.0,0.0,0.0,0.0,0.0,0.0,0.0,0.0,0.0,0.0,0.0,0.0,0.0,0.0,0.0,0.0,0.0,0.0,0.0,0.0,0.0,0.0,0.0,0.0,0.0,0.0,0.0,0.0,0.0,0.0,0.0,0.0,0.0,0.0,0.0,0.0,0.0,0.0,0.0,0.0,0.0,0.0,0.0,0.0,0.0,0.0,-2.6206,-2.5095,0.0,0.0,0.0,0.0,0.0,0.0,0.0,0.0,0.0,0.0,0.0,0.0,0.0,0.0,0.0,0.0,0.0,0.0,0.0,0.0,0.0,0.0,0.0,0.0,0.0,0.0,0.0,0.0,0.0,0.0,0.0,0.0,0.0,0.0,0.0,0.0,-1.7498,-1.8103,-1.8631,-1.9761,-2.1393,-2.0753,-2.0042,-1.9233,0.0,0.0,0.0,0.0,0.0,0.0,0.0,0.0,0.0,0.0,0.0,0.0,0.0,0.0,0.0,0.0,0.0,0.0,0.0,0.0,0.0,0.0,0.0,0.0,0.0,0.0,0.0,0.0,0.0,0.0,0.0,0.0,0.0,0.0,0.0,0.0,0.0,0.0,0.0,0.0,0.0,0.0,0.0,0.0,0.0,0.0,0.0,0.0,0.0,0.0,0.0,0.0,0.0,0.0,0.0,0.0,0.0,0.0,0.0,0.0,0.0,0.0,0.0,0.0,0.0,0.0,0.0,0.0,0.0,0.0,-2.767,-2.6942,0.0,0.0,0.0,0.0,0.0,0.0,0.0,0.0,0.0,0.0,0.0,0.0,0.0,0.0,0.0,0.0,0.0,0.0,0.0,0.0,0.0,0.0,0.0,0.0,-1.7243,-1.7701,-1.7225,-1.6858,0.0,0.0,0.0,0.0,0.0,0.0,-1.83,-1.8843,-1.9478,-2.0238,-2.1568,-2.2673,-2.3547,-2.4054,-2.3778,-2.2799,-2.0763,0.0,0.0,0.0,0.0,0.0,0.0,0.0,0.0,0.0,0.0,0.0,0.0,0.0,0.0,0.0,0.0,0.0,0.0,0.0,0.0,0.0,0.0,0.0,0.0,0.0,0.0,0.0,0.0,0.0,0.0,0.0,0.0,0.0,0.0,0.0,0.0,0.0,0.0,0.0,0.0,0.0,0.0,0.0,0.0,0.0,0.0,0.0,0.0,0.0,0.0,0.0,0.0,0.0,0.0,0.0,0.0,0.0,0.0,0.0,0.0,0.0,0.0,0.0,-2.9314,-2.9364,-2.9439,-2.8925,-2.9252,-3.0156,-2.9227,-2.8875,-2.8787,-2.7379,0.0,0.0,0.0,0.0,0.0,0.0,0.0,0.0,0.0,0.0,0.0,0.0,0.0,0.0,0.0,0.0,0.0,0.0,0.0,0.0,0.0,-2.0411,-2.0754,-2.0275,-2.0153,-1.9698,0.0,0.0,0.0,0.0,0.0,-1.9535,-1.956,-2.0141,-2.0947,-2.197,-2.4054,-2.5134,-2.5285,-2.536,-2.531,-2.5109,-2.3879,-2.2975,-2.2268,0.0,0.0,0.0,0.0,0.0,0.0,0.0,0.0,0.0,0.0,0.0,0.0,0.0,0.0,0.0,0.0,0.0,0.0,0.0,0.0,0.0,0.0,0.0,0.0,0.0,0.0,0.0,0.0,0.0,0.0,0.0,0.0,0.0,0.0,0.0,0.0,0.0,0.0,0.0,0.0,0.0,-2.3577,-2.3653,0.0,0.0,0.0,0.0,0.0,0.0,0.0,0.0,0.0,0.0,0.0,0.0,0.0,-2.9101,-2.8787,-2.9804,-3.0557,-3.106,-3.106,-3.1311,-3.1763,-3.121,-3.1311,-3.1888,-3.1738,0.0,-2.8838,-2.8172,0.0,0.0,0.0,0.0,0.0,0.0,0.0,0.0,0.0,0.0,0.0,0.0,0.0,0.0,0.0,0.0,0.0,0.0,0.0,0.0,0.0,-2.1225,-2.1397,-2.1999,-2.1499,-2.0923,-2.0435,-2.0398,0.0,0.0,-2.079,-2.1368,-2.1641,-2.2246,-2.3256,-2.4664,-2.5912,-2.6716,-2.7017,-2.7017,-2.7017,-2.6992,-2.6515,-2.4958,-2.2619,-2.2221,0.0,0.0,0.0,0.0,0.0,0.0,0.0,0.0,0.0,0.0,0.0,0.0,0.0,0.0,0.0,0.0,0.0,0.0,0.0,0.0,0.0,0.0,0.0,0.0,0.0,0.0,0.0,0.0,0.0,0.0,0.0,0.0,0.0,0.0,0.0,0.0,0.0,0.0,0.0,-2.3,-2.3401,-2.4356,-2.4732,-2.5084,0.0,0.0,0.0,0.0,0.0,0.0,0.0,0.0,0.0,-2.9578,-3.003,-3.0407,-3.0743,-3.126,-3.1637,-3.1863,-3.219,-3.2466,-3.2692,-3.2441,-3.2466,-3.2692,-3.2692,-3.2139,-3.1185,-3.0306,-3.0131,-3.0331,0.0,0.0,0.0,0.0,-2.885,-2.8574,0.0,0.0,0.0,0.0,0.0,0.0,0.0,0.0,0.0,0.0,0.0,0.0,-2.2423,-2.2327,-2.2528,-2.3286,-2.2628,-2.2163,-2.2129,-2.215,0.0,-2.2347,-2.3,-2.3427,-2.3521,-2.4255,-2.5267,-2.6499,-2.7178,-2.7695,-2.8097,-2.8097,-2.8097,-2.8097,-2.8097,-2.649,-2.3803,-2.3929,-2.3427,-2.2498,0.0,0.0,0.0,0.0,0.0,0.0,0.0,0.0,0.0,0.0,0.0,0.0,0.0,0.0,0.0,0.0,0.0,0.0,0.0,0.0,0.0,0.0,0.0,0.0,0.0,0.0,0.0,0.0,0.0,0.0,0.0,0.0,0.0,0.0,0.0,0.0,0.0,-2.3778,-2.4205,-2.531,-2.6163,-2.6666,0.0,0.0,0.0,0.0,0.0,0.0,-2.9314,-2.959,-3.0331,-3.1562,-3.1512,-3.1838,-3.2641,-3.2792,-3.2867,-3.2867,-3.3294,-3.3495,-3.3495,-3.3495,-3.3495,-3.3495,-3.3495,-3.3495,-3.342,-3.229,-3.1964,-3.2139,-3.1336,-3.1185,-3.1311,-3.0658,-3.0131,-2.974,0.0,0.0,0.0,0.0,0.0,0.0,0.0,0.0,0.0,0.0,0.0,-2.3955,-2.2717,-2.4636,-2.5491,-2.4176,-2.4,-2.3942,-2.3896,-2.3853,-2.4104,-2.46,-2.572,-2.5795,-2.4725,-2.5787,-2.6424,-2.6499,-2.7544,-2.8072,-2.8097,-2.8097,-2.8097,-2.8097,-2.8097,-2.7996,-2.7745,-2.6751,-2.5971,-2.5259,-2.3647,0.0,0.0,0.0,0.0,0.0,0.0,0.0,0.0,0.0,0.0,0.0,0.0,0.0,0.0,0.0,0.0,0.0,0.0,0.0,0.0,0.0,0.0,0.0,0.0,0.0,0.0,0.0,0.0,0.0,0.0,0.0,0.0,0.0,0.0,0.0,0.0,0.0,0.0,-2.7218,-2.8599,0.0,0.0,0.0,0.0,-2.9754,-3.0658,-3.1009,-3.0557,-3.1486,-3.2089,-3.2164,-3.3194,-3.3746,-3.3822,-3.4324,-3.4555,-3.4555,-3.4625,-3.465,-3.465,-3.465,-3.465,-3.465,-3.465,-3.465,-3.455,-3.3445,-3.2692,-3.2215,-3.2164,-3.1813,-3.1461,-3.1913,-3.2064,-3.2114,0.0,0.0,0.0,-1.9708,-1.9708,-1.9947,-2.0598,-2.1066,-2.1516,-2.1978,-2.3441,-2.434,-2.4174,-2.5716,-2.6437,-2.5704,-2.6115,-2.6187,-2.5627,-2.5619,-2.5695,-2.5896,-2.6273,-2.6474,-2.6414,-2.7143,-2.7695,-2.8047,-2.8825,-2.9202,-2.9202,-2.9202,-2.9202,-2.9202,-2.9202,-2.9202,-2.9126,-2.7996,-2.7027,-2.6122,-2.5544,-2.428,0.0,0.0,0.0,0.0,0.0,0.0,0.0,0.0,0.0,0.0,0.0,0.0,0.0,0.0,0.0,0.0,0.0,0.0,0.0,0.0,0.0,0.0,0.0,0.0,0.0,0.0,0.0,0.0,0.0,0.0,0.0,0.0,0.0,0.0,0.0,0.0,0.0,-2.8273,-2.9503,0.0,-3.0783,-3.1009,-3.1336,-3.1863,-3.1913,-3.2164,-3.2692,-3.3093,-3.347,-3.3822,-3.4223,-3.4424,-3.4424,-3.4931,-3.5207,-3.5207,-3.5604,-3.578,-3.578,-3.578,-3.578,-3.578,-3.578,-3.578,-3.573,-3.4977,-3.4279,-3.3822,-3.3822,-3.3696,-3.3571,-3.3746,-3.3596,-3.3319,0.0,0.0,0.0,-1.9708,-1.9887,-2.0258,-2.0946,-2.1605,-2.2433,-2.3541,-2.4456,-2.5275,-2.605,-2.6802,-2.7232,-2.7199,-2.7412,-2.7344,-2.681,-2.6776,-2.6776,-2.6776,-2.6952,-2.7404,-2.8122,-2.8298,-2.8612,-2.9189,-2.9804,-3.008,-3.008,-3.0256,-3.0331,-3.0331,-3.0331,-3.0131,-2.9754,-2.9202,-2.8197,-2.7027,-2.6851,-2.5996,-2.4782,0.0,0.0,0.0,0.0,0.0,0.0,0.0,0.0,0.0,0.0,0.0,0.0,0.0,0.0,0.0,0.0,0.0,0.0,0.0,0.0,0.0,0.0,0.0,0.0,0.0,0.0,0.0,0.0,0.0,0.0,0.0,0.0,0.0,0.0,-2.758,-2.8323,-2.8838,-3.0407,-3.1512,-3.1662,-3.2014,-3.2541,-3.3294,-3.3169,-3.3395,-3.4148,-3.4173,-3.4424,-3.4931,-3.4956,-3.5102,-3.5278,-3.5629,-3.5805,-3.583,-3.6182,-3.6405,-3.6405,-3.6405,-3.6405,-3.6405,-3.6405,-3.6405,-3.638,-3.5981,-3.5604,-3.5253,-3.4876,-3.468,-3.468,-3.468,-3.45,-3.4173,0.0,0.0,-1.9708,-1.9708,-2.0258,-2.0946,-2.1605,-2.2283,-2.3392,-2.5345,-2.597,-2.6766,-2.8168,-2.7943,-2.794,-2.8441,-2.778,-2.7304,-2.7293,-2.7293,-2.7329,-2.7293,-2.7846,-2.8649,-2.9754,-2.9252,-2.9252,-2.9804,-3.0357,-3.0633,-3.0658,-3.116,-3.1386,-3.1386,-3.1386,-3.0809,-2.988,-3.0407,-2.9679,-2.8122,-2.7544,-2.7027,-2.6399,0.0,0.0,0.0,0.0,0.0,0.0,0.0,0.0,0.0,0.0,0.0,0.0,0.0,0.0,0.0,0.0,0.0,0.0,0.0,0.0,0.0,0.0,0.0,0.0,0.0,0.0,0.0,0.0,0.0,0.0,0.0,0.0,0.0,-2.762,-2.88,-2.9654,-2.9113,-3.1461,-3.2867,-3.234,-3.3294,-3.3922,-3.3947,-3.4449,-3.4705,-3.4731,-3.4731,-3.4981,-3.5508,-3.5533,-3.583,-3.6405,-3.6405,-3.6405,-3.643,-3.643,-3.643,-3.6455,-3.6455,-3.6455,-3.6455,-3.6455,-3.6455,-3.6455,-3.643,-3.643,-3.6329,-3.5203,-3.4731,-3.4731,-3.4731,-3.4731,-3.4731,-1.9708,-1.9708,-1.9708,-1.9708,-2.0258,-2.0946,-2.1605,-2.2283,-2.3392,-2.5345,-2.5454,-2.6106,-2.8082,-2.8298,-2.8178,-2.794,-2.8132,-2.798,-2.7339,-2.7293,-2.7469,-2.7871,-2.8398,-2.8813,-2.9113,-2.9765,-3.0231,-3.0382,-3.0909,-3.1185,-3.1185,-3.1311,-3.1386,-3.1386,-3.1386,-3.1235,-3.0959,-3.111,-3.0457,-2.9277,-2.8699,-2.7921,-2.7102,0.0,0.0,0.0,0.0,0.0,0.0,0.0,0.0,0.0,0.0,0.0,0.0,0.0,0.0,0.0,0.0,0.0,0.0,0.0,0.0,0.0,0.0,0.0,0.0,0.0,0.0,0.0,0.0,0.0,0.0,0.0,-2.9654,-2.9779,-2.9704,-3.0407,-3.1336,-3.2416,-3.2867,-3.3319,-3.3972,-3.4324,-3.463,-3.5006,-3.5182,-3.5458,-3.5881,-3.5906,-3.5981,-3.6132,-3.6132,-3.6207,-3.6405,-3.6405,-3.6606,-3.696,-3.696,-3.7161,-3.7563,-3.7563,-3.7563,-3.7563,-3.7563,-3.7563,-3.7513,-3.7136,-3.696,-3.6885,-3.6229,-3.5906,-3.5906,-3.5906,-3.5906,-3.5906,-1.9708,-1.9708,-1.9798,-2.0079,-2.0677,-2.1335,-2.2014,-2.2673,-2.3901,-2.6123,-2.5928,-2.6581,-2.9347,-2.8738,-2.8285,-2.8544,-2.8462,-2.82,-2.7656,-2.7846,-2.8122,-2.8423,-2.9001,-2.9402,-2.959,-3.0281,-3.0708,-3.0934,-3.1461,-3.1738,-3.1738,-3.1989,-3.2089,-3.2089,-3.2089,-3.1964,-3.1738,-3.1738,-3.1235,-3.0407,-2.9854,-2.8976,-2.7921,-2.7544,-2.6942,-2.6239,-2.5669,-2.5511,-2.546,-2.4632,0.0,0.0,0.0,0.0,0.0,0.0,0.0,0.0,0.0,0.0,0.0,0.0,0.0,0.0,0.0,0.0,0.0,0.0,0.0,0.0,0.0,0.0,0.0,0.0,-3.0959,-3.1537,-3.1637,-3.1913,-3.2466,-3.3445,-3.3671,-3.4098,-3.4931,-3.5031,-3.5257,-3.5855,-3.5881,-3.6031,-3.638,-3.6405,-3.6405,-3.6405,-3.6631,-3.6757,-3.6757,-3.6935,-3.7211,-3.7538,-3.7538,-3.7688,-3.8015,-3.8015,-3.8015,-3.8015,-3.8015,-3.8015,-3.799,-3.7663,-3.7538,-3.7437,0.0,0.0,0.0,0.0,-3.6405,-3.6405,-1.9738,-1.9708,-1.9899,-2.0569,-2.1246,-2.1954,-2.2613,-2.3191,-2.4537,-2.7255,-2.6834,-2.7637,-3.1126,-2.9373,-2.843,-2.9585,-2.8804,-2.8206,-2.8097,-2.8574,-2.8838,-2.8888,-2.9478,-3.0055,-3.0608,-3.0683,-3.0959,-3.1486,-3.2039,-3.2315,-3.2315,-3.2842,-3.3111,-3.3111,-3.3111,-3.2792,-3.2315,-3.2315,-3.1989,-3.1436,-3.0909,-3.003,-2.8875,-2.7429,-2.7128,-2.7193,-2.5184,-2.5109,-2.5887,-2.5285,0.0,0.0,0.0,0.0,0.0,0.0,0.0,0.0,0.0,0.0,0.0,0.0,0.0,0.0,0.0,0.0,0.0,0.0,0.0,0.0,0.0,0.0,0.0,0.0,-3.2215,-3.3671,-3.3319,-3.3319,-3.3345,-3.3269,-3.4123,-3.4881,-3.5433,-3.5508,-3.578,-3.6355,-3.6405,-3.643,-3.6505,-3.6505,0.0,0.0,0.0,-3.7287,-3.7287,-3.7764,-3.804,-3.809,-3.809,-3.814,-3.8191,-3.8191,-3.8191,-3.8191,-3.8191,-3.8191,-3.8191,-3.8191,-3.8165,-3.799,-3.7008,-3.6606,-3.6606,-3.6606,-3.6606,-3.6606,-1.9917,-1.9708,-1.9899,-2.0569,-2.1246,-2.1954,-2.2613,-2.3191,-2.4537,-2.7255,-2.6834,-2.7637,-3.1126,-3.0236,-2.9323,-2.9164,-2.9152,-2.8841,-2.8133,-2.8197,-2.8473,-2.8863,-2.9478,-3.0055,-3.0608,-3.1035,-3.1512,-3.2064,-3.2641,-3.2918,-3.2918,-3.3061,-3.3111,-3.3111,-3.3111,-3.3061,-3.2918,-3.2918,-3.2591,-3.2014,-3.1461,-3.0583,-2.9578,-2.9277,-2.8925,-2.8461,-2.762,-2.772,-2.8085,-2.7143,-2.6866,-2.6942,-2.6841,-2.5963,0.0,0.0,0.0,0.0,0.0,0.0,0.0,0.0,0.0,0.0,0.0,0.0,0.0,0.0,0.0,0.0,0.0,0.0,0.0,-3.224,-3.2893,-3.352,-3.4299,-3.4731,-3.4856,-3.4449,-3.46,-3.4881,-3.5433,-3.5508,-3.578,-3.6355,-3.6405,-3.6606,-3.701,-3.7036,-3.7236,-3.7688,-3.7789,-3.7839,-3.7839,-3.7965,-3.8241,-3.8718,-3.8718,0.0,-3.9371,-3.9371,-3.9371,-3.9371,-3.9371,-3.9371,-3.9371,-3.9371,-3.9094,-3.8642,-3.7965,-3.7688,-3.7688,-3.7688,-3.7688,-3.7688,-2.0887,-2.0696,-2.0917,-2.1575,-2.1984,-2.2433,-2.3041,-2.34,-2.4448,-2.6806,-2.6726,-2.7362,-2.9779,-2.9752,-2.9313,-2.8693,-2.8822,-2.9127,-2.9641,-2.8946,-2.8775,-2.9327,-2.9628,-3.0181,-3.0984,-3.126,-3.1788,-3.2641,-3.2943,-3.3111,-3.3111,-3.3111,-3.3111,-3.3111,-3.3111,-3.3111,-3.3111,-3.3111,-3.2918,-3.2591,-3.2039,-3.1311,-3.0507,-2.9679,-2.9352,-2.9277,-2.8725,-2.8662,-2.8762,-2.7971,-2.7519,-2.7293,-2.7293,-2.6515,-2.5536,0.0,0.0,0.0,0.0,0.0,0.0,0.0,0.0,0.0,0.0,0.0,0.0,0.0,0.0,-2.9628,-3.0432,0.0,-3.2114,-3.2943,-3.3771,-3.45,-3.5006,-3.5332,-3.5282,-3.4731,-3.4931,-3.5207,-3.5483,-3.5508,-3.5834,-3.6709,-3.6832,-3.701,-3.7563,-3.7588,-3.7713,-3.799,-3.8291,-3.8442,-3.8442,-3.8718,-3.8994,-3.927,-3.927,-3.9421,-3.9697,-3.9697,-3.9697,-3.9697,-3.9697,-3.9697,-3.9697,-3.9697,-3.9521,-3.9245,-3.8969,-3.8492,-3.8015,-3.8015,-3.8015,-3.8015,-2.2173,-2.2054,-2.2203,-2.2613,-2.2703,-2.2912,-2.352,-2.361,-2.4268,-2.6153,-2.6393,-2.6901,-2.8248,-2.8869,-2.903,-2.8685,-2.8611,-2.9273,-3.0903,-2.9921,-2.9539,-3.0037,-3.0062,-3.0544,-3.1508,-3.1458,-3.1888,-3.2918,-3.3018,-3.3111,-3.3111,-3.3111,-3.3111,-3.3111,-3.3111,-3.3111,-3.3111,-3.3111,-3.3111,-3.3061,-3.234,-3.1788,-3.121,-2.9679,-2.9377,-2.9704,-2.9126,-2.8963,-2.8963,-2.8448,-2.8047,-2.7806,-2.7806,-2.6992,-2.6088,-2.6088,-2.5862,0.0,0.0,0.0,0.0,0.0,0.0,0.0,0.0,-2.7681,-2.7882,-2.9854,-3.0357,-3.0708,-3.1562,-3.2541,-3.3294,-3.352,-3.4575,-3.5382,-3.5483,-3.5408,-3.5132,-3.4625,-3.4906,-3.5232,-3.5332,-3.5332,-3.5834,-3.7086,-3.7186,-3.7487,-3.814,-3.8165,-3.8216,-3.8341,-3.8793,-3.907,-3.907,-3.9471,-3.9697,-3.9697,-3.9697,-3.9697,-3.9697,-3.9697,-3.9697,-3.9697,-3.9697,-3.9697,-3.9697,-3.9697,-3.9697,-3.9697,-3.9697,-3.9145,-3.8341,-3.8341,-3.8341,-3.8341,-2.34,-2.34,-2.3221,-2.2793,-2.2703,-2.2912,-2.352,-2.361,-2.4118,-2.5525,-2.5704,-2.6213,-2.7555,-2.8289,-2.9009,-2.9833,-2.9289,-2.9333,-3.026,-3.0481,-3.0713,-3.1029,-3.1044,-3.1333,-3.1925,-3.1592,-3.1687,-3.2315,-3.2817,-3.3111,-3.3111,-3.3111,-3.3111,-3.3111,-3.3111,-3.3111,-3.3111,-3.3111,-3.3111,-3.3036,-3.1913,-3.1436,-3.126,-3.0131,-2.9729,-2.9704,-2.9126,-2.9252,-2.9603,-2.9026,-2.9126,-2.9503,-2.9503,-2.8725,-2.7821,-2.7821,-2.6766,-2.5561,-2.536,-2.5921,-2.6725,-2.767,-2.7871,-2.8373,0.0,-3.0532,-3.0482,-3.1687,-3.234,-3.2784,-3.291,-3.3395,-3.4123,-3.5056,-3.4956,-3.4931,-3.5433,-3.5082,-3.46,-3.4048,-3.4048,-3.4274,-3.4731,-3.4781,-3.5479,-3.7061,-3.7186,-3.7638,-3.8718,-3.8768,-3.8994,-3.9496,-3.9572,-3.9597,-3.9597,-3.9672,-3.9697,-3.9697,-3.9697,-3.9697,-3.9697,-3.9697,-3.9697,-3.9697,-3.9697,-3.9697,-3.9697,-3.9697,-3.9697,-3.9697,-3.9697,-3.9622,-3.9496,-3.9496,-3.9496,-3.9496,-2.361,-2.361,-2.352,-2.3272,-2.3221,-2.331,-2.355,-2.361,-2.3939,-2.4903,-2.5023,-2.5382,-2.6333,-2.738,-2.8654,-3.0219,-2.9603,-2.9617,-3.0649,-3.0776,-3.098,-3.1405,-3.1821,-3.2025,-3.1973,-3.1837,-3.1738,-3.1738,-3.229,-3.2566,-3.2591,-3.2918,-3.3111,-3.3111,-3.3111,-3.2893,-3.2566,-3.2566,-3.239,-3.2064,-3.1587,-3.121,-3.0884,-3.0432,-3.008,-2.9704,-2.9126,-2.8875,0.0,-2.8524,-2.8398,-2.8448,-2.9076,-2.875,-2.8047,-2.772,-2.7369,-2.7118,-2.7444,-2.7469,-2.777,-2.9202,-2.9578,-2.988,-3.111,-3.0984,-3.1009,-3.2416,-3.2893,-3.3269,-3.3922,-3.4474,-3.4956,-3.5433,-3.5307,-3.5232,-3.5458,-3.4756,-3.4274,-3.4374,-3.4098,-3.4123,-3.4675,-3.5303,-3.6232,-3.7563,-3.7965,-3.8517,-3.9295,-3.9346,-3.9446,-3.9697,-3.9697,-3.9697,-3.9697,-3.9697,-3.9697,-3.9697,-3.9697,-3.9697,-3.9697,-3.9697,-3.9697,-3.9697,-3.9697,-3.9697,-3.9697,-3.9697,-3.9697,-3.9697,-3.9697,-3.9697,-3.9697,-3.9697,-3.9697,-3.9697,-2.361,-2.361,-2.361,-2.361,-2.361,-2.361,-2.361,-2.361,-2.3789,-2.4246,-2.4306,-2.4575,-2.5232,-2.6512,-2.7914,-2.9295,-2.9395,-2.9696,-3.0492,-3.0807,-3.1223,-3.174,-3.2388,-3.2601,-3.2316,-3.2343,-3.2249,-3.1951,-3.226,-3.2377,-3.2377,-3.2542,-3.2616,-3.2616,-3.2616,-3.239,-3.1989,-3.1989,-3.1763,-3.1386,-3.1235,-3.0959,-3.0608,-3.0457,-3.0131,-2.9729,-2.9327,-2.89,-2.8599,-2.875,-2.8323,-2.7896,-2.8875,-2.8574,-2.7871,-2.777,-2.8122,-2.8699,-2.9214,-2.9101,-2.9126,-3.0482,-3.0834,-3.0959,-3.1486,-3.1461,-3.1687,-3.3018,-3.342,-3.3822,-3.4731,-3.5232,-3.5533,-3.5708,-3.5458,-3.5282,-3.5282,-3.4374,-3.3872,-3.4424,-3.4274,-3.4349,-3.4856,-3.5805,-3.681,-3.7914,-3.8542,-3.912,-3.9672,-3.9697,-3.9697,-3.9697,-3.9697,-3.9697,-3.9697,-3.9697,-3.9772,-3.9923,-3.9923,-3.9998,-4.0149,-4.0149,-4.0149,-4.0149,-4.0149,-4.0149,-4.0149,-4.0149,-4.0049,-3.9923,-3.9923,-3.9823,-3.9697,-3.9697,-3.9697,-3.9697,-2.361,-2.361,-2.361,-2.361,-2.361,-2.361,-2.361,-2.361,-2.361,-2.364,-2.364,-2.3909,-2.4575,-2.5824,-2.6632,-2.6692,-2.8487,-2.9478,-2.92,-3.0631,-3.1662,-3.208,-3.2737,-3.3078,-3.3044,-3.3246,-3.3358,-3.3349,-3.2966,-3.2778,-3.2778,-3.1858,-3.1436,-3.1436,-3.1436,-3.1436,-3.1411,-3.1411,-3.1411,-3.1336,-3.0834,-3.0633,-3.0557,-3.003,-2.9804,-2.9804,-2.9779,-2.9754,-2.9829,-3.0357,-2.9765,-2.8938,-2.9578,-2.8649,-2.7519,-2.8574,-2.9277,-2.9854,-3.0407,-3.0557,-3.0658,-3.1235,-3.1361,-3.1512,-3.2064,-3.2616,-3.3212,-3.3746,-3.4299,-3.4806,-3.5357,-3.5483,-3.5683,-3.6304,-3.5454,-3.4705,-3.4705,-3.3796,-3.3294,-3.3847,-3.4374,-3.4881,-3.5408,-3.6031,-3.681,-3.7914,-3.8542,-3.912,-3.9672,-3.9697,-3.9697,-3.9697,-3.9697,-3.9697,-3.9697,-3.9697,-3.9973,-4.0501,-4.0501,-4.0777,-4.1225,-4.1225,-4.1225,-4.1225,-4.1225,-4.1225,-4.1225,-4.1225,-4.0924,-4.0501,-4.0501,-4.0174,-3.9697,-3.9697,-3.9697,-3.9697,-2.361,-2.361,-2.361,-2.361,-2.361,-2.361,-2.361,-2.361,-2.361,-2.361,-2.3999,0.0,0.0,0.0,0.0,0.0,-2.6961,-2.7552,-2.7447,-2.958,-3.0888,-3.1043,-3.2549,-3.3062,-3.2454,-3.2924,-3.2841,-3.2211,-3.2872,-3.3213,-3.3176,-3.3265,-3.3298,-3.3298,-3.2633,-3.2109,-3.1772,-3.1113,-3.0658,-3.0281,-2.9729,-2.9465,-2.949,-2.9729,-2.9553,-2.9327,0.0,-3.0105,-2.9829,-3.0005,-2.9829,-2.9603,-3.0156,-2.9955,-2.9578,-2.993,-2.993,-2.9905,-3.0457,-3.0859,-3.126,-3.1813,-3.2215,-3.2641,-3.3194,-3.3495,-3.3872,-3.4756,-3.4806,-3.4831,-3.5408,-3.5508,-3.5558,-3.578,-3.5458,-3.5107,-3.4731,-3.4098,-3.3822,-3.4374,-3.46,-3.5077,-3.6006,-3.691,-3.7613,-3.799,-3.8894,-3.9496,-3.9697,-3.9697,-3.9697,-3.9697,-3.9697,-3.9873,-4.0249,-4.0249,-4.0526,-4.1,-4.1,-4.11,-4.1275,-4.1275,-4.1275,-4.1275,-4.1275,-4.1275,-4.1275,-4.1275,-4.1175,-4.1,-4.1,-4.0899,-4.0724,-4.0724,-4.0724,-4.0676,-2.361,-2.361,-2.361,-2.361,-2.361,0.0,0.0,0.0,0.0,0.0,0.0,0.0,0.0,0.0,0.0,0.0,0.0,-2.6243,-2.6243,-2.8038,-2.9325,-2.9804,-3.1509,-3.2257,-3.1884,-3.2759,-3.2938,-3.2283,-3.2707,-3.2926,-3.2926,-3.2952,-3.2964,-3.2928,-3.2006,-3.1382,-3.1003,-3.0101,-2.9854,-2.998,-2.88,-2.8825,-2.9439,-2.9051,-2.8775,0.0,-2.9905,-3.0105,-2.9854,-3.0231,-3.0105,-2.988,-3.0432,-3.0331,-3.0131,-3.0708,-3.0633,-3.0532,-3.1286,-3.1738,-3.2139,-3.2667,-3.3093,-3.352,-3.4073,-3.4349,-3.47,-3.5357,-3.5232,-3.5082,-3.5433,-3.5508,-3.5508,-3.5508,-3.5508,-3.5382,-3.5031,-3.455,-3.4399,-3.4906,-3.4981,-3.5378,-3.6329,-3.7362,-3.8015,-3.8015,-3.9044,-3.9697,-3.9697,-3.9697,-3.9798,-3.9973,-3.9998,-4.0249,-4.0802,-4.0802,-4.1078,-4.163,-4.1831,-4.1932,-4.1932,-4.1932,-4.1932,-4.1932,-4.1932,-4.1932,-4.1932,-4.1932,-4.1806,-4.163,-4.163,-4.1505,-4.1275,-4.1275,-4.1275,-4.1175,-2.361,-2.361,-2.361,0.0,0.0,0.0,0.0,0.0,0.0,0.0,0.0,0.0,0.0,0.0,0.0,0.0,0.0,0.0,-2.5495,-2.6153,-2.7111,-2.8397,-2.9684,-3.0672,-3.1331,-3.2647,-3.3335,-3.3395,-3.2528,-3.2086,-3.2112,-3.1081,-3.0648,-3.0614,-2.9797,-2.9442,-2.9372,-2.8467,-2.8963,-3.0245,-2.8108,-2.8473,-3.0131,-2.8047,-2.7544,-2.8122,-2.9277,-2.9704,-2.9854,-3.0909,-3.0583,-2.9854,-3.0507,-2.9955,-2.9389,-3.1035,-3.1486,-3.1712,-3.2835,-3.3093,-3.3244,-3.3771,-3.3922,-3.4098,-3.465,-3.5132,-3.5508,-3.5533,-3.5508,-3.5508,-3.5533,-3.5508,-3.5508,-3.5533,-3.5533,-3.5533,-3.5508,-3.5056,-3.4906,-3.5433,-3.5508,-3.5755,-3.6355,-3.7362,-3.8015,-3.8015,-3.9044,-3.9697,-3.9697,-3.9722,-3.9973,-4.0501,-4.0551,-4.0827,-4.1326,-4.1351,-4.1681,-4.2263,-4.2791,-4.2986,-4.2986,-4.2986,-4.2986,-4.2986,-4.2986,-4.2986,-4.2986,-4.2986,-4.2715,-4.2263,-4.2263,-4.1882,-4.1376,-4.1376,-4.1376,-4.1376,0.0,0.0,0.0,0.0,0.0,0.0,0.0,0.0,0.0,0.0,0.0,0.0,0.0,0.0,0.0,0.0,0.0,0.0,-2.4118,-2.5226,-2.6004,-2.6363,-2.7619,0.0,-2.9325,-3.0163,-3.1061,-3.2019,-3.1783,-3.1901,-3.2404,-3.1601,-3.1275,-3.1215,-3.0327,-2.9919,-2.9855,-2.8326,-2.7971,-2.8213,0.0,-2.6364,-2.6866,-2.6751,-2.6524,-2.644,-2.7971,-2.8524,-2.8649,-2.9327,-2.9377,-2.9453,-3.1235,-3.1612,-3.1612,-3.2893,-3.2968,-3.2759,-3.2993,-3.337,-3.3721,-3.3872,-3.4198,-3.465,-3.5157,-3.5408,-3.5608,-3.6081,-3.583,-3.5633,-3.6081,-3.5805,-3.5633,-3.6081,-3.6157,-3.6006,-3.5558,-3.5382,-3.5332,-3.5483,-3.5508,-3.5755,-3.6355,-3.7362,-3.8015,-3.8015,-3.9044,-3.9697,-3.9697,-4.0074,-4.0375,-4.0501,-4.0902,-4.1404,-4.1932,-4.2359,-4.2635,-4.2816,-4.2911,-4.2986,-4.2986,-4.2986,-4.2986,-4.2986,-4.2986,-4.2986,-4.2986,-4.2986,-4.2886,-4.2816,-4.2816,-4.2685,-4.2559,-4.2559,-4.2559,-4.2559,0.0,0.0,0.0,0.0,0.0,0.0,0.0,0.0,0.0,0.0,0.0,0.0,0.0,0.0,0.0,0.0,0.0,0.0,0.0,-2.4298,-2.4866,-2.5143,-2.6452,-2.7495,-2.8154,-2.9112,-2.9804,-3.0225,0.0,0.0,-3.0791,-3.0702,-3.0672,-3.0615,-2.9726,-2.9315,-2.9227,-2.7892,0.0,0.0,0.0,0.0,0.0,0.0,-2.4958,-2.5008,-2.5963,-2.69,-2.7833,-2.8963,-2.9669,-3.0256,-3.1738,-3.1888,-3.1788,-3.3144,-3.3144,-3.2742,-3.3061,-3.347,-3.3947,-3.4198,-3.45,-3.4831,-3.5382,-3.5307,-3.5232,-3.5579,-3.5203,-3.5002,-3.5554,-3.5403,-3.5332,-3.5906,-3.6207,-3.6304,-3.5956,-3.5906,-3.5981,-3.6232,-3.6056,-3.6207,-3.701,-3.7638,-3.8115,-3.8366,-3.9195,-3.9798,-4.0049,-4.035,-4.0752,-4.1229,-4.153,-4.1957,-4.2564,-4.2866,-4.2986,-4.2986,-4.2986,-4.2986,-4.2986,-4.2986,-4.2986,-4.2986,-4.2986,-4.2986,-4.2986,-4.2986,-4.2986,-4.2986,-4.2986,-4.2986,-4.2986,-4.2986,-4.2986,-4.3073,0.0,0.0,0.0,0.0,0.0,0.0,0.0,0.0,0.0,-2.3969,-2.3759,-2.361,-2.361,-2.361,0.0,0.0,0.0,0.0,0.0,0.0,-2.3879,-2.4455,-2.5585,-2.6537,-2.7195,-2.8364,-2.8727,-2.8338,-2.8906,-2.8936,0.0,0.0,0.0,0.0,0.0,0.0,0.0,0.0,0.0,0.0,0.0,0.0,0.0,0.0,0.0,-2.3801,-2.3983,-2.5323,-2.734,-2.9336,-3.0508,-3.1286,-3.1905,-3.1461,-3.1009,-3.2727,-3.2794,-3.2483,-3.3131,-3.36,-3.4022,-3.45,-3.4675,-3.4781,-3.5182,-3.5031,-3.4781,-3.468,-3.4449,-3.4374,-3.4851,-3.4826,-3.4997,-3.5814,-3.6096,-3.6301,-3.6716,-3.655,-3.6606,-3.7111,-3.6807,-3.6933,-3.7914,-3.8065,-3.8341,-3.8894,-3.9446,-4.0023,-4.0501,-4.0576,-4.1128,-4.2288,-4.2313,-4.2539,-4.2961,-4.2986,-4.2986,-4.2986,-4.2986,-4.2986,-4.2986,-4.2986,-4.2986,-4.2986,-4.2986,-4.2986,-4.2986,-4.2986,-4.2986,-4.2986,-4.2986,-4.2986,-4.3042,-4.3184,-4.3295,-4.3436,0.0,0.0,0.0,0.0,0.0,0.0,0.0,0.0,0.0,0.0,-2.4627,-2.361,0.0,0.0,0.0,0.0,0.0,0.0,0.0,0.0,0.0,-2.3759,-2.3999,-2.4448,-2.5113,-2.5352,-2.595,-2.6931,-2.7051,-2.7345,0.0,0.0,0.0,0.0,0.0,0.0,0.0,0.0,0.0,0.0,0.0,0.0,0.0,0.0,0.0,0.0,-2.3864,-2.5252,-2.6943,-2.9217,-2.9928,-3.0027,-3.1189,-3.1411,-3.159,-3.3175,-3.3348,-3.3156,-3.4152,-3.4153,-3.3922,-3.4022,-3.4374,-3.4625,-3.4274,-3.4781,-3.5232,-3.4781,-3.5378,-3.6003,-3.6103,-3.5328,-3.5542,-3.8083,-3.6519,-3.5867,-3.8266,-3.7365,-3.6606,-3.7111,-3.7111,-3.7287,-3.7939,-3.8442,-3.8818,-3.8919,-3.9798,-4.0425,-4.0501,-4.0899,-4.1706,-4.2811,-4.2836,-4.2942,-4.2986,-4.2986,-4.2986,-4.2986,-4.2986,-4.2986,-4.2986,-4.2986,-4.2986,-4.2986,-4.2986,-4.2986,-4.2986,-4.2986,-4.2986,-4.2986,-4.2986,-4.2986,-4.3129,-4.4209,-4.4643,-4.4833,0.0,0.0,0.0,0.0,0.0,0.0,0.0,-2.5398,-2.5884,-2.7914,-2.759,-2.6662,-2.5315,-2.4238,-2.361,0.0,0.0,0.0,0.0,0.0,0.0,0.0,0.0,0.0,0.0,-2.4933,-2.5262,-2.5585,0.0,-2.6063,-2.6063,-2.6393,-2.6542,-2.6542,-2.6542,-2.6542,-2.6542,-2.6199,0.0,-2.5917,-2.4864,-2.4441,0.0,0.0,0.0,0.0,-2.354,-2.5107,-2.683,-2.8838,-3.0327,-3.1431,-3.1727,-3.2199,-3.2794,-3.3553,-3.3488,-3.3428,-3.5034,-3.5114,-3.4943,-3.5848,-3.6267,-3.6253,-3.5426,-3.5425,-3.523,-3.4105,-3.4299,-3.4796,-3.5027,-3.4424,-3.4521,-3.6502,-3.5613,-3.5305,-3.7016,-3.673,-3.6606,-3.7111,-3.7186,-3.7513,-3.8366,-3.8718,-3.9045,-3.927,-4.0049,-4.0651,-4.0874,-4.1731,-4.2434,-4.2961,-4.2986,-4.2986,-4.2986,-4.2986,-4.2986,-4.2986,-4.2986,-4.2986,-4.2986,-4.2986,-4.2986,-4.2986,-4.2986,-4.2986,-4.2986,-4.2986,-4.2986,-4.2986,-4.2986,-4.3436,-4.4126,-4.4725,-4.5449,-4.6265,0.0,0.0,0.0,0.0,0.0,0.0,0.0,-2.7076,-2.7705,-3.0131,-3.0462,-2.9714,-2.7649,-2.5644,-2.4238,0.0,0.0,0.0,0.0,0.0,0.0,0.0,0.0,0.0,0.0,0.0,0.0,-2.4395,-2.5053,0.0,0.0,0.0,0.0,0.0,-2.5615,-2.5615,-2.5615,-2.5615,-2.5615,0.0,0.0,-2.4539,0.0,0.0,0.0,0.0,0.0,-2.4743,-2.642,-2.8197,-3.0544,-3.2596,-3.2018,-3.288,-3.4219,-3.4565,-3.4103,-3.3962,-3.6343,-3.6266,-3.5949,-3.7689,-3.8104,-3.7813,-3.6527,-3.5934,-3.5115,-3.3394,-3.3063,-3.3144,-3.3319,-3.3093,-3.3255,-3.4419,-3.4451,-3.474,-3.5796,-3.6092,-3.6433,-3.7111,-3.7287,-3.7764,-3.8818,-3.8969,-3.922,-3.9672,-4.03,-4.0927,-4.148,-4.2434,-4.2986,-4.2986,-4.2986,-4.2986,-4.2986,-4.2986,-4.2986,-4.2986,-4.2986,-4.2986,-4.2986,-4.2986,-4.2986,-4.2986,-4.2986,-4.2986,-4.2986,-4.2986,-4.3184,-4.3436,-4.3436,-4.4264,-4.5502,-4.582,-4.6578,-4.7785,0.0,0.0,0.0,0.0,0.0,0.0,0.0,-2.7165,-2.8873,-3.2647,-3.1599,-3.0402,-3.0163,-2.8423,-2.6267,0.0,0.0,0.0,0.0,0.0,0.0,0.0,0.0,0.0,0.0,0.0,0.0,-2.3699,-2.4365,0.0,0.0,0.0,0.0,0.0,0.0,-2.5615,-2.5615,-2.5615,0.0,0.0,0.0,0.0,0.0,0.0,0.0,0.0,0.0,-2.411,-2.4939,-2.7286,-2.9571,-3.1289,-3.0794,-3.2755,-3.5554,-3.7139,-3.6172,-3.526,-3.8564,-3.7551,-3.5991,-3.7772,-3.8186,-3.7702,-3.5884,-3.5561,-3.5046,-3.3211,-3.2982,-3.2792,-3.1788,-3.1989,-3.2666,-3.395,-3.3621,-3.4183,-3.6919,-3.6334,-3.6006,-3.7061,-3.7638,-3.8191,-3.8869,-3.932,-3.9647,-3.9697,-4.0676,-4.1505,-4.2112,-4.266,-4.2986,-4.2986,-4.2986,-4.2986,-4.2986,-4.2986,-4.2986,-4.2986,-4.2986,-4.2986,-4.2986,-4.2986,-4.2986,-4.2986,-4.2986,-4.2986,-4.2986,-4.2986,-4.3713,-4.4833,-4.4833,-4.5661,-4.7043,-4.8339,-4.8886,-4.921,0.0,0.0,0.0,0.0,0.0,0.0,-2.738,-2.7375,-2.8547,-3.2916,-3.2796,-3.2018,-3.1182,-3.0043,-2.7799,-2.3939,0.0,0.0,0.0,0.0,0.0,0.0,0.0,0.0,0.0,0.0,-2.361,-2.361,-2.3879,0.0,0.0,0.0,0.0,0.0,0.0,-2.4418,-2.4418,-2.4418,0.0,0.0,0.0,0.0,0.0,0.0,0.0,0.0,0.0,0.0,-2.5342,-2.6685,-2.8779,-3.0896,-3.1526,-3.314,-3.5027,-3.5934,-3.5919,-3.6246,-3.9324,-3.9147,-3.8536,-4.0278,-3.9848,-3.8543,-3.7158,-3.6294,-3.503,-3.2258,-3.2111,-3.2211,-3.1306,-3.0939,-3.1193,-3.2541,-3.2639,-3.329,-3.5494,-3.5649,-3.5909,-3.7061,-3.7663,-3.809,-3.8316,-3.917,-3.9973,-4.0626,-4.105,-4.1731,-4.261,-4.2861,-4.2986,-4.2986,-4.2986,-4.2986,-4.2986,-4.2986,-4.2986,-4.2986,-4.2986,-4.2986,-4.2986,-4.2986,-4.2986,-4.2986,-4.2986,-4.2986,-4.2986,-4.2986,-4.3797,-4.4994,-4.4994,-4.637,-4.8439,-4.9014,-4.9727,-5.0508,0.0,0.0,0.0,0.0,0.0,-2.4597,-2.756,-2.753,-2.8577,-3.2407,-3.2916,-3.2557,-3.16,-3.0195,-2.8038,-2.4777,-2.3939,0.0,0.0,0.0,0.0,0.0,0.0,0.0,0.0,0.0,-2.361,-2.361,-2.361,-2.361,0.0,0.0,-2.361,-2.361,0.0,0.0,0.0,0.0,0.0,0.0,0.0,0.0,0.0,0.0,0.0,0.0,0.0,0.0,0.0,0.0,0.0,-2.9834,-3.1001,-3.2377,-3.3928,-3.5527,-3.6061,-3.6787,-3.9861,-4.0097,-3.9915,-4.1662,-4.0726,-3.9109,-3.7938,-3.6469,-3.4569,-3.1891,-3.1276,-3.1088,-3.0724,-3.0043,-2.9885,-3.0973,-3.1763,-3.2616,-3.3822,-3.4831,-3.5859,-3.6835,-3.7588,-3.8065,-3.8241,-3.9145,-4.0149,-4.12,-4.1275,-4.1831,-4.2911,-4.2986,-4.2986,-4.2986,-4.2986,-4.2986,-4.2986,-4.2986,-4.2986,-4.2986,-4.2986,-4.2986,-4.2986,-4.2986,-4.324,-4.3602,-4.3602,-4.3797,-4.4155,-4.3768,-4.4643,-4.6188,-4.5767,-4.7299,-4.9776,-4.9776,-5.0383,-5.1229,0.0,0.0,0.0,0.0,0.0,0.0,-2.6303,-2.7739,-2.9295,-3.1271,-3.154,-3.1511,-3.1511,-2.8607,-2.6602,-2.6572,-2.4747,0.0,0.0,0.0,0.0,0.0,0.0,0.0,0.0,0.0,-2.361,-2.361,-2.361,-2.361,-2.361,-2.361,-2.361,-2.361,0.0,0.0,0.0,0.0,0.0,0.0,0.0,0.0,0.0,0.0,0.0,0.0,0.0,0.0,0.0,0.0,0.0,0.0,0.0,-2.9956,-3.2437,-3.7015,-3.7181,-3.67,-4.0375,-4.0127,-3.9209,-4.0978,-4.0397,-3.9044,-3.7699,-3.5649,-3.3662,-3.2364,-3.0657,-2.9502,-2.9761,-2.931,-2.9048,-2.9371,-3.097,-3.2215,-3.224,-3.4104,-3.5708,-3.6358,-3.7362,-3.8241,-3.8818,-3.9371,-4.0149,-4.12,-4.1275,-4.1831,-4.2911,-4.2986,-4.2986,-4.2986,-4.2986,-4.2986,-4.2986,-4.2986,-4.2986,-4.2986,-4.2986,-4.2986,-4.2986,-4.2986,-4.3713,-4.4994,-4.4994,-4.5767,-4.694,-4.5661,-4.6657,-4.9014,-4.7605,-4.8738,-5.1182,-5.1182,-5.1182,-5.1229,0.0,0.0,0.0,0.0,0.0,0.0,0.0,-2.5196,-2.6063,-2.8517,-2.8427,-2.8667,-3.0043,-2.8038,-2.6602,-2.6602,-2.4747,0.0,0.0,0.0,0.0,0.0,0.0,0.0,0.0,0.0,-2.3819,-2.4276,-2.4276,-2.4276,-2.4276,-2.4276,-2.4036,-2.361,-2.361,-2.361,0.0,0.0,0.0,0.0,0.0,0.0,0.0,0.0,0.0,0.0,0.0,0.0,0.0,0.0,0.0,0.0,0.0,0.0,0.0,-3.3544,-3.5294,-3.6551,-3.7724,-3.8299,-3.8536,-3.865,-3.7345,-3.5938,-3.5489,-3.3804,-3.1865,-3.0475,-2.9628,-2.9306,-3.0029,-2.9673,-2.9784,-3.1253,-3.2472,-3.3389,-3.3859,-3.5545,-3.6799,-3.6905,-3.8335,-4.0053,-4.1904,-4.1413,-4.1463,-4.2554,-4.1785,-4.1831,-4.2911,-4.2986,-4.2986,-4.2986,-4.2986,-4.2986,-4.2986,-4.2986,-4.2986,-4.2986,-4.2986,-4.2986,-4.3042,-4.3962,-4.4589,-4.5048,-4.603,-4.6682,-4.7043,-4.6657,-4.7582,-4.9161,-4.8688,-4.963,-5.1229,-5.1229,-5.1229,-5.1229,0.0,0.0,0.0,0.0,0.0,0.0,0.0,-2.4066,-2.4597,-2.6243,-2.6093,-2.6602,-2.8633,-2.6811,-2.5764,-2.6512,-2.4747,0.0,0.0,0.0,0.0,0.0,0.0,0.0,-2.361,-2.3849,-2.4448,-2.5352,-2.586,-2.6099,-2.6099,-2.6393,-2.5734,-2.4358,-2.4358,-2.4059,0.0,0.0,0.0,0.0,0.0,0.0,-2.361,0.0,0.0,0.0,0.0,0.0,0.0,0.0,0.0,0.0,0.0,0.0,0.0,0.0,-3.2736,-3.4831,-3.5848,-3.6686,-3.7195,-3.6806,-3.54,-3.4113,-3.4113,-3.2976,-3.1633,-3.069,-3.0066,-2.9951,-3.0805,-3.0559,-3.069,-3.2044,-3.3877,-3.5057,-3.5036,-3.6902,-3.8407,-3.8862,-4.0059,-4.1558,-4.3298,-4.235,-4.2042,-4.315,-4.2025,-4.1831,-4.2911,-4.3492,-4.3768,-4.3768,-4.324,-4.324,-4.3768,-4.3768,-4.4016,-4.4535,-4.4535,-4.4535,-4.4589,-4.5395,-4.6083,-4.663,-4.7503,-4.8189,0.0,-4.8088,-4.8688,-4.9873,-4.9406,-5.0017,-5.1229,-5.1229,-5.1229,-5.1229,0.0,0.0,0.0,0.0,0.0,0.0,0.0,-2.4126,-2.4545,-2.4545,-2.4545,-2.5232,-2.7106,-2.5076,-2.4358,-2.6213,0.0,0.0,0.0,0.0,0.0,0.0,0.0,0.0,-2.367,-2.4365,-2.5382,-2.6662,-2.7979,-2.8637,-2.8697,-2.9355,-2.8278,-2.5824,-2.5704,-2.4896,-2.361,0.0,0.0,0.0,-2.361,-2.361,0.0,0.0,0.0,0.0,0.0,0.0,0.0,0.0,0.0,0.0,0.0,0.0,0.0,0.0,0.0,0.0,0.0,-3.519,-3.528,-3.528,-3.4352,-3.3425,-3.3484,-3.2976,0.0,-3.2527,-3.1616,-3.1076,-3.1919,-3.1924,-3.1867,-3.2143,-3.5217,-3.7152,-3.606,-3.8211,-4.0399,-4.1768,-4.2316,-4.2879,-4.3685,-4.2593,-4.2316,-4.3381,-4.229,-4.2023,-4.3078,-4.4427,-4.5102,-4.4994,-4.3907,-4.3852,-4.4994,-4.5102,-4.5767,-4.694,-4.7043,-4.7094,-4.7094,-4.7197,-4.7959,-4.921,-4.9308,-5.0047,-5.1105,-4.9873,-5.0095,-5.1058,-4.9824,-5.0095,-5.1229,-5.1229,-5.1229,-5.1229,0.0,0.0,0.0,0.0,0.0,0.0,0.0,0.0,0.0,0.0,-2.3849,-2.4029,-2.4477,-2.3969,-2.3789,0.0,0.0,0.0,0.0,0.0,0.0,0.0,0.0,0.0,-2.4365,-2.5525,-2.6542,-2.7375,-2.8188,-2.8846,-2.9382,-2.9983,-2.9445,-2.7859,-2.6811,-2.5345,-2.361,-2.361,0.0,0.0,-2.361,-2.361,0.0,0.0,0.0,0.0,-2.361,-2.361,0.0,0.0,0.0,0.0,0.0,0.0,0.0,0.0,-2.9295,-3.0163,-3.0819,0.0,-3.3215,-3.3215,-3.2976,-3.2886,0.0,-3.2976,-3.2527,-3.2527,-3.1769,-3.1314,-3.199,-3.3311,-3.4566,-3.5239,-3.7433,-3.9037,-3.8999,-3.9522,-4.1025,-4.4102,-4.3806,-4.4135,-4.6211,-4.5252,-4.4997,-4.6143,-4.5101,-4.443,-4.4511,-4.5872,-4.6135,-4.5048,-4.5767,-4.5767,-4.4994,-4.6083,-4.6213,-4.5502,-4.6578,-4.7094,-4.7146,-4.8239,-4.8886,-4.9259,-5.0287,-5.0917,-5.1182,-5.087,-5.0917,-5.1182,-5.087,-5.0917,-5.1229,-5.1229,-5.1229,-5.1229,0.0,0.0,0.0,0.0,0.0,0.0,0.0,0.0,0.0,0.0,0.0,0.0,0.0,0.0,0.0,0.0,0.0,0.0,0.0,0.0,0.0,0.0,0.0,-2.5435,-2.5053,-2.6662,-2.7979,-2.8906,-2.9924,-3.0731,-3.139,-3.142,-3.0582,-2.8966,-2.6692,-2.5076,-2.4059,-2.3729,-2.361,-2.361,-2.361,0.0,0.0,0.0,0.0,0.0,-2.361,-2.361,0.0,-2.4365,-2.4814,-2.5173,0.0,0.0,0.0,0.0,-2.8368,-2.9116,-2.9116,-3.0342,-3.1599,-3.1599,-3.2048,-3.2617,-3.2976,-3.3245,-3.3425,-3.3425,0.0,-3.3417,-3.3437,-3.5819,-3.7605,-3.6877,-3.9562,-4.1715,-4.1529,-4.1762,-4.276,-4.503,-4.5039,-4.5502,-4.7146,-4.6166,-4.5907,-4.7127,-4.6034,-4.5472,-4.5949,-4.7299,-4.7707,-4.694,-4.8289,-4.8339,-4.694,-4.7656,-4.7988,-4.7859,-4.8638,-4.9014,-4.9014,-4.9776,-5.0143,-5.0143,-5.087,-5.1229,-5.1229,-5.1229,-5.1229,-5.1229,-5.1229,-5.1229,-5.1229,-5.1229,-5.1229,-5.1229,0.0,0.0,0.0,0.0,0.0,0.0,0.0,0.0,0.0,0.0,0.0,0.0,0.0,0.0,0.0,0.0,0.0,0.0,0.0,0.0,0.0,0.0,0.0,-2.5944,-2.6063,-2.8038,-2.9535,-3.0492,-3.2048,-3.3095,-3.3634,-3.3275,-3.1958,-2.9744,-2.6512,-2.4933,-2.4694,-2.3939,-2.361,-2.361,-2.361,0.0,0.0,0.0,0.0,0.0,0.0,0.0,0.0,-2.4246,-2.4814,-2.5315,-2.5435,0.0,0.0,0.0,0.0,0.0,-2.8577,-2.9684,-3.0821,-3.0821,-3.1659,-3.2557,-3.2886,-3.3844,-3.4683,-3.4803,-3.5491,-3.5961,-3.5523,-3.8397,-4.0198,-3.8206,-4.1506,-4.4077,-4.3379,-4.3898,-4.4556,-4.5214,-4.5903,-4.6591,-4.7249,-4.6432,-4.6326,-4.7438,-4.6631,-4.6433,-4.7346,-4.8738,-4.9406,-4.921,-5.0508,-5.065,-4.9504,-4.9504,-4.9969,-5.0917,-5.1105,-5.1229,-5.1229,-5.1229,-5.1229,-5.1229,-5.1229,-5.1229,-5.1229,-5.1229,-5.1229,-5.1229,-5.1229,-5.1229,-5.1229,-5.1229,-5.1229,-5.1229,0.0,0.0,0.0,0.0,0.0,0.0,0.0,0.0,0.0,0.0,0.0,0.0,0.0,0.0,0.0,0.0,0.0,0.0,0.0,0.0,0.0,0.0,-2.6273,-2.7555,-2.8128,-3.0046,-3.0853,-3.0492,-3.2976,-3.4264,-3.4384,-3.54,-3.4203,-3.1092,-2.8338,-2.6512,-2.5375,-2.4118,-2.361,-2.361,-2.361,0.0,0.0,0.0,0.0,0.0,0.0,0.0,0.0,-2.3729,-2.3819,-2.3999,-2.4575,0.0,0.0,0.0,0.0,0.0,-2.8457,-3.0372,-3.2198,-3.2198,-3.2347,-3.2946,-3.4651,-3.519,-3.5519,-3.6058,-3.6317,-3.6665,-3.7382,-3.9156,-4.0651,-4.1088,-4.2942,-4.4077,-4.3379,-4.3898,-4.4556,-4.5214,-4.5903,-4.6591,-4.7249,-4.7612,-4.8149,-4.8893,-4.9275,-4.9303,-4.8907,-5.0143,-5.0383,-4.9259,-5.0508,-5.1105,-5.0917,-5.0917,-5.043,-4.9504,-5.065,-5.1229,-5.1229,-5.1229,-5.1229,-5.1229,-5.1229,-5.1229,-5.1229,-5.1229,-5.1229,-5.1229,-5.1229,-5.1229,-5.1229,-5.1229,-5.1229,-5.1229,0.0,0.0,0.0,0.0,0.0,0.0,0.0,0.0,0.0,0.0,0.0,0.0,0.0,0.0,0.0,0.0,0.0,0.0,0.0,0.0,0.0,-2.6692,-2.6931,-2.753,-2.8577,-3.0853,-3.2258,-3.2647,-3.4592,-3.5729,-3.6058,-3.5609,-3.3814,-3.0853,-2.8603,-2.7076,-2.6033,-2.4328,-2.361,-2.361,0.0,0.0,0.0,0.0,0.0,0.0,0.0,0.0,0.0,0.0,-2.4126,-2.4186,-2.4515,0.0,0.0,0.0,0.0,0.0,-2.8846,-3.0013,-3.136,-3.3125,-3.4651,-3.5848,-3.6417,-3.7105,-3.7584,-3.7524,-3.8093,-3.8764,-3.9225,-4.0761,-4.2216,-4.3035,-4.3496,-4.3768,-4.3828,-4.4436,-4.4945,-4.5244,-4.5903,-4.6292,-4.6232,-4.683,-4.7489,-4.8147,-4.8805,-4.9207,-4.9275,-5.0156,-5.0381,-4.9757,-5.0662,-5.1229,-5.1229,-5.1229,-5.0917,-5.0287,-5.0917,-5.1229,-5.1229,-5.1229,-5.1229,-5.1229,-5.1229,-5.1229,-5.1229,-5.1229,-5.1229,-5.1229,-5.1229,-5.1229,-5.1169,-5.0764,-5.0644,-5.0584,0.0,0.0,0.0,0.0,0.0,0.0,0.0,0.0,0.0,0.0,0.0,0.0,0.0,0.0,0.0,0.0,0.0,0.0,0.0,0.0,-2.4837,-2.756,-2.6961,-2.7649,-2.9924,-3.1958,-3.3634,-3.4983,-3.6596,-3.7494,-3.7584,-3.5639,-3.3455,-3.112,-2.9172,-2.7854,-2.6931,-2.4926,-2.3999,-2.3819,0.0,0.0,0.0,0.0,0.0,0.0,0.0,0.0,0.0,0.0,0.0,0.0,0.0,0.0,0.0,-2.5764,-2.6662,-2.8124,-2.9472,-3.028,-3.1448,-3.4264,-3.6241,-3.7494,-3.7614,-3.8422,-3.917,-3.911,-3.9798,-4.0576,-4.1205,-4.2551,-4.3648,-4.3977,-4.3738,-4.3708,-4.4257,-4.4885,-4.5304,-4.5304,-4.5753,-4.5873,-4.5334,-4.6052,-4.677,-4.7279,-4.8057,-4.8745,-4.9269,-4.9733,-5.0002,-5.0002,-5.0511,-5.075,-5.075,-5.075,-5.09,-5.1229,-5.1229,-5.1229,-5.1229,-5.1229,-5.1229,-5.1229,-5.1229,-5.1229,-5.1199,-5.105,-5.099,-5.0913,-5.081,-5.075,-5.069,-5.0182,-5.0002,-4.9942,0.0,0.0,0.0,0.0,0.0,0.0,0.0,0.0,0.0,0.0,0.0,0.0,0.0,0.0,0.0,0.0,0.0,0.0,0.0,0.0,-2.3999,-2.4844,-2.6004,-2.8963,-3.3964,-3.4264,-3.5013,-3.6357,-3.8871,-3.9499,-3.8272,-3.6327,-3.4651,-3.3185,-3.118,-2.9624,-2.8338,-2.6303,-2.5083,-2.4485,-2.3849,0.0,0.0,0.0,0.0,0.0,0.0,0.0,0.0,0.0,0.0,0.0,0.0,0.0,-2.5674,-2.5615,-2.6991,-2.8816,-3.0103,-3.2228,-3.4503,-3.6001,-3.5582,-3.5402,-3.7764,-3.8392,-3.899,-4.0786,-4.0756,-4.1145,-4.3569,-4.4137,-4.4047,-4.3469,-4.3828,-4.4257,-4.4317,-4.4885,-4.5304,-4.5304,-4.5334,-4.5334,-4.5304,-4.6471,-4.7249,-4.7309,-4.8476,-4.9269,-4.9299,-4.9359,-4.9389,-4.9389,-4.9419,-4.9449,-4.9449,-4.9449,-5.0002,-5.1229,-5.1229,-5.1229,-5.1229,-5.1229,-5.1229,-5.1229,-5.1229,-5.1229,-5.1169,-5.0524,-5.0255,-5.0196,-4.9643,-4.9449,-4.9449,-4.9389,-4.9389,-4.9389,0.0,0.0,0.0,0.0,0.0,0.0,0.0,0.0,0.0,0.0,0.0,0.0,0.0,0.0,0.0,0.0,0.0,0.0,0.0,0.0,-2.4448,-2.6363,-2.6153,-2.8457,-3.3754,-3.4681,-3.6178,-3.8302,-3.9709,-3.9499,-3.7764,-3.6626,-3.4951,-3.2826,-3.163,-2.9953,-2.7859,-2.6273,-2.4986,-2.3969,-2.3699,-2.361,0.0,0.0,0.0,0.0,0.0,0.0,0.0,0.0,-2.361,-2.361,-2.361,-2.4537,-2.5615,-2.5615,-2.732,-2.9594,-3.13,-3.3095,-3.5013,-3.7135,-3.7614,-3.8033,-3.9828,-4.0905,-4.1594,-4.1961,-4.2102,-4.2402,-4.3,-4.3778,-4.4107,-4.3409,-4.3858,-4.4317,-4.4317,-4.4885,-4.5155,-4.4736,-4.4676,-4.4676,-4.4676,-4.5514,-4.6232,-4.6651,-4.7549,-4.8057,-4.8057,-4.8446,-4.87,-4.87,-4.909,-4.9299,-4.9299,-4.9299,-4.9569,-5.0002,-5.0002,-5.0002,-5.0002,-5.0002,-5.0002,-5.0002,-5.0002,-5.0002,-5.0002,-4.9733,-4.9643,-4.9613,-4.9419,-4.9299,-4.9269,-4.8805,-4.87,-4.864,0.0,0.0,0.0,0.0,0.0,0.0,0.0,0.0,0.0,0.0,0.0,0.0,0.0,0.0,0.0,0.0,0.0,0.0,-2.361,-2.3819,-2.4747,-2.6572,-2.6572,-2.8338,-3.2168,-3.4173,-3.6477,-3.908,-3.932,-3.8661,-3.7075,-3.5818,-3.4382,-3.2766,-3.166,-3.0103,-2.8124,-2.6572,-2.5136,-2.3909,-2.3699,-2.361,0.0,0.0,0.0,0.0,0.0,0.0,0.0,0.0,-2.361,-2.361,-2.361,-2.4537,-2.5644,-2.5854,-2.8098,-3.0881,-3.2647,-3.4382,-3.6271,-3.8482,-3.9529,-4.0337,-4.1482,-4.244,-4.3159,-4.3309,-4.3479,-4.3449,-4.2791,-4.3389,-4.3888,-4.3648,-4.4197,-4.4616,-4.4616,-4.5005,-4.5035,-4.4377,-4.4137,-4.4077,-4.4287,-4.4915,-4.5574,-4.6262,-4.692,-4.7309,-4.7309,-4.7728,-4.7967,-4.7967,-4.8416,-4.87,-4.87,-4.87,-4.87,-4.87,-4.87,-4.891,-4.9299,-4.9299,-4.9299,-4.9299,-4.9299,-4.9299,-4.9299,-4.909,-4.888,-4.87,-4.87,-4.87,-4.8596,-4.8147,-4.7967,-4.7908,0.0,0.0,0.0,0.0,0.0,0.0,0.0,0.0,0.0,0.0,0.0,0.0,0.0,0.0,0.0,0.0,0.0,0.0,-2.361,-2.4216,-2.4605,-2.4605,-2.7116,-2.8876,-2.9562,-3.2796,-3.5791,-3.8392,-3.7734,-3.7075,-3.6417,-3.3784,-3.2886,-3.3365,-3.139,-3.0163,-2.9442,-2.7465,-2.5824,-2.4545,-2.3879,-2.361,-2.361,0.0,0.0,0.0,0.0,0.0,0.0,0.0,-2.361,-2.361,-2.361,-2.4537,-2.5734,-2.6393,-2.9415,-3.2796,-3.4144,-3.6387,-3.8721,-4.0068,-4.0905,-4.1564,-4.2261,-4.241,-4.298,-4.4885,-4.4766,-4.4107,-4.3409,-4.329,-4.3529,-4.4197,-4.4855,-4.5304,-4.5274,-4.5274,-4.5035,-4.4377,-4.3708,-4.3559,-4.4257,-4.4915,-4.5603,-4.6249,-4.692,-4.7309,-4.7309,-4.7309,-4.7309,-4.7309,-4.7309,-4.7309,-4.7309,-4.7309,-4.7309,-4.7309,-4.7309,-4.7997,-4.9299,-4.9299,-4.9299,-4.9299,-4.9299,-4.9299,-4.9239,-4.8536,-4.7908,-4.7309,-4.7309,-4.7309,-4.7309,-4.7309,-4.7309,-4.7309,0.0,0.0,0.0,0.0,0.0,0.0,0.0,0.0,0.0,0.0,0.0,0.0,0.0,0.0,0.0,0.0,0.0,0.0,-2.361,-2.3789,-2.4096,-2.4575,-2.5352,-2.6542,-2.8154,-3.139,-3.4622,-3.7704,-3.7973,-3.7045,-3.5102,-3.4771,-3.3455,-3.139,0.0,0.0,-2.744,-2.6841,-2.5555,-2.3879,-2.367,-2.361,-2.361,0.0,0.0,0.0,0.0,0.0,0.0,0.0,0.0,0.0,-2.361,-2.4537,-2.5734,-2.6393,-2.9415,-3.2796,-3.4144,-3.6746,-3.932,-4.0187,-4.1594,-4.2821,-4.3,-4.3389,-4.3898,-4.4496,-4.4077,-4.3529,-4.3319,-4.3678,-4.4077,-4.4287,-4.4855,-4.5125,-4.4676,-4.4616,-4.4377,-4.3678,-4.3828,-4.4287,-4.4945,-4.5633,-4.6292,-4.695,-4.7189,-4.7309,-4.7309,-4.7309,-4.7309,-4.7309,-4.7309,-4.7309,-4.7309,-4.7309,-4.7309,-4.7309,-4.7309,-4.7519,-4.7878,-4.7878,-4.7878,-4.7878,-4.7878,-4.7878,-4.7878,-4.7668,-4.7489,-4.7309,-4.7309,-4.7309,-4.7309,-4.7309,-4.7309,-4.7309,0.0,0.0,0.0,0.0,0.0,0.0,0.0,0.0,-2.361,-2.361,-2.361,-2.361,0.0,0.0,0.0,-2.361,-2.361,-2.361,-2.361,-2.3849,-2.4186,-2.4575,-2.5113,-2.6093,-2.7555,-3.0552,-3.3065,-3.507,-3.6267,-3.5759,-3.3724,-3.4382,-3.3484,-3.136,0.0,-3.1001,-2.7769,-2.75,-2.6063,-2.4007,-2.4298,-2.4238,-2.4029,0.0,0.0,0.0,0.0,0.0,0.0,0.0,0.0,0.0,-2.361,-2.4537,-2.5944,-2.7649,-3.0791,-3.4143,-3.6267,-3.8841,-4.1047,-4.1474,-4.2851,-4.4067,-4.4067,-4.4227,-4.4227,-4.3947,-4.3559,-4.3379,-4.3648,-4.4047,-4.4496,-4.5035,-4.5214,-4.5155,-4.4766,-4.4466,-4.4077,-4.3379,-4.3858,-4.4556,-4.5214,-4.5933,-4.6591,-4.7249,-4.7309,-4.7309,-4.7309,-4.7309,-4.7309,-4.7309,-4.7309,-4.7309,-4.7309,-4.7309,-4.7309,-4.7309,-4.7309,-4.7309,-4.7309,-4.7309,-4.7309,-4.7309,-4.7309,-4.7309,-4.7309,-4.7309,-4.7309,-4.7309,-4.7309,-4.7309,-4.7309,-4.7309,-4.7309,-4.7309,0.0,0.0,0.0,0.0,0.0,0.0,0.0,-2.361,-2.361,-2.361,-2.361,-2.361,0.0,0.0,0.0,-2.361,-2.361,-2.361,-2.361,-2.4156,-2.4515,-2.4515,-2.5794,-2.6782,-2.7405,-2.9924,-3.1271,-3.1331,-3.3455,-3.3814,-3.2527,-3.3245,-3.3155,-3.2347,0.0,-3.1928,-2.9562,-2.8757,-2.6991,-2.4754,-2.5292,-2.5113,-2.4575,-2.5196,0.0,0.0,0.0,0.0,0.0,0.0,0.0,0.0,-2.361,-2.4537,-2.6213,-2.9325,-3.2647,-3.5998,-3.917,-4.1564,-4.314,-4.32,-4.4197,-4.5155,-4.5274,-4.4736,-4.4047,-4.3409,-4.3349,-4.3559,-4.4197,-4.4407,-4.4885,-4.601,-4.5693,-4.5274,-4.5214,-4.4646,-4.4018,-4.3439,-4.3977,-4.4676,-4.5334,-4.6022,-4.6608,-4.7249,-4.7309,-4.7309,-4.7309,-4.7309,-4.7309,-4.7309,-4.7309,-4.7309,-4.7309,-4.7309,-4.7309,-4.7309,-4.7309,-4.7309,-4.7309,-4.7309,-4.7309,-4.7309,-4.7309,-4.7309,-4.7309,-4.7309,-4.7309,-4.7309,-4.7309,-4.7309,-4.7309,-4.7309,-4.7339,-4.7399,0.0,0.0,0.0,0.0,0.0,0.0,-2.361,-2.361,-2.361,-2.361,-2.361,-2.361,-2.361,-2.361,0.0,-2.361,-2.361,-2.361,-2.361,-2.3729,-2.3819,-2.3819,-2.5106,-2.5884,-2.6033,-2.8128,-2.9475,-3.0013,-3.3036,-3.3814,-3.2527,0.0,0.0,-3.0971,0.0,-3.1061,-2.9502,-2.7739,-2.6393,-2.5352,-2.4963,-2.4395,-2.3849,-2.3969,-2.3849,0.0,0.0,0.0,0.0,0.0,0.0,0.0,-2.361,-2.4537,-2.5944,-2.7735,-3.0911,-3.4412,-3.6716,-3.9529,-4.1923,-4.2432,-4.318,-4.4018,-4.5065,-4.4377,-4.3469,-4.3319,-4.3708,-4.4137,-4.4287,-4.5185,-4.5813,-4.5544,-4.5394,-4.5125,-4.4586,-4.3958,-4.3648,-4.4047,-4.4676,-4.5364,-4.6022,-4.6711,-4.716,-4.7309,-4.7309,-4.7309,-4.7309,-4.7309,-4.7309,-4.7309,-4.7309,-4.7309,-4.7309,-4.7309,-4.7309,-4.7309,-4.7309,-4.7309,-4.7309,-4.7309,-4.7309,-4.7309,-4.7309,-4.7309,-4.7309,-4.7309,-4.7309,-4.7309,-4.7309,-4.7309,-4.7309,-4.7309,-4.7638,-4.8087,0.0,0.0,0.0,0.0,0.0,0.0,0.0,0.0,-2.361,-2.361,-2.361,-2.361,-2.361,-2.361,0.0,0.0,-2.361,-2.361,-2.361,-2.361,-2.361,-2.361,-2.4575,-2.4963,-2.4657,-2.6931,-2.8304,-2.8633,-3.0999,-3.1928,0.0,0.0,0.0,-3.0582,0.0,-3.1839,0.0,-2.8906,-2.753,-2.6063,-2.6063,-2.5255,-2.4126,-2.4777,-2.4657,-2.4066,-2.4066,0.0,0.0,0.0,0.0,0.0,0.0,0.0,-2.6063,-2.8308,-3.0881,-3.3814,-3.7375,-3.9379,-4.0905,-4.2821,-4.3539,-4.4077,-4.5065,-4.4526,-4.3678,-4.3349,-4.3828,-4.4407,-4.4736,-4.5633,-4.6202,-4.5843,-4.5514,-4.5065,-4.4407,-4.3708,-4.3529,-4.4227,-4.4885,-4.5574,-4.6219,-4.692,-4.7309,-4.7309,-4.7309,-4.7309,-4.7309,-4.7309,-4.7309,-4.7309,-4.7309,-4.7309,-4.7309,-4.7309,-4.7309,-4.7309,-4.7309,-4.7309,-4.7309,-4.7309,-4.7309,-4.7309,-4.7309,-4.7309,-4.7309,-4.7309,-4.7309,-4.7339,-4.7638,-4.7788,-4.7818,-4.8117,-4.8446,-4.879,0.0,0.0,0.0,0.0,0.0,0.0,0.0,0.0,0.0,-2.361,-2.361,-2.361,-2.361,-2.361,-2.361,0.0,0.0,0.0,-2.361,-2.361,-2.364,-2.3759,-2.4306,-2.4335,-2.3789,-2.6177,-2.7375,-2.7255,-2.8603,-2.9564,0.0,0.0,0.0,-3.0462,0.0,0.0,0.0,-3.0492,-2.9146,-2.729,-2.7645,-2.6632,-2.5053,-2.6063,-2.5734,-2.4784,-2.4784,-2.4694,-2.4515,-2.3969,0.0,0.0,0.0,0.0,-2.6153,-2.8996,-3.1031,-3.3425,-3.8392,-3.9918,-4.0748,-4.3599,-4.4317,-4.4466,-4.5005,-4.4706,-4.4137,-4.3439,-4.3958,-4.4646,-4.5185,-4.5873,-4.6249,-4.6172,-4.5574,-4.4885,-4.4227,-4.3648,-4.3589,-4.4377,-4.4975,-4.5603,-4.6411,-4.698,-4.7309,-4.7309,-4.7309,-4.7309,-4.7309,-4.7309,-4.7309,-4.7309,-4.7309,-4.7309,-4.7309,-4.7309,-4.7309,-4.7309,-4.7309,-4.7309,-4.7309,-4.7309,-4.7309,-4.7309,-4.7309,-4.7309,-4.7309,-4.7429,-4.7489,-4.7549,-4.8207,-4.8446,-4.8506,-4.912,-4.9389,-4.9434,0.0,0.0,0.0,0.0,0.0,0.0,0.0,0.0,0.0,0.0,-2.361,-2.361,-2.361,-2.361,-2.361,-2.361,-2.361,-2.361,-2.361,0.0,0.0,-2.4455,-2.4545,-2.4575,-2.4485,-2.5944,-2.6452,-2.5884,-2.7225,-2.8214,0.0,0.0,0.0,-2.9771,0.0,0.0,0.0,0.0,-2.9804,-2.9894,-2.8876,-2.7619,-2.6273,-2.5884,-2.5644,-2.5465,-2.5465,-2.5083,-2.4605,-2.4515,-2.4066,0.0,0.0,0.0,-2.5794,-2.6811,-2.9238,-3.2407,-3.6028,-3.9858,-4.3021,-4.4077,-4.4317,-4.4347,-4.4436,-4.4377,-4.4137,-4.3439,-4.4317,-4.5185,-4.5274,-4.5873,-4.6142,-4.5544,-4.4885,-4.4227,-4.3529,-4.3349,-4.3738,-4.5005,-4.5244,-4.5783,-4.707,-4.7249,-4.7309,-4.7309,-4.7309,-4.7309,-4.7309,-4.7309,-4.7309,-4.7309,-4.7309,-4.7309,-4.7309,-4.7309,-4.7309,-4.7309,-4.7309,-4.7309,-4.7309,-4.7309,-4.7309,-4.7309,-4.7309,-4.7309,-4.7369,-4.7908,-4.8147,-4.8207,-4.891,-4.9179,-4.9179,-4.9269,-4.9613,-5.0076,0.0,0.0,0.0,0.0,0.0,0.0,0.0,0.0,0.0,0.0,0.0,-2.361,-2.361,-2.361,-2.361,-2.361,-2.361,-2.361,-2.361,-2.361,-2.3729,-2.4029,-2.4036,-2.4036,-2.4036,-2.5345,-2.5704,-2.5023,-2.6752,-2.7764,0.0,-3.0043,-3.0462,0.0,0.0,0.0,0.0,0.0,0.0,-3.0492,-3.0313,-2.9866,-2.9268,-2.8607,-2.8816,-2.9385,-2.8637,-2.7709,-2.6752,-2.5974,-2.5046,-2.4096,-2.3729,0.0,0.0,0.0,-2.8427,-3.133,-3.54,-3.929,-4.2491,-4.3509,-4.4575,-4.5203,-4.4496,-4.4586,-4.4556,-4.3499,-4.4077,-4.4855,-4.5214,-4.5544,-4.5633,-4.5334,-4.4736,-4.4077,-4.3379,-4.329,-4.3798,-4.5125,-4.5304,-4.5813,-4.7189,-4.7309,-4.7309,-4.7309,-4.7309,-4.7309,-4.7309,-4.7309,-4.7309,-4.7309,-4.7309,-4.7309,-4.7309,-4.7309,-4.7309,-4.7309,-4.7309,-4.7309,-4.7309,-4.7309,-4.7309,-4.7339,-4.7698,-4.7848,-4.7908,-4.8566,-4.888,-4.8895,-4.9553,-4.9793,-4.9853,-5.0212,-5.0541,-5.0734,0.0,0.0,0.0,0.0,0.0,0.0,0.0,0.0,0.0,0.0,0.0,-2.361,-2.361,0.0,0.0,0.0,-2.361,-2.361,-2.361,-2.361,-2.361,-2.361,-2.361,-2.361,-2.361,-2.4926,-2.5196,-2.4335,-2.6183,0.0,-2.7884,-2.9325,-3.0133,0.0,-3.0163,-3.0133,0.0,0.0,0.0,0.0,0.0,-3.2138,-3.1959,-3.145,-3.1898,-3.2617,-3.145,-3.0283,-2.9146,-2.7799,-2.6363,-2.5023,-2.4537,-2.4926,0.0,0.0,0.0,-3.115,-3.4951,-3.8242,-4.0935,-4.2252,-4.3958,-4.5155,-4.4466,-4.4706,-4.4766,-4.3738,-4.3838,-4.4257,-4.4915,-4.5035,-4.5095,-4.5274,-4.4616,-4.3858,-4.3349,-4.329,-4.3708,-4.4915,-4.5185,-4.5753,-4.695,-4.7219,-4.7309,-4.7309,-4.7309,-4.7309,-4.7309,-4.7309,-4.7309,-4.7309,-4.7309,-4.7309,-4.7309,-4.7309,-4.7309,-4.7309,-4.7309,-4.7309,-4.7309,-4.7489,-4.7549,-4.7578,-4.8087,-4.8386,-4.8596,-4.9254,-4.9523,-4.9583,-5.0242,-5.0435,-5.0495,-5.105,-5.1229,-5.1229,0.0,0.0,0.0,0.0,0.0,0.0,0.0,0.0,0.0,0.0,0.0,-2.361,-2.361,-2.361,-2.361,-2.361,-2.361,-2.361,-2.361,-2.361,-2.361,-2.361,-2.361,0.0,-2.361,-2.4926,-2.4956,-2.364,0.0,0.0,-2.8547,-2.8637,-3.0013,-3.2318,-3.169,-3.0761,-2.9771,-3.1629,-3.2766,-3.3395,-3.4053,-3.3933,-3.3395,-3.3365,-3.3395,-3.3365,-3.2647,-3.1929,-3.1152,-2.9864,-2.8128,-2.6482,-2.6452,-2.6063,-2.5734,0.0,0.0,0.0,-3.4173,-3.654,-3.8871,-4.0217,-4.1564,-4.292,-4.4047,-4.4347,-4.4347,-4.4287,-4.3768,-4.3559,-4.4257,-4.4377,-4.4556,-4.5185,-4.4227,-4.3319,-4.329,-4.329,-4.3559,-4.4287,-4.4915,-4.5574,-4.6249,-4.695,-4.7309,-4.7309,-4.7309,-4.7309,-4.7309,-4.7309,-4.7309,-4.7309,-4.7309,-4.7309,-4.7309,-4.7309,-4.7309,-4.7309,-4.7309,-4.7309,-4.7339,-4.7967,-4.8237,-4.8237,-4.8267,-4.8626,-4.9299,-4.9912,-5.0136,-5.0196,-5.0853,-5.1169,-5.1169,-5.1199,-5.1229,-5.1229,0.0,0.0,0.0,0.0,0.0,0.0,0.0,0.0,0.0,0.0,0.0,0.0,0.0,-2.361,-2.361,-2.361,-2.361,-2.361,-2.361,-2.361,-2.361,-2.361,-2.3242,-2.3191,-2.358,-2.4059,-2.4088,0.0,0.0,-2.6183,-2.732,-2.8188,-2.9116,-3.0013,-3.0193,-3.0253,-3.0193,-3.0492,-3.124,-3.2437,-3.4801,-3.6118,-3.6686,-3.7135,-3.7823,-3.8422,-3.7345,-3.5696,-3.3873,-3.2557,-3.0492,-2.8393,-2.7525,-2.7076,-2.7106,-2.8214,-2.9532,-3.13,-3.4322,-3.6118,-3.7674,-3.9858,-4.2013,-4.3629,-4.3618,-4.4347,-4.4825,-4.4407,-4.4137,-4.4047,-4.4257,-4.3917,-4.3898,-4.4556,-4.3888,-4.329,-4.329,-4.329,-4.3529,-4.4227,-4.4526,-4.5095,-4.616,-4.6531,-4.686,-4.7279,-4.7309,-4.7309,-4.7309,-4.7309,-4.7309,-4.7309,-4.7309,-4.7309,-4.7309,-4.7309,-4.7309,-4.7309,-4.7309,-4.7519,-4.7938,-4.8177,-4.8745,-4.9553,-4.9553,-4.9673,-4.9942,-5.0601,-5.0823,-5.09,-5.1139,-5.1229,-5.1229,-5.1229,-5.1229,-5.1229,0.0,0.0,0.0,0.0,0.0,0.0,0.0,0.0,0.0,-2.3909,0.0,0.0,0.0,0.0,-2.361,-2.361,-2.361,-2.361,-2.361,-2.361,-2.361,-2.361,-2.3032,-2.2972,-2.358,-2.34,-2.34,0.0,0.0,0.0,0.0,-2.75,-2.8278,-2.8936,-2.8933,-2.9292,-2.9864,-2.9894,-3.0642,-3.2108,-3.525,-3.6985,-3.7883,-3.899,-3.9828,-4.0277,-3.9379,-3.8093,-3.6656,-3.5519,-3.3694,-3.1688,-3.034,-2.9472,-2.9116,-3.0253,-3.0253,-3.0612,-3.3933,-3.516,-3.6058,-3.8482,-4.1055,-4.3,-4.3,-4.4018,-4.4915,-4.4676,-4.4466,-4.4317,-4.4317,-4.3738,-4.3499,-4.4197,-4.3738,-4.329,-4.329,-4.329,-4.3469,-4.3888,-4.4167,-4.4676,-4.5532,-4.5843,-4.6262,-4.692,-4.698,-4.707,-4.7309,-4.7309,-4.7309,-4.7309,-4.7309,-4.7309,-4.7309,-4.7309,-4.7309,-4.7309,-4.7309,-4.7638,-4.8297,-4.8506,-4.9194,-5.0196,-5.0435,-5.0524,-5.0554,-5.105,-5.1229,-5.1229,-5.1229,-5.1229,-5.1229,-5.1229,-5.1229,-5.1229,0.0,0.0,0.0,0.0,0.0,0.0,0.0,0.0,-2.3879,-2.4545,0.0,0.0,0.0,0.0,0.0,-2.367,-2.364,-2.364,-2.364,-2.361,-2.361,-2.364,-2.3032,-2.2972,-2.358,-2.3002,0.0,0.0,0.0,0.0,0.0,0.0,-2.759,-2.9472,-2.8154,-2.7974,-2.8697,-2.9983,-3.124,-3.2677,-3.5429,-3.6507,-3.6716,-3.8721,-3.908,-3.8542,-3.8542,-3.8931,-3.9379,-3.8691,-3.7614,-3.6267,-3.4923,-3.3155,-3.172,-3.2318,-3.1599,-3.0971,0.0,0.0,0.0,-3.5998,-3.8482,-4.0756,-4.2141,-4.3389,-4.4526,-4.5155,-4.4796,-4.4377,-4.4347,-4.3768,-4.3529,-4.4197,-4.3738,-4.329,-4.329,-4.329,-4.329,-4.329,-4.3858,-4.4287,-4.4317,-4.4885,-4.5544,-4.619,-4.6279,-4.6548,-4.7249,-4.7309,-4.7309,-4.7309,-4.7309,-4.7309,-4.7309,-4.7309,-4.7309,-4.7309,-4.7339,-4.7668,-4.8327,-4.903,-4.9643,-5.0255,-5.093,-5.1229,-5.1229,-5.1229,-5.1229,-5.1229,-5.1229,-5.1229,-5.1229,-5.1229,-5.1229,-5.1229,0.0,0.0,0.0,0.0,0.0,-2.3819,-2.4515,-2.4455,-2.4545,0.0,0.0,0.0,0.0,-2.5046,-2.5046,-2.5046,-2.4605,-2.4306,-2.4306,-2.3879,-2.3819,-2.4306,-2.3281,-2.2972,-2.358,-2.3002,0.0,0.0,0.0,0.0,0.0,0.0,0.0,-2.741,-2.7046,-2.7794,-2.9382,-3.0163,-3.0462,-3.0791,-3.534,-3.7165,-3.7434,-3.9888,-4.1294,-4.1914,-4.1914,-4.1474,-4.0816,-4.0606,-3.905,-3.6836,-3.5073,-3.4144,-3.3604,-3.3305,-3.2258,0.0,-3.3095,0.0,0.0,0.0,0.0,0.0,-4.2701,-4.4107,-4.5065,-4.5244,-4.5544,-4.5603,-4.5125,-4.4496,-4.4067,-4.4287,-4.3738,-4.329,-4.329,-4.329,-4.329,-4.329,-4.3439,-4.3738,-4.4257,-4.4466,-4.4855,-4.5544,-4.6052,-4.6411,-4.6591,-4.704,-4.7309,-4.7309,-4.7309,-4.7309,-4.7309,-4.7309,-4.7309,-4.7309,-4.7788,-4.8356,-4.906,-4.9673,-5.0331,-5.0913,-5.1139,-5.1229,-5.1229,-5.1229,-5.1229,-5.1229,-5.1229,-5.1229,-5.1229,-5.1229,-5.1229,-5.1229,0.0,0.0,-2.361,-2.361,-2.4059,-2.4567,-2.4963,-2.5232,-2.5561,0.0,0.0,0.0,0.0,0.0,-2.5914,-2.5644,-2.5232,-2.5023,-2.5023,-2.4657,-2.4485,-2.4605,-2.361,-2.3221,-2.358,-2.2712,0.0,0.0,0.0,0.0,0.0,0.0,0.0,0.0,-2.6333,-2.756,-2.9325,-3.1629,-3.2228,-3.2018,-3.6148,-3.7823,-3.8153,-4.1085,-4.2342,-4.2581,-4.311,-4.2671,-4.1961,-4.2731,-4.1265,-3.8811,-3.7404,-3.5998,-3.4831,-3.4442,-3.2796,0.0,0.0,0.0,0.0,-3.519,0.0,0.0,-4.1683,-4.3359,-4.4616,-4.5185,-4.5394,-4.5454,-4.5304,-4.4766,-4.4407,-4.4676,-4.4167,-4.3618,-4.3319,-4.329,-4.329,-4.329,-4.329,-4.3439,-4.3828,-4.3858,-4.4167,-4.4825,-4.5244,-4.5681,-4.6249,-4.695,-4.7309,-4.7309,-4.7309,-4.7309,-4.7309,-4.7309,-4.7309,-4.7309,-4.7967,-4.8626,-4.9329,-4.9942,-5.0554,-5.1229,-5.1229,-5.1229,-5.1229,-5.1229,-5.1229,-5.1229,-5.1229,-5.1229,-5.1229,-5.1229,-5.1229,-5.1229,0.0,0.0,-2.3575,-2.3767,-2.4866,-2.5764,-2.5914,-2.6482,-2.6961,0.0,-2.7081,0.0,0.0,0.0,0.0,0.0,-2.5974,-2.5914,-2.5824,-2.5764,-2.5442,-2.4844,-2.4118,-2.367,-2.361,-2.2503,0.0,0.0,0.0,0.0,0.0,0.0,0.0,0.0,-2.6123,-2.753,-2.9205,-3.3484,-3.519,-3.5252,-3.7644,-3.8661,-3.905,-4.2073,-4.2641,-4.1953,-4.312,-4.318,-4.298,-4.4616,-4.3688,-4.1654,-4.0786,-3.8571,-3.6178,-3.5759,-3.3514,0.0,0.0,0.0,0.0,-3.3125,-3.5459,0.0,-3.9918,-4.1803,-4.3449,-4.4616,-4.4556,-4.4466,-4.4975,-4.4616,-4.4436,-4.5065,-4.4646,-4.3977,-4.3469,-4.3349,-4.329,-4.329,-4.329,-4.329,-4.329,-4.329,-4.3529,-4.4127,-4.4287,-4.4915,-4.6219,-4.689,-4.7219,-4.7309,-4.7309,-4.7309,-4.7309,-4.7309,-4.7309,-4.7309,-4.8057,-4.8686,-4.9329,-5.0002,-5.0614,-5.1229,-5.1229,-5.1229,-5.1229,-5.1229,-5.1229,-5.1229,-5.1229,-5.1229,-5.1229,-5.1229,-5.1229,-5.1229,-2.2512,-2.2785,-2.3382,-2.4924,-2.5884,-2.6752,-2.7859,-2.8577,-2.9175,-2.9684,-3.0195,0.0,0.0,0.0,0.0,0.0,-2.8338,-2.7799,-2.7255,-2.6692,-2.6333,-2.6213,-2.5053,-2.4156,-2.361,-2.334,-2.334,0.0,0.0,0.0,0.0,0.0,0.0,0.0,-2.6836,-2.8727,-3.1062,-3.3066,-3.5639,-3.8542,-3.9589,-4.0337,-4.0935,-4.2141,-4.3389,-4.4556,-4.4825,-4.4825,-4.4706,-4.4556,-4.4526,-4.4137,-4.1893,-4.1153,-4.0434,-3.7225,-3.5818,-3.4801,-3.2348,-3.1899,-3.2467,-3.3933,-3.5489,0.0,-3.9828,-4.1115,-4.1833,-4.2102,-4.3299,-4.4197,-4.3838,-4.3629,-4.3708,-4.4407,-4.3917,-4.3618,-4.4077,-4.3618,-4.329,-4.329,-4.329,-4.329,-4.329,-4.329,-4.3349,-4.3469,-4.4018,-4.4915,-4.6219,-4.6399,-4.6741,-4.7279,-4.7309,-4.7309,-4.7309,-4.7309,-4.7309,-4.7309,-4.8506,-4.9179,-4.9359,-5.0481,-5.1109,-5.1229,-5.1229,-5.1229,-5.1229,-5.1229,-5.1229,-5.1229,-5.1229,-5.1229,-5.1229,-5.1229,-5.1229,-5.1229,-2.2091,-2.2999,-2.4174,-2.5807,-2.6931,-2.8038,-2.9355,-3.0133,-3.0791,-3.142,-3.2078,-3.2647,-3.2976,-3.1809,0.0,0.0,0.0,0.0,-2.9564,-2.8906,-2.8248,-2.7619,-2.6303,-2.5113,-2.4126,-2.3759,-2.361,-2.361,0.0,0.0,0.0,0.0,0.0,0.0,0.0,-3.0761,-3.453,-3.5878,-3.7973,-4.0427,-4.0756,-4.1683,-4.297,-4.3958,-4.4736,-4.5304,-4.5304,-4.5304,-4.5095,-4.3778,-4.3569,-4.3698,-4.2671,-4.1683,-4.0516,-3.8542,-3.6776,-3.4981,-3.2617,-3.1539,-3.136,-3.2677,-3.3993,0.0,0.0,-3.9679,-4.0397,-4.0397,-4.1983,-4.306,-4.2073,-4.2701,-4.329,-4.3329,-4.3599,-4.3718,-4.3389,-4.3898,-4.4317,-4.4317,-4.4018,-4.3798,-4.3798,-4.3499,-4.329,-4.329,-4.4257,-4.4945,-4.5263,-4.5963,-4.6429,-4.68,-4.713,-4.7309,-4.7309,-4.7309,-4.7309,-4.7309,-4.8626,-4.9299,-4.9359,-5.0631,-5.1229,-5.1229,-5.1229,-5.1229,-5.1229,-5.1229,-5.1229,-5.1229,-5.1229,-5.1229,-5.1229,-5.1229,-5.1229,-5.1229,-2.2098,-2.3247,-2.4798,-2.6488,-2.7889,-2.9175,-3.0342,-3.1271,-3.2108,-3.2796,-3.3694,-3.4262,-3.4262,-3.3425,-3.2826,-3.2826,0.0,0.0,-3.2437,-3.1958,-3.1091,-2.9774,-2.8068,-2.6662,-2.5591,-2.4418,-2.3849,-2.3999,0.0,0.0,0.0,0.0,0.0,0.0,0.0,0.0,-3.6447,-3.8781,-4.0337,-4.1235,-4.1743,-4.321,-4.5155,-4.6022,-4.6142,-4.5843,-4.5574,-4.5484,-4.5274,-4.3848,-4.3189,-4.3039,-4.3389,-4.2213,-4.0509,-3.9529,-3.7494,-3.5222,-3.3245,-3.1629,-3.0791,-3.1809,-3.3006,-3.4502,0.0,0.0,0.0,-3.8841,-4.0307,-4.1272,-4.0038,-4.1324,-4.2282,-4.1422,-4.2432,-4.291,-4.1632,-4.321,-4.4586,-4.4706,-4.4586,-4.4347,-4.3958,-4.4047,-4.3888,-4.3499,-4.4855,-4.5334,-4.4556,-4.5544,-4.6202,-4.6279,-4.695,-4.7309,-4.7309,-4.7309,-4.7309,-4.7309,-4.8626,-4.9299,-4.9359,-5.0631,-5.1229,-5.1229,-5.1229,-5.1229,-5.1229,-5.1229,-5.1229,-5.1229,-5.1229,-5.1229,-5.1229,-5.1229,-5.1229,-5.1229,-2.354,-2.3154,-2.3875,-2.6961,-2.8603,-2.9741,-3.0402,-3.2078,-3.3514,-3.4204,-3.5818,-3.6956,-3.6956,-3.7345,-3.7614,-3.7614,-3.7554,-3.7045,-3.5998,-3.5848,-3.522,-3.3904,-3.0909,-2.9202,-2.9052,-2.6063,-2.4784,-2.5375,0.0,0.0,0.0,0.0,0.0,0.0,-3.1539,-3.2736,-3.2557,-3.8601,-4.0905,-4.0726,-4.306,-4.5514,-4.7728,-4.6711,-4.701,-4.7788,-4.6621,-4.6202,-4.6262,-4.6621,-4.5933,-4.4885,-4.4377,-4.4825,-4.4575,-3.9888,-3.908,-3.8811,-3.4532,-3.3634,-3.3994,-3.4113,-3.4711,-3.5639,-3.7075,0.0,-3.6806,-3.6806,0.0,-3.8631,-3.7883,0.0,0.0,-3.7434,-3.8751,-3.9499,-3.8153,-4.0187,-4.2081,-4.268,-4.4167,-4.4496,-4.28,-4.5185,-4.6112,-4.4347,-4.5992,-4.6531,-4.5244,-4.5334,-4.5693,-4.6249,-4.695,-4.7309,-4.7309,-4.7309,-4.7309,-4.7309,-4.8626,-4.9299,-4.9359,-5.0631,-5.1229,-5.1229,-5.1229,-5.1229,-5.1229,-5.1229,-5.1229,-5.1229,-5.1229,-5.1229,-5.1229,-5.1229,-5.1229,-5.1229,-2.4816,-2.494,-2.5775,-2.8316,-2.9232,-3.034,-3.2467,-3.4831,-3.6297,-3.6178,-3.7584,-3.8571,-3.8571,-3.8123,-3.8302,-3.9469,-3.8841,-3.8482,-3.8751,-3.7674,0.0,-3.4563,-3.1718,-2.9594,-2.8453,-2.6303,-2.5322,-2.5615,-2.5322,0.0,0.0,0.0,0.0,0.0,-3.2976,-3.504,-3.6926,-4.0494,-4.312,-4.5005,-4.5334,-4.7279,-4.9673,-4.683,-4.5843,-4.5903,-4.5364,-4.5394,-4.5693,-4.5603,-4.5454,-4.5244,-4.4975,-4.5544,-4.5574,-4.1803,-4.0853,-4.0217,-3.6716,-3.5968,-3.6178,-3.6178,-3.6985,-3.7913,-3.8452,-3.8063,-3.7375,-3.6626,0.0,0.0,0.0,0.0,0.0,0.0,-3.8362,-3.9194,-3.8661,-4.0187,-4.1662,-4.2321,-4.3419,0.0,-4.3539,-4.6142,-4.689,-4.4496,-4.6531,-4.68,-4.4287,-4.4885,-4.5424,-4.5723,-4.6381,-4.692,-4.7309,-4.7309,-4.7309,-4.7309,-4.8626,-4.9299,-4.9359,-5.0631,-5.1229,-5.1229,-5.1229,-5.1229,-5.1229,-5.1229,-5.1229,-5.1229,-5.1229,-5.1229,-5.1229,-5.1229,-5.1229,-5.1229,-2.5986,-2.6374,-2.7234,-2.9265,-2.9741,-3.0881,-3.4024,-3.6537,-3.7883,-3.7255,-3.8631,-3.9679,-3.9679,-3.929,-3.9768,-4.1594,-4.1025,-4.0905,-4.1683,-4.0367,-3.8841,-3.7289,-3.3933,-3.1539,-3.031,-2.7739,-2.6512,-2.6692,-2.6333,0.0,0.0,0.0,0.0,0.0,0.0,-3.5908,-3.896,-4.1713,-4.4466,-4.692,-4.6681,-4.7698,-4.9045,-4.6531,-4.5155,-4.4556,-4.4377,-4.4616,-4.4975,-4.4676,-4.4796,-4.5065,-4.5244,-4.5753,-4.5843,-4.3359,-4.2432,-4.1564,-3.8721,-3.8093,-3.8272,-3.8452,-3.923,-4.0008,-4.0187,-3.9559,-3.8482,-3.6836,-3.7075,0.0,0.0,0.0,0.0,0.0,0.0,-3.7404,-3.6982,-3.8422,-4.0044,-4.1422,-4.1983,0.0,0.0,-4.689,-4.7519,-4.5065,-4.7339,-4.7459,-4.4276,-4.4706,-4.5095,-4.5274,-4.5963,-4.6518,-4.704,-4.7219,-4.7309,-4.7309,-4.8626,-4.9299,-4.9359,-5.0631,-5.1229,-5.1229,-5.1229,-5.1229,-5.1229,-5.1229,-5.1229,-5.1229,-5.1229,-5.1229,-5.1229,-5.1229,-5.1229,-5.1229,-2.7196,-2.6861,-2.7243,-2.9244,-3.0073,-3.139,-3.4084,-3.6178,-3.7225,-3.6596,-3.8751,-4.0367,-4.0367,-4.2004,-4.3648,-4.5005,-4.5723,-4.5813,-4.5185,-4.5065,-4.4736,-4.4018,-3.905,-3.6537,-3.7075,-3.145,-2.8816,-2.9472,-2.8184,0.0,0.0,0.0,0.0,0.0,-3.1779,-3.3933,-3.5132,-4.1534,-4.3958,-4.3678,-4.6262,-4.6172,-4.4676,-4.5843,-4.5873,-4.5185,-4.4556,-4.4317,-4.4436,-4.5065,-4.4855,0.0,-4.5095,-4.5753,-4.5891,-4.3858,-4.3708,-4.3509,-4.021,-3.9828,-4.0457,-4.1085,-4.1294,-4.1512,-4.2171,-4.1265,-3.9619,-3.7015,-3.5998,-3.519,-3.3814,0.0,0.0,0.0,0.0,0.0,0.0,-3.3036,-3.5908,-3.914,-3.9493,0.0,0.0,-4.7309,-4.8416,0.0,-4.8641,-4.897,-4.6339,-4.4994,-4.4646,-4.5274,-4.5963,-4.6279,-4.6309,-4.698,-4.7309,-4.7309,-4.8626,-4.9299,-4.9359,-5.0631,-5.1229,-5.1229,-5.1229,-5.1229,-5.1229,-5.1229,-5.1229,-5.1229,-5.1229,-5.1229,-5.1229,-5.1229,-5.1229,-5.1229,-2.878,-2.8303,-2.8132,-2.9286,-3.113,-3.3245,-3.5459,-3.7853,-3.932,-3.911,-4.0606,-4.1863,-4.2282,-4.2551,-4.321,-4.4526,-4.4855,-4.5095,-4.5274,-4.4496,-4.3718,-4.3099,-3.8811,-3.6178,-3.5489,-3.1779,-2.9774,-2.9621,-2.9142,0.0,0.0,0.0,0.0,0.0,0.0,-3.5252,-3.7285,-4.0876,-4.4496,-4.7894,-4.8416,-4.7938,-4.695,-4.698,-4.6262,-4.5334,-4.5574,-4.5933,0.0,-4.6052,-4.6411,-4.6741,-4.5633,-4.6352,-4.707,-4.4127,-4.4107,-4.4436,-4.2013,-4.2162,-4.294,-4.2731,-4.3658,-4.4706,-4.4945,-4.3269,-4.1362,-4.0044,-3.7464,-3.522,-3.4354,0.0,0.0,0.0,0.0,0.0,0.0,-3.4951,-3.6058,-3.6746,-3.8362,0.0,0.0,0.0,0.0,0.0,-4.7938,0.0,-4.5753,-4.4796,-4.4616,-4.5274,-4.5514,-4.5873,-4.6279,-4.698,-4.7309,-4.7309,-4.8626,-4.9299,-4.9359,-5.0631,-5.1229,-5.1229,-5.1229,-5.1229,-5.1229,-5.1229,-5.1229,-5.1229,-5.1229,-5.1229,-5.1229,-5.1229,-5.1229,-5.1229,-2.8286,-2.9006,-2.9679,-2.9982,-3.2548,-3.507,-3.6596,-3.905,-4.0576,-4.0127,-4.1414,-4.265,-4.323,-4.318,-4.3599,-4.4915,-4.5035,-4.5394,-4.6292,-4.5125,-4.4436,-4.4507,-4.1115,-3.8751,-3.7708,-3.4352,-3.2198,-3.1359,-3.0191,-2.9116,0.0,0.0,0.0,0.0,0.0,-3.5789,-3.9895,-4.0973,-4.4407,-4.906,-4.8207,-4.7608,-4.7189,-4.704,-4.6711,-4.6322,0.0,-4.6232,-4.6531,-4.6112,-4.6681,-4.7369,-4.6052,-4.6711,-4.7429,-4.4796,-4.4975,-4.5514,-4.3299,-4.3658,-4.4556,-4.4137,-4.5143,-4.6279,-4.6279,-4.4796,-4.3129,-4.1991,-3.896,-3.6477,-3.6267,0.0,0.0,0.0,0.0,0.0,0.0,-3.5459,-3.534,-3.516,0.0,0.0,0.0,0.0,0.0,0.0,0.0,0.0,0.0,-4.4796,-4.4496,-4.4915,-4.5424,-4.5753,-4.5963,-4.686,-4.7309,-4.7309,-4.8626,-4.9299,-4.9359,-5.0631,-5.1229,-5.1229,-5.1229,-5.1229,-5.1229,-5.1229,-5.1229,-5.1229,-5.1229,-5.1229,-5.1229,-5.1229,-5.1229,-5.1229,-2.6434,-2.9247,-3.1876,-3.1533,-3.4316,-3.6832,-3.7464,-3.9798,-4.1055,-3.9828,-4.1294,-4.277,-4.3379,-4.3947,-4.4855,-4.613,-4.6219,-4.683,-4.8117,-4.698,-4.686,-4.8177,-4.5663,-4.3958,-4.3449,-3.8931,-3.5941,-3.4593,-3.1419,0.0,0.0,0.0,0.0,0.0,-3.1361,-3.5639,-4.2321,-4.1692,-4.3658,-4.716,-4.5903,-4.5424,-4.5514,-4.6142,-4.7219,-4.8117,-4.6112,-4.5394,-4.5394,-4.5394,-4.5843,-4.6309,-4.6279,-4.677,-4.704,-4.5723,-4.6292,-4.6741,-4.4097,-4.4347,-4.5274,-4.5244,-4.5783,-4.6279,-4.6279,-4.5813,-4.4796,-4.289,-4.0404,-3.8721,-3.9349,-3.6327,0.0,0.0,0.0,0.0,0.0,0.0,-3.3724,0.0,0.0,0.0,0.0,0.0,0.0,0.0,0.0,0.0,0.0,-4.5125,-4.4407,-4.4317,-4.5592,-4.5992,-4.5304,-4.6621,-4.7309,-4.7309,-4.8626,-4.9299,-4.9359,-5.0631,-5.1229,-5.1229,-5.1229,-5.1229,-5.1229,-5.1229,-5.1229,-5.1229,-5.1229,-5.1229,-5.1229,-5.1229,-5.1229,-5.1229,-3.2191,-3.3416,-3.4485,-3.5034,-3.6852,-3.8538,-3.948,-4.1444,-4.288,-4.303,-4.3509,-4.4257,-4.5382,-4.4796,-4.4646,-4.5484,-4.5574,-4.5933,-4.677,-4.6022,-4.6172,-4.7489,-4.4556,-4.324,-4.4047,-4.0008,-3.7255,-3.6001,-3.4144,-3.2587,-3.127,0.0,0.0,0.0,0.0,-3.6656,-4.1662,-4.1444,-4.3389,-4.6591,-4.6741,-4.707,-4.7489,0.0,-4.8177,-4.9494,-4.7489,-4.68,-4.68,-4.68,-4.692,-4.698,-4.6429,-4.677,-4.713,-4.6292,-4.6651,-4.695,-4.5244,-4.5035,-4.5185,-4.4676,-4.5454,-4.6279,-4.6279,-4.6202,-4.5633,-4.4137,-4.2102,-4.0516,-4.0217,-3.8512,0.0,0.0,0.0,0.0,0.0,0.0,0.0,-3.1749,0.0,0.0,0.0,0.0,0.0,0.0,0.0,0.0,-4.6399,0.0,-4.5843,-4.4377,-4.5592,-4.5992,-4.5304,-4.6621,-4.7309,-4.7309,-4.8626,-4.9299,-4.9359,-5.0631,-5.1229,-5.1229,-5.1229,-5.1229,-5.1229,-5.1229,-5.1229,-5.1229,-5.1229,-5.1229,-5.1229,-5.1229,-5.1229,-5.1229,-3.3897,-3.4501,-3.5525,-3.7436,-3.9073,-4.0207,-4.0368,-4.2312,-4.3858,-4.4257,-4.4825,-4.5603,-4.6621,-4.5813,-4.5454,-4.6112,-4.5903,-4.6172,-4.713,-4.6292,-4.6202,-4.7249,-4.5783,-4.5035,-4.5185,-4.2701,-4.0367,-3.8182,-3.6567,-3.4801,-3.2976,0.0,0.0,0.0,0.0,-3.8751,-4.312,-4.3419,-4.4616,-4.6322,-4.6411,-4.701,0.0,-4.7429,-4.7997,-4.8835,-4.8027,-4.7908,-4.8147,-4.8147,-4.8147,-4.8087,-4.7728,-4.7668,-4.7608,-4.695,-4.701,-4.707,-4.6022,-4.5963,-4.6022,-4.5364,-4.5963,-4.6681,-4.6381,-4.6279,-4.607,-4.5323,-4.3838,-4.2731,-4.294,-4.1654,-4.0427,0.0,0.0,0.0,0.0,0.0,0.0,0.0,-3.5429,0.0,0.0,0.0,0.0,0.0,0.0,0.0,0.0,0.0,-4.6082,-4.4377,-4.5903,-4.6441,-4.5753,-4.677,-4.7309,-4.7309,-4.8626,-4.9299,-4.9359,-5.0631,-5.1229,-5.1229,-5.1229,-5.1229,-5.1229,-5.1229,-5.1229,-5.1229,-5.1229,-5.1229,-5.1229,-5.1229,-5.1229,-5.1229,-3.4005,-3.4443,-3.5985,-3.9119,-4.09,-4.165,-4.1032,-4.3,-4.4616,-4.4706,-4.5663,-4.6621,-4.7369,-4.677,-4.6591,-4.7249,-4.6711,-4.686,-4.8087,-4.692,-4.6531,-4.7279,-4.7668,-4.7489,-4.6548,-4.5723,-4.3928,-4.1175,-3.908,-3.6985,0.0,0.0,0.0,0.0,0.0,-4.1354,-4.5364,-4.6202,-4.6488,-4.6411,-4.5813,-4.6262,-4.7309,-4.7309,-4.7369,-4.7519,-4.8087,-4.864,-4.906,-4.9149,-4.9179,-4.9209,-4.9269,-4.891,-4.8297,-4.7728,-4.7489,-4.7279,-4.6621,-4.68,-4.704,-4.6429,-4.6741,-4.704,-4.6399,-4.6381,-4.6441,-4.6352,-4.5454,-4.5065,-4.6232,-4.4904,-4.3678,-4.3658,-4.2102,0.0,-4.0696,0.0,0.0,0.0,0.0,0.0,0.0,0.0,0.0,0.0,0.0,0.0,0.0,0.0,-4.6202,-4.4496,-4.6232,-4.695,-4.6471,-4.692,-4.7279,-4.7459,-4.8686,-4.9299,-4.9359,-5.0631,-5.1229,-5.1229,-5.1229,-5.1229,-5.1229,-5.1229,-5.1229,-5.1229,-5.1229,-5.1229,-5.1229,-5.1229,-5.1229,-5.1229,-3.7568,-3.7462,-3.8052,-4.0599,-4.1748,-4.2604,-4.3469,-4.4945,-4.6172,-4.6711,-4.6501,-4.677,-4.7967,-4.704,-4.6591,-4.7249,-4.6711,-4.6651,-4.7429,-4.6232,-4.6022,-4.7249,-4.6352,-4.6471,-4.7908,-4.6202,-4.5304,-4.5274,-4.2731,-4.1841,0.0,0.0,0.0,0.0,0.0,-4.3509,-4.5424,-4.7189,-4.7638,-4.713,-4.701,-4.71,-4.7309,-4.7309,-4.7638,-4.8117,-4.8237,-4.8027,-4.7728,-4.8267,-4.8446,-4.8566,-4.9149,-4.9239,-4.912,-4.9,-4.8536,-4.7967,-4.7309,-4.683,-4.6429,-4.6309,-4.6369,-4.6429,-4.6309,-4.6741,-4.698,-4.6399,-4.6561,-4.686,-4.71,0.0,-4.5603,-4.5065,-4.4197,-4.324,-4.2201,0.0,0.0,0.0,0.0,-4.1542,0.0,0.0,0.0,0.0,0.0,0.0,0.0,0.0,-4.8745,0.0,-4.6022,-4.6711,0.0,0.0,-4.704,-4.8117,-4.894,-4.9299,-4.9359,-5.0631,-5.1229,-5.1229,-5.1229,-5.1229,-5.1229,-5.1229,-5.1229,-5.1229,-5.1229,-5.1229,-5.1229,-5.1229,-5.1229,-5.1229,-4.0422,-4.0656,-4.1017,-4.2204,-4.3808,-4.5125,-4.5753,-4.6711,-4.7339,-4.7309,-4.7608,-4.7967,-4.8267,-4.7728,-4.7459,-4.7788,-4.7519,-4.7489,-4.7788,-4.689,-4.6621,-4.7279,-4.6681,-4.68,-4.7758,-4.716,-4.6681,-4.6279,-4.5723,-4.5574,0.0,0.0,0.0,-4.7296,0.0,-4.5873,-4.5903,-4.686,-4.71,-4.683,-4.716,-4.7519,-4.7818,-4.7818,-4.8027,-4.8297,-4.8297,-4.7878,-4.7459,-4.8446,-4.885,-4.891,-4.9209,-4.9299,-4.9299,-4.9299,-4.909,-4.876,-4.8416,-4.8087,-4.7758,-4.7429,-4.7339,-4.7249,-4.692,-4.707,-4.713,-4.6471,-4.686,-4.7309,-4.7309,-4.7608,0.0,-4.6501,-4.6352,-4.5783,-4.4107,0.0,-4.2521,0.0,0.0,0.0,0.0,0.0,0.0,0.0,0.0,0.0,0.0,0.0,-4.9045,0.0,0.0,0.0,-4.7309,0.0,-4.68,-4.7788,-4.882,-4.9299,-4.9359,-5.0631,-5.1229,-5.1229,-5.1229,-5.1229,-5.1229,-5.1229,-5.1229,-5.1229,-5.1229,-5.1229,-5.1229,-5.1229,-5.1229,-5.1229,-4.2415,-4.2832,-4.3259,-4.4216,-4.5992,-4.7369,-4.7489,-4.8177,-4.8476,-4.7818,-4.8506,-4.897,-4.8536,-4.8506,-4.8506,-4.8506,-4.8506,-4.8506,-4.8506,-4.7758,-4.7369,-4.7519,-4.7369,-4.7309,-4.7309,-4.7967,-4.7908,-4.7116,-4.7908,-4.7788,-4.689,0.0,0.0,0.0,0.0,-4.7908,-4.695,-4.68,-4.6741,-4.68,-4.7309,-4.7818,-4.8297,-4.8297,-4.8297,-4.8267,-4.8117,-4.7758,-4.7459,-4.8506,-4.9,-4.912,-4.9269,-4.9299,-4.9299,-4.9299,-4.9209,-4.912,-4.9269,-4.9209,-4.9,-4.8596,-4.8506,-4.8327,-4.7668,-4.7519,-4.7339,-4.6681,-4.695,-4.7339,-4.7489,-4.8237,0.0,-4.8027,-4.8117,-4.7818,-4.6531,0.0,0.0,0.0,0.0,0.0,-4.4796,0.0,0.0,0.0,0.0,0.0,-4.71,0.0,0.0,0.0,0.0,-4.698,-4.7908,0.0,-4.686,-4.7519,-4.876,-4.9299,-4.9359,-5.0631,-5.1229,-5.1229,-5.1229,-5.1229,-5.1229,-5.1229,-5.1229,-5.1229,-5.1229,-5.1229,-5.1229,-5.1229,-5.1229,-5.1229,-4.2912,-4.2647,-4.3199,-4.7149,-4.7549,-4.7489,-4.8087,-4.9254,-4.9823,-4.9164,-4.87,-4.8566,-4.9179,-4.9209,-4.9209,-4.9209,-4.9209,-4.9209,-4.9209,-4.7997,-4.7578,-4.8177,-4.7608,-4.7309,-4.7309,-4.7967,-4.8805,-4.9837,-4.8805,-4.7309,-4.5574,-4.9224,-5.102,-5.1079,-4.9763,-4.9149,-4.9,-4.8356,-4.8087,-4.8117,-4.8177,-4.8237,-4.8297,-4.8297,-4.8297,-4.8207,-4.7608,-4.7369,-4.7339,-4.7459,-4.7878,-4.8476,-4.912,-4.9299,-4.9299,-4.9299,-4.888,-4.8506,-4.9149,-4.888,-4.8506,-4.909,-4.9209,-4.906,-4.8356,-4.8207,-4.7997,-4.7339,-4.7279,-4.7489,-4.8087,-4.7818,-4.8027,-4.9657,-4.9015,-4.8626,-4.9598,0.0,-4.7818,-4.7818,0.0,0.0,0.0,-4.9763,0.0,0.0,0.0,0.0,0.0,0.0,0.0,-4.8027,-4.7489,-4.8087,-4.9897,-4.8147,-4.7549,-4.8207,-4.897,-4.9299,-4.9359,-5.0631,-5.1229,-5.1229,-5.1229,-5.1229,-5.1229,-5.1229,-5.1229,-5.1229,-5.1229,-5.1229,-5.1229,-5.1229,-5.1229,-5.1229,-4.5563,-4.6077,-4.6725,-4.8073,-4.9045,-4.9613,-4.9494,-4.9867,-5.0106,-4.9883,-4.9613,-4.9404,-4.9329,-4.9613,-4.9853,-4.9853,-4.9853,-4.9853,-4.9853,-4.8985,-4.8596,-4.891,-4.8237,-4.8087,-4.8476,-4.8356,-4.8745,-4.9643,-5.0301,-5.0421,-5.0062,-5.2067,-5.2366,-5.1169,-5.0272,-4.9404,-4.8656,-4.8386,-4.8297,-4.8297,-4.8297,-4.8506,-4.888,-4.8446,-4.8297,-4.8207,-4.7549,-4.7309,-4.7309,-4.7309,-4.7489,-4.7758,-4.7997,-4.8356,-4.8686,-4.8686,-4.8775,-4.897,-4.9239,-4.912,-4.897,-4.9239,-4.9299,-4.9239,-4.897,-4.8566,-4.8207,-4.7938,-4.7578,-4.7279,-4.713,-4.7549,-4.7878,-4.7834,-4.8117,-4.8327,-4.8446,0.0,0.0,-4.71,0.0,-4.701,0.0,0.0,0.0,0.0,0.0,0.0,0.0,0.0,0.0,-4.9494,0.0,-4.7668,-4.9643,-4.7698,-4.7249,-4.8297,-4.9,-4.9464,-4.9883,-5.081,-5.1229,-5.1229,-5.1229,-5.1229,-5.1229,-5.1229,-5.1229,-5.1229,-5.1229,-5.1229,-5.1229,-5.1229,-5.1229,-5.1229,-4.8386,-4.9194,-4.9823,-4.9733,-5.072,-5.1289,-5.0584,-5.0495,-5.0405,-5.0226,-5.0375,-5.0272,-4.9613,-5.0122,-5.0495,-5.0495,-5.0495,-5.0495,-5.0495,-4.9912,-4.9553,-4.9553,-4.9105,-4.8895,-4.903,-4.8895,-4.8985,-4.9299,-5.084,-5.1259,-5.0571,-5.1079,-5.1259,-5.1169,-5.0331,-4.9434,-4.8566,-4.8356,-4.8386,-4.8596,-4.8775,-4.9015,-4.9269,-4.8745,-4.8446,-4.8207,-4.7549,-4.7309,-4.7309,-4.7309,-4.7309,-4.7309,-4.7309,-4.7608,-4.7997,-4.7997,-4.8327,-4.876,-4.897,-4.903,-4.906,-4.9269,-4.9299,-4.9299,-4.9299,-4.894,-4.8506,-4.8327,-4.7908,-4.7399,-4.6741,-4.7369,-4.7818,-4.7279,-4.7489,-4.7758,-4.7878,-4.68,0.0,-4.7595,-4.7938,-4.7967,-4.7744,-5.075,0.0,0.0,0.0,0.0,0.0,0.0,0.0,0.0,0.0,0.0,-4.9299,-4.7698,-4.7369,-4.8297,-4.9,-4.9613,-5.0226,-5.0883,-5.1229,-5.1229,-5.1229,-5.1229,-5.1229,-5.1229,-5.1229,-5.1229,-5.1229,-5.1229,-5.1229,-5.1229,-5.1229,-5.1229,-5.093,-5.1199,-5.1588,-5.2905,-5.2606,-5.1977,-5.1319,-5.1199,-5.0913,-5.0285,-5.0764,-5.0913,-5.0255,-5.0764,-5.1199,-5.1199,-5.1199,-5.1199,-5.1199,-5.0554,-5.0196,-5.0196,-5.0166,-4.9568,-4.8327,-4.9553,-4.9912,-4.9299,-4.9942,-4.8222,-4.4436,-4.4436,-4.686,-5.1169,-4.9853,-4.9299,-4.9269,-4.8566,-4.8656,-4.9359,-4.9942,-4.9823,-4.9299,-4.9299,-4.891,-4.8207,-4.7549,-4.7309,-4.7309,-4.7309,-4.7309,-4.7309,-4.7309,-4.7309,-4.7309,-4.7309,-4.7309,-4.7489,-4.8117,-4.8297,-4.8446,-4.9149,-4.9299,-4.9299,-4.9299,-4.9299,-4.912,-4.8416,-4.8267,-4.8087,-4.7429,-4.7309,-4.7728,-4.906,-4.7608,-4.704,-4.903,-4.698,-4.677,-5.069,-5.1738,-5.1887,-5.1229,-5.4162,0.0,0.0,0.0,0.0,0.0,0.0,0.0,-4.8356,-4.8267,0.0,-4.9299,-4.8596,-4.8267,-4.8297,-4.9,-4.9613,-5.0226,-5.0883,-5.1229,-5.1229,-5.1229,-5.1229,-5.1229,-5.1229,-5.1229,-5.1229,-5.1229,-5.1229,-5.1229,-5.1229,-5.1229,-5.1229,-5.2486,-5.2546,-5.2546,-5.2516,-5.2336,-5.1977,-5.1319,-5.1229,-5.1139,-5.0883,-5.1079,-5.1139,-5.093,-5.1079,-5.1229,-5.1229,-5.1229,-5.1229,-5.1229,-5.102,-5.0674,-5.0226,-5.0196,-4.9986,-4.9568,-4.9986,-4.9912,-4.9299,-5.0361,-4.9986,-4.8282,-4.7908,-4.8237,-4.9224,-4.9299,-4.906,-4.8626,-4.9314,-4.9733,-4.9942,-5.0106,-5.0076,-4.9912,-4.9912,-4.9254,-4.8267,-4.8057,-4.7698,-4.7309,-4.7309,-4.7309,-4.7309,-4.7309,-4.7309,-4.7309,-4.7309,-4.7309,-4.7369,-4.7549,-4.7608,-4.7788,-4.8446,-4.864,-4.876,-4.9209,-4.9299,-4.912,-4.8416,-4.8626,-4.879,-4.8087,-4.7608,-4.7429,-4.7848,-4.704,-4.6711,-4.7788,-4.6411,-4.5933,-4.7668,-4.7638,-4.7608,-4.7848,-5.0451,0.0,0.0,0.0,0.0,0.0,0.0,0.0,0.0,-4.8117,0.0,-4.9299,-4.8177,-4.8057,-4.9,-4.9209,-4.9853,-5.0853,-5.1109,-5.1229,-5.1229,-5.1229,-5.1229,-5.1229,-5.1229,-5.1229,-5.1229,-5.1229,-5.1229,-5.1229,-5.1229,-5.1229,-5.1229,-5.3563,-5.3354,-5.3054,-5.2636,-5.2366,-5.2067,-5.1648,-5.1379,-5.1229,-5.1229,-5.1229,-5.1229,-5.1229,-5.1229,-5.1229,-5.1229,-5.1229,-5.1229,-5.1229,-5.1229,-5.0973,-5.0584,-5.0554,-5.0435,-5.0196,-5.0435,-5.0301,-4.9643,-5.069,-5.102,-5.0554,-5.0182,-4.9643,-4.9045,-4.9434,-4.9284,-4.8716,-4.9793,-5.0196,-5.0226,-5.0465,-5.0405,-5.0196,-5.0196,-4.9583,-4.87,-4.87,-4.8237,-4.7668,-4.7668,-4.7519,-4.7309,-4.7309,-4.7309,-4.7309,-4.7309,-4.7309,-4.7309,-4.7309,-4.7309,-4.7399,-4.7818,-4.7908,-4.8087,-4.8745,-4.9149,-4.912,-4.8416,-4.8805,-4.912,-4.8416,-4.7967,-4.7668,-4.7668,-4.692,-4.6518,-4.7219,-4.6352,-4.6292,-4.7967,-4.7578,0.0,0.0,-4.9388,-4.9897,0.0,0.0,0.0,-5.0421,0.0,-5.0301,-5.0122,-4.7878,-4.7279,-4.8506,-4.7967,-4.8207,-4.9329,-4.9763,-5.0421,-5.1229,-5.1229,-5.1229,-5.1229,-5.1229,-5.1229,-5.1229,-5.1229,-5.1229,-5.1229,-5.1229,-5.1229,-5.1229,-5.1229,-5.1229,-5.1229,-5.4132,-5.3623,-5.3174,-5.3114,-5.2606,-5.2187,-5.2127,-5.1618,-5.1229,-5.1229,-5.1229,-5.1229,-5.1229,-5.1229,-5.1229,-5.1229,-5.1229,-5.1229,-5.1229,-5.1229,-5.1229,-5.1229,-5.1229,-5.0883,-5.0285,-5.09,-5.0853,-5.0196,-5.0764,-5.1079,-5.1079,-5.1079,-5.075,-5.0136,-5.0166,-4.9912,-4.9419,-5.0032,-5.0255,-5.0315,-5.0913,-5.0794,-5.0255,-5.0255,-4.9912,-4.9389,-4.9389,-4.8865,-4.8297,-4.8297,-4.7848,-4.7309,-4.7309,-4.7309,-4.7309,-4.7309,-4.7309,-4.7309,-4.7309,-4.7309,-4.7309,-4.7309,-4.7309,-4.7459,-4.8087,-4.876,-4.906,-4.8416,-4.8805,-4.912,-4.8476,-4.8356,-4.8356,-4.8356,-4.7279,-4.6681,-4.7279,-4.677,-4.7415,-5.0571,-5.0315,0.0,-5.087,-5.0345,-4.9299,0.0,0.0,-4.7489,-4.7638,0.0,-5.084,-4.8297,-4.7578,-4.7279,-4.7369,-4.7967,-4.8626,-4.9389,-5.0631,-5.1229,-5.1229,-5.1229,-5.1229,-5.1229,-5.1229,-5.1229,-5.1229,-5.1229,-5.1229,-5.1229,-5.1229,-5.1229,-5.1229,-5.1229,-5.1229,-5.1229,-5.3414,-5.3294,-5.3025,-5.2516,-5.2306,-5.2037,-5.1528,-5.1319,-5.1229,-5.1229,-5.1229,-5.1229,-5.1229,-5.1229,-5.1229,-5.1229,-5.1229,-5.1229,-5.1229,-5.1229,-5.1229,-5.1229,-5.1229,-5.1139,-5.099,-5.1139,-5.0853,-5.0196,-4.9912,-4.9733,-4.9733,-4.9733,-4.9689,-4.9523,-5.0002,-5.0106,-5.0062,-5.072,-5.0943,-5.099,-5.1169,-5.1109,-5.0943,-5.0943,-5.0571,-5.0002,-5.0002,-4.9254,-4.8297,-4.8297,-4.7848,-4.7309,-4.7309,-4.7309,-4.7309,-4.7309,-4.7309,-4.7309,-4.7309,-4.7309,-4.7309,-4.7309,-4.7309,-4.7339,-4.7489,-4.8057,-4.8476,-4.8327,-4.8805,-4.9269,-4.912,-4.909,-4.909,-4.909,-4.8356,-4.7878,-4.8027,-4.707,-4.68,-4.8087,-4.7638,-4.7519,-4.8177,-4.8087,-4.8626,0.0,0.0,-4.9464,-5.096,-5.0361,-4.9224,-4.7578,-4.689,-4.704,-4.8027,-4.8207,-4.8865,-5.0032,-5.084,-5.1229,-5.1229,-5.1229,-5.1229,-5.1229,-5.1229,-5.1229,-5.1229,-5.1229,-5.1229,-5.1229,-5.1229,-5.1229,-5.1229,-5.1229,-5.1229,-5.1229,-5.2725,-5.2486,-5.2187,-5.1828,-5.1738,-5.1618,-5.1259,-5.1229,-5.1229,-5.1229,-5.1229,-5.1229,-5.1229,-5.1229,-5.1229,-5.1229,-5.1229,-5.1229,-5.1229,-5.1229,-5.1229,-5.1229,-5.1229,-5.1229,-5.1229,-5.1229,-5.1003,-5.0644,-5.0331,-5.0152,-5.0152,-5.0152,-5.0152,-5.0182,-5.0541,-5.0644,-5.0674,-5.1079,-5.1229,-5.1229,-5.1229,-5.1229,-5.1229,-5.1229,-5.0943,-5.0644,-5.0644,-4.9853,-4.8745,-4.8745,-4.8087,-4.7309,-4.7309,-4.7309,-4.7309,-4.7309,-4.7309,-4.7309,-4.7309,-4.7309,-4.7309,-4.7309,-4.7309,-4.7309,-4.7309,-4.7578,-4.7848,-4.7848,-4.8356,-4.885,-4.885,-4.885,-4.897,-4.9269,-4.876,-4.8386,-4.8686,-4.8117,-4.7698,-4.7758,-4.7429,-4.7249,-4.7309,-4.7309,-4.7908,-4.9314,-4.8775,0.0,-5.0331,-4.9404,-4.8506,-4.7788,-4.7399,-4.7549,-4.8267,-4.8895,-4.9673,-5.0644,-5.105,-5.1229,-5.1229,-5.1229,-5.1229,-5.1229,-5.1229,-5.1229,-5.1229,-5.1229,-5.1229,-5.1229,-5.1229,-5.1229,-5.1229,-5.1229,-5.1229,-5.1229,-5.2067,-5.1588,-5.1229,-5.1229,-5.1229,-5.1229,-5.1229,-5.1229,-5.1229,-5.1229,-5.1229,-5.1229,-5.1229,-5.1229,-5.1229,-5.1229,-5.1229,-5.1229,-5.1229,-5.1229,-5.1229,-5.1229,-5.1229,-5.1229,-5.1229,-5.1229,-5.1229,-5.1229,-5.1229,-5.1229,-5.1229,-5.1229,-5.1229,-5.1229,-5.1229,-5.1229,-5.1229,-5.1229,-5.1229,-5.1229,-5.1229,-5.1229,-5.1229,-5.1229,-5.1229,-5.1229,-5.1229,-5.0451,-4.9449,-4.9329,-4.8446,-4.7429,-4.7339,-4.7309,-4.7309,-4.7309,-4.7309,-4.7309,-4.7309,-4.7309,-4.7309,-4.7309,-4.7309,-4.7309,-4.7309,-4.7309,-4.7309,-4.7309,-4.7758,-4.8177,-4.8267,-4.8297,-4.8656,-4.9868,-4.9134,-4.8805,-4.9898,-4.9629,-4.912,-4.8506,-4.8446,-4.8207,-4.7668,-4.7608,-4.7608,-4.7608,-4.7608,-4.7848,-4.8416,-4.8446,-4.8446,-4.8446,-4.8446,-4.8476,-4.8596,-4.9747,-5.0614,-5.1229,-5.1229,-5.1229,-5.1229,-5.1229,-5.1229,-5.1229,-5.1229,-5.1229,-5.1229,-5.1229,-5.1229,-5.1229,-5.1229,-5.1229,-5.1229,-5.1229,-5.1229,-5.1229,-5.1379,-5.1289,-5.1229,-5.1229,-5.1229,-5.1229,-5.1229,-5.1229,-5.1229,-5.1229,-5.1229,-5.1229,-5.1229,-5.1229,-5.1229,-5.1229,-5.1229,-5.1229,-5.1229,-5.1229,-5.1229,-5.1229,-5.1229,-5.1229,-5.1229,-5.1229,-5.1229,-5.1229,-5.1229,-5.1229,-5.1229,-5.1229,-5.1229,-5.1229,-5.1229,-5.1229,-5.1229,-5.1229,-5.1229,-5.1229,-5.1229,-5.1229,-5.1229,-5.1229,-5.1229,-5.1229,-5.1229,-5.0674,-5.0002,-4.9464,-4.882,-4.8027,-4.7489,-4.7309,-4.7309,-4.7309,-4.7309,-4.7309,-4.7309,-4.7309,-4.7309,-4.7309,-4.7309,-4.7309,-4.7309,-4.7309,-4.7309,-4.7309,-4.7399,-4.7638,-4.8177,-4.8297,-4.9404,-5.2875,-5.102,-5.0122,-5.3025,-5.102,-4.9269,-4.9179,-4.9149,-4.912,-4.903,-4.9,-4.9,-4.9,-4.9,-4.906,-4.9149,-4.9149,-4.9149,-4.9149,-4.9149,-4.9374,-4.9897,-5.0644,-5.1109,-5.1229,-5.1229,-5.1229,-5.1229,-5.1229,-5.1229,-5.1229,-5.1229,-5.1229,-5.1229,-5.1229,-5.1229,-5.1229,-5.1229,-5.1229,-5.1229,-5.1229,-5.1229,-5.1229,-5.1229,-5.1229,-5.1229,-5.1229,-5.1229,-5.1229,-5.1229,-5.1229,-5.1229,-5.1229,-5.1229,-5.1229,-5.1229,-5.1229,-5.1229,-5.1229,-5.1229,-5.1229,-5.1229,-5.1229,-5.1229,-5.1229,-5.1229,-5.1229,-5.1229,-5.1229,-5.1229,-5.1229,-5.1229,-5.1229,-5.1229,-5.1229,-5.1229,-5.1229,-5.1229,-5.1229,-5.1229,-5.1229,-5.1229,-5.1229,-5.1229,-5.1229,-5.1229,-5.1229,-5.1229,-5.1229,-5.1229,-5.0764,-5.0136,-4.9883,-4.9105,-4.8237,-4.7938,-4.7578,-4.7309,-4.7309,-4.7309,-4.7309,-4.7309,-4.7309,-4.7309,-4.7309,-4.7309,-4.7309,-4.7309,-4.7309,-4.7309,-4.7309,-4.7309,-4.7399,-4.7698,-4.7758,-4.8596,-5.1139,-4.9972,-4.9643,-5.2217,-5.099,-4.9793,-4.9793,-4.9793,-4.9643,-4.9329,-4.9299,-4.9299,-4.9299,-4.9299,-4.9404,-4.9763,-4.9793,-4.9942,-5.0301,-4.9972,-5.0092,-5.0704,-5.1079,-5.1229,-5.1229,-5.1229,-5.1229,-5.1229,-5.1229,-5.1229,-5.1229,-5.1229,-5.1229,-5.1229,-5.1229,-5.1229,-5.1229,-5.1229,-5.1229,-5.1229,-5.1229,-5.1229,-5.1229,-5.1229,-5.1229,-5.1229,-5.1229,-5.1229,-5.1229,-5.1229,-5.1229,-5.1229,-5.1229,-5.1229,-5.1229,-5.1229,-5.1229,-5.1229,-5.1229,-5.1229,-5.1229,-5.1229,-5.1229,-5.1229,-5.1229,-5.1229,-5.1229,-5.1229,-5.1229,-5.1229,-5.1229,-5.1229,-5.1229,-5.1229,-5.1229,-5.1229,-5.1229,-5.1229,-5.1229,-5.1229,-5.1229,-5.1229,-5.1229,-5.1229,-5.1229,-5.1229,-5.1229,-5.1229,-5.1229,-5.1229,-5.0853,-5.0405,-5.0255,-4.9464,-4.8476,-4.8327,-4.7848,-4.7309,-4.7309,-4.7309,-4.7309,-4.7309,-4.7309,-4.7309,-4.7309,-4.7309,-4.7309,-4.7309,-4.7309,-4.7309,-4.7309,-4.7309,-4.7309,-4.7309,-4.7309,-4.7878,-4.9689,-4.9015,-4.9075,-5.1349,-5.0794,-5.0136,-4.9986,-5.0106,-4.9972,-4.9389,-4.9449,-4.9494,-4.9494,-4.9643,-4.9942,-5.0405,-5.0435,-5.0644,-5.1199,-5.0674,-5.0674,-5.1199,-5.1229,-5.1229,-5.1229,-5.1229,-5.1229,-5.1229,-5.1229,-5.1229,-5.1229,-5.1229,-5.1229,-5.1229,-5.1229,-5.1229,-5.1229,-5.1229,-5.1229,-5.1229,-5.1229,-5.1229,-5.1229,-5.1229,-5.1229,-5.1229,-5.1229,-5.1229,-5.1229,-5.1229,-5.1229,-5.1229,-5.1229,-5.1229,-5.1229,-5.1229,-5.1229,-5.1229,-5.1229,-5.1229,-5.1229,-5.1229,-5.1229,-5.1229,-5.1229,-5.1229,-5.1229,-5.1229,-5.1229,-5.1229,-5.1229,-5.1229,-5.1229,-5.1229,-5.1229,-5.1229,-5.1229,-5.1229,-5.1229,-5.1229,-5.1229,-5.1229,-5.1229,-5.1229,-5.1229,-5.1229,-5.1229,-5.1229,-5.1229,-5.1229,-5.1199,-5.1003,-5.0405,-4.9763,-4.912,-4.8476,-4.7848,-4.7309,-4.7309,-4.7309,-4.7309,-4.7309,-4.7309,-4.7309,-4.7309,-4.7309,-4.7309,-4.7309,-4.7309,-4.7309,-4.7309,-4.7309,-4.7309,-4.7309,-4.7309,-4.8327,-5.1468,-4.9912,-4.9404,-5.2576,-5.1409,-5.0002,-4.9449,-4.9883,-4.9972,-4.9389,-4.9823,-5.0106,-5.0106,-5.072,-5.1079,-5.1139,-5.1139,-5.1169,-5.1229,-5.1169,-5.1169,-5.1229,-5.1229,-5.1229,-5.1229,-5.1229,-5.1229,-5.1229,-5.1229,-5.1229,-5.1229,-5.1229,-5.1229,-5.1229,-5.1229,-5.1229,-5.1229,-5.1229,-5.1229,-5.1229,-5.1229,-5.1229,-5.1229,-5.1289,-5.1229,-5.1229,-5.1229,-5.1229,-5.1229,-5.1229,-5.1229,-5.1229,-5.1229,-5.1229,-5.1229,-5.1229,-5.1229,-5.1229,-5.1229,-5.1229,-5.1229,-5.1229,-5.1229,-5.1229,-5.1229,-5.1229,-5.1229,-5.1229,-5.1229,-5.1229,-5.1229,-5.1229,-5.1229,-5.1229,-5.1229,-5.1229,-5.1229,-5.1229,-5.1229,-5.1229,-5.1229,-5.1229,-5.1229,-5.1229,-5.1229,-5.1229,-5.1229,-5.1229,-5.1229,-5.1229,-5.1229,-5.1169,-5.093,-5.0152,-4.9269,-4.903,-4.8147,-4.7309,-4.7309,-4.7309,-4.7309,-4.7309,-4.7309,-4.7309,-4.7309,-4.7309,-4.7309,-4.7309,-4.7309,-4.7309,-4.7309,-4.7309,-4.7309,-4.7309,-4.7309,-4.7848,-4.9494,-4.8596,-4.8386,-5.0497,-5.0122,-4.9553,-4.9329,-4.9853,-4.9972,-4.9389,-4.9494,-4.9793,-5.0166,-5.0435,-5.0734,-5.1199,-5.1229,-5.1229,-5.1229,-5.1229,-5.1229,-5.1229,-5.1229,-5.1229,-5.1229,-5.1229,-5.1229,-5.1229,-5.1229,-5.1229,-5.1229,-5.1229,-5.1229,-5.1229,-5.1229,-5.1229,-5.1229,-5.1229,-5.1229,-5.1229,-5.1229,-5.1229,-5.1229,-5.1648,-5.1528,-5.1468,-5.1259,-5.1229,-5.1229,-5.1229,-5.1229,-5.1229,-5.1229,-5.1229,-5.1229,-5.1229,-5.1229,-5.1229,-5.1229,-5.1229,-5.1229,-5.1229,-5.1229,-5.1229,-5.1229,-5.1229,-5.1229,-5.1229,-5.1229,-5.1229,-5.1229,-5.1229,-5.1229,-5.1229,-5.1229,-5.1229,-5.1229,-5.1229,-5.1229,-5.1229,-5.1229,-5.1229,-5.1229,-5.1229,-5.1229,-5.1229,-5.1229,-5.1229,-5.1229,-5.1229,-5.1229,-5.1229,-5.1229,-5.0331,-4.9299,-4.9299,-4.8356,-4.7309,-4.7309,-4.7309,-4.7309,-4.7309,-4.7309,-4.7309,-4.7309,-4.7309,-4.7309,-4.7309,-4.7309,-4.7309,-4.7309,-4.7309,-4.7309,-4.7309,-4.7309,-4.7459,-4.7908,-4.7608,-4.7608,-4.8506,-4.888,-4.894,-4.8686,-4.9224,-4.9374,-4.8716,-4.888,-4.9134,-4.9583,-4.9956,-5.0465,-5.1169,-5.1229,-5.1229,-5.1229,-5.1229,-5.1229,-5.1229,-5.1229,-5.1229,-5.1229,-5.1229,-5.1229,-5.1229,-5.1229,-5.1229,-5.1229,-5.1229,-5.1229,-5.1229,-5.1229,-5.1229,-5.1229,-5.1229,-5.1229,-5.1229,-5.1229,-5.1229,-5.1229,-5.2336,-5.2217,-5.2007,-5.1349,-5.1229,-5.1229,-5.1229,-5.1229,-5.1229,-5.1229,-5.1229,-5.1229,-5.1229,-5.1229,-5.1229,-5.1229,-5.1229,-5.1229,-5.1229,-5.1229,-5.1229,-5.1229,-5.1229,-5.1229,-5.1229,-5.1229,-5.1229,-5.1229,-5.1229,-5.1229,-5.1229,-5.1229,-5.1229,-5.1229,-5.1229,-5.1229,-5.1229,-5.1229,-5.1229,-5.1229,-5.1229,-5.1229,-5.1229,-5.1229,-5.1229,-5.1229,-5.1229,-5.1229,-5.1229,-5.1229,-5.0331,-4.9299,-4.9299,-4.8356,-4.7309,-4.7309,-4.7309,-4.7309,-4.7309,-4.7309,-4.7309,-4.7309,-4.7309,-4.7309,-4.7309,-4.7309,-4.7309,-4.7309,-4.7309,-4.7309,-4.7309,-4.7309,-4.7309,-4.7309,-4.7309,-4.7309,-4.7309,-4.7878,-4.8027,-4.7369,-4.7878,-4.8027,-4.7369,-4.7908,-4.8267,-4.8297,-4.9494,-5.0465,-5.1169,-5.1229,-5.1229,-5.1229,-5.1229,-5.1229,-5.1229,-5.1229,-5.1229,-5.1229,-5.1229,-5.1229,-5.1229,-5.1229,-5.1229,-5.1229,-5.1229,-5.1229,-5.1229,-5.1229,-5.1229,-5.1229,-5.1229,-5.1229,-5.1229,-5.1229,-5.1229,-5.1229,-5.3025,-5.2875,-5.2665,-5.2007,-5.1917,-5.1738,-5.1289,-5.1229,-5.1229,-5.1229,-5.1229,-5.1229,-5.1229,-5.1229,-5.1229,-5.1229,-5.1229,-5.1229,-5.1229,-5.1229,-5.1229,-5.1229,-5.1229,-5.1229,-5.1229,-5.1229,-5.1229,-5.1229,-5.1229,-5.1229,-5.1229,-5.1229,-5.1229,-5.1229,-5.1229,-5.1229,-5.1229,-5.1229,-5.1229,-5.1229,-5.1229,-5.1229,-5.1229,-5.1229,-5.1229,-5.1229,-5.1229,-5.1229,-5.1229,-5.1229,-5.0331,-4.9149,-4.8177,-4.7608,-4.7309,-4.7309,-4.7309,-4.7309,-4.7309,-4.7309,-4.7309,-4.7309,-4.7309,-4.7309,-4.7309,-4.7309,-4.7309,-4.7309,-4.7309,-4.7309,-4.7309,-4.7309,-4.7309,-4.7309,-4.7309,-4.7309,-4.7309,-4.7878,-4.8027,-4.7369,-4.7878,-4.8027,-4.7369,-4.7489,-4.7788,-4.8237,-4.9494,-5.0285,-5.0465,-5.0913,-5.1229,-5.1229,-5.1229,-5.1229,-5.1229,-5.1229,-5.1229,-5.1229,-5.1229,-5.1229,-5.1229,-5.1229,-5.1229,-5.1229,-5.1229,-5.1229,-5.1229,-5.1229,-5.1229,-5.1229,-5.1229,-5.1229,-5.1229,-5.1229,-5.1229,-5.1229,-5.3713,-5.3593,-5.3384,-5.2695,-5.2366,-5.2067,-5.1678,-5.1379,-5.1229,-5.1229,-5.1229,-5.1229,-5.1229,-5.1229,-5.1229,-5.1229,-5.1229,-5.1229,-5.1229,-5.1229,-5.1229,-5.1229,-5.1229,-5.1229,-5.1229,-5.1229,-5.1229,-5.1229,-5.1229,-5.1229,-5.1229,-5.1229,-5.1229,-5.1229,-5.1229,-5.1229,-5.1229,-5.1229,-5.1229,-5.1229,-5.1229,-5.1229,-5.1229,-5.1229,-5.1229,-5.1229,-5.1229,-5.1229,-5.1229,-5.1229,-5.0331,-4.909,-4.7728,-4.7309,-4.7309,-4.7309,-4.7309,-4.7309,-4.7309,-4.7309,-4.7309,-4.7309,-4.7309,-4.7309,-4.7309,-4.7309,-4.7309,-4.7309,-4.7309,-4.7309,-4.7309,-4.7309,-4.7309,-4.7309,-4.7309,-4.7309,-4.7309,-4.7638,-4.7758,-4.7369,-4.7668,-4.7848,-4.7698,-4.7698,-4.7967,-4.8626,-4.9404,-4.9972,-5.0196,-5.0823,-5.1229,-5.1229,-5.1229,-5.1229,-5.1229,-5.1229,-5.1229,-5.1229,-5.1229,-5.1229,-5.1229,-5.1229,-5.1229,-5.1229,-5.1229,-5.1229,-5.1229,-5.1229,-5.1229,-5.1229,-5.1229,-5.1229,-5.1229,-5.1229,-5.1229,-5.1229,-5.4431,-5.4311,-5.4072,-5.3384,-5.2785,-5.2336,-5.2217,-5.1678,-5.1289,-5.1229,-5.1229,-5.1229,-5.1229,-5.1229,-5.1229,-5.1229,-5.1229,-5.1229,-5.1229,-5.1229,-5.1229,-5.1229,-5.1229,-5.1229,-5.1229,-5.1229,-5.1229,-5.1229,-5.1229,-5.1229,-5.1229,-5.1229,-5.1229,-5.1229,-5.1229,-5.1229,-5.1229,-5.1229,-5.1229,-5.1229,-5.1229,-5.1229,-5.1229,-5.1229,-5.1229,-5.1229,-5.1229,-5.1229,-5.1199,-5.1139,-5.0272,-4.903,-4.7758,-4.7369,-4.7309,-4.7309,-4.7309,-4.7309,-4.7309,-4.7309,-4.7309,-4.7309,-4.7309,-4.7309,-4.7369,-4.7399,-4.7399,-4.7399,-4.7399,-4.7369,-4.7309,-4.7309,-4.7309,-4.7309,-4.7309,-4.7339,-4.7369,-4.7339,-4.7339,-4.7399,-4.7339,-4.7549,-4.8207,-4.8327,-4.8626,-4.9269,-4.9359,-4.9613,-5.0166,-5.0823,-5.1229,-5.1229,-5.1229,-5.1229,-5.1229,-5.1229,-5.1229,-5.1229,-5.1229,-5.1229,-5.1229,-5.1229,-5.1229,-5.1229,-5.1229,-5.1229,-5.1229,-5.1229,-5.1229,-5.1229,-5.1229,-5.1229,-5.1229,-5.1229,-5.1229,-5.1229,-5.4999,-5.497,-5.476,-5.4102,-5.3862,-5.3414,-5.2366,-5.2067,-5.1798,-5.1289,-5.1229,-5.1229,-5.1229,-5.1229,-5.1229,-5.1229,-5.1229,-5.1229,-5.1229,-5.1229,-5.1229,-5.1229,-5.1229,-5.1229,-5.1229,-5.1229,-5.1229,-5.1229,-5.1229,-5.1229,-5.1229,-5.1229,-5.1229,-5.1229,-5.1229,-5.1229,-5.1229,-5.1229,-5.1229,-5.1229,-5.1229,-5.1229,-5.1229,-5.1229,-5.1229,-5.1229,-5.1229,-5.1229,-5.1139,-5.0584,-4.9583,-4.8446,-4.8147,-4.7728,-4.7309,-4.7309,-4.7309,-4.7309,-4.7309,-4.7309,-4.7309,-4.7309,-4.7309,-4.7429,-4.7967,-4.8087,-4.8087,-4.8087,-4.8087,-4.7908,-4.7399,-4.7309,-4.7309,-4.7309,-4.7309,-4.7489,-4.7997,-4.7638,-4.7489,-4.8027,-4.7608,-4.7549,-4.8207,-4.879,-4.9149,-4.9299,-4.9733,-5.0046,-5.0196,-5.0823,-5.1229,-5.1229,-5.1229,-5.1229,-5.1229,-5.1229,-5.1229,-5.1229,-5.1229,-5.1229,-5.1229,-5.1229,-5.1229,-5.1229,-5.1229,-5.1229,-5.1229,-5.1229,-5.1229,-5.1229,-5.1229,-5.1229,-5.1229,-5.1229,-5.1229,-5.1229,-5.5179,-5.5179,-5.5089,-5.473,-5.4431,-5.3982,-5.3264,-5.2606,-5.2067,-5.1738,-5.1409,-5.1229,-5.1229,-5.1229,-5.1229,-5.1229,-5.1229,-5.1229,-5.1229,-5.1229,-5.1229,-5.1229,-5.1229,-5.1229,-5.1229,-5.1229,-5.1229,-5.1229,-5.1229,-5.1229,-5.1229,-5.1229,-5.1229,-5.1229,-5.1229,-5.1229,-5.1229,-5.1229,-5.1229,-5.1229,-5.1229,-5.1229,-5.1229,-5.1229,-5.1229,-5.1229,-5.1229,-5.0973,-5.0644,-5.0315,-4.9374,-4.8297,-4.8297,-4.7848,-4.7309,-4.7309,-4.7309,-4.7309,-4.7309,-4.7309,-4.7309,-4.7309,-4.7309,-4.7489,-4.8147,-4.8297,-4.8386,-4.8686,-4.879,-4.8656,-4.8297,-4.8237,-4.8237,-4.8237,-4.8237,-4.8356,-4.876,-4.8446,-4.8356,-4.876,-4.8446,-4.8506,-4.9164,-4.9523,-4.9733,-4.9733,-4.9986,-5.0196,-5.0196,-5.0823,-5.1229,-5.1229,-5.1229,-5.1229,-5.1229,-5.1229,-5.1229,-5.1229,-5.1229,-5.1229,-5.1229,-5.1229,-5.1229,-5.1229,-5.1229,-5.1229,-5.1229,-5.1229,-5.1229,-5.1229,-5.1229,-5.1229,-5.1229,-5.1229,-5.1229,-5.1229,-5.5179,-5.5179,-5.5179,-5.5179,-5.473,-5.4341,-5.4221,-5.3264,-5.2456,-5.2247,-5.1738,-5.1349,-5.1229,-5.1229,-5.1229,-5.1229,-5.1229,-5.1229,-5.1229,-5.1229,-5.1229,-5.1229,-5.1229,-5.1229,-5.1229,-5.1229,-5.1229,-5.1229,-5.1229,-5.1229,-5.1229,-5.1229,-5.1229,-5.1229,-5.1229,-5.1229,-5.1229,-5.1229,-5.1229,-5.1229,-5.1229,-5.1229,-5.1229,-5.1229,-5.1229,-5.1229,-5.1229,-5.0674,-5.0076,-5.0285,-4.9374,-4.8147,-4.8386,-4.7997,-4.7489,-4.7489,-4.7549,-4.7638,-4.7638,-4.7638,-4.7608,-4.7489,-4.7489,-4.7608,-4.8147,-4.8386,-4.864,-4.9209,-4.9389,-4.9449,-4.9329,-4.9299,-4.9299,-4.9299,-4.9299,-4.9359,-4.9404,-4.9389,-4.9359,-4.9404,-4.9434,-4.9643,-5.0136,-5.0285,-5.0375,-5.0375,-5.0375,-5.0375,-5.0375,-5.0883,-5.1229,-5.1229,-5.1229,-5.1229,-5.1229,-5.1229,-5.1229,-5.1229,-5.1229,-5.1229,-5.1229,-5.1229,-5.1229,-5.1229,-5.1229,-5.1229,-5.1229,-5.1229,-5.1229,-5.1229,-5.1229,-5.1229,-5.1229,-5.1229,-5.1229,-5.1229,-5.5179,-5.5179,-5.5179,-5.5179,-5.5119,-5.488,-5.4311,-5.4072,-5.3533,-5.2366,-5.2127,-5.1858,-5.1289,-5.1229,-5.1229,-5.1229,-5.1229,-5.1229,-5.1229,-5.1229,-5.1229,-5.1229,-5.1229,-5.1229,-5.1229,-5.1229,-5.1229,-5.1229,-5.1229,-5.1229,-5.1229,-5.1229,-5.1229,-5.1229,-5.1229,-5.1229,-5.1229,-5.1229,-5.1229,-5.1229,-5.1229,-5.1229,-5.1229,-5.1229,-5.1229,-5.1229,-5.1229,-5.0421,-4.9583,-5.069,-4.9464,-4.7638,-4.882,-4.8686,-4.8147,-4.8147,-4.8566,-4.906,-4.906,-4.906,-4.891,-4.8297,-4.8147,-4.8177,-4.8267,-4.876,-4.9209,-4.9299,-4.9733,-4.9942,-4.9419,-4.9299,-4.9299,-4.9299,-4.9299,-4.9464,-5.0032,-4.9613,-4.9464,-4.9986,-5.0076,-5.0106,-5.0196,-5.0704,-5.1079,-5.1079,-5.1079,-5.1079,-5.1079,-5.1169,-5.1229,-5.1229,-5.1229,-5.1229,-5.1229,-5.1229,-5.1229,-5.1229,-5.1229,-5.1229,-5.1229,-5.1229,-5.1229,-5.1229,-5.1229,-5.1229,-5.1229,-5.1229,-5.1229,-5.1229,-5.1229,-5.1229,-5.1229,-5.1229,-5.1229,-5.1229,-5.5179,-5.5179,-5.5179,-5.5179,-5.5179,-5.5089,-5.479,-5.4431,-5.4012,-5.3414,-5.2665,-5.2097,-5.1798,-5.1439,-5.1229,-5.1229,-5.1229,-5.1229,-5.1229,-5.1229,-5.1229,-5.1229,-5.1229,-5.1229,-5.1229,-5.1229,-5.1229,-5.1229,-5.1229,-5.1229,-5.1229,-5.1229,-5.1229,-5.1229,-5.1229,-5.1229,-5.1229,-5.1229,-5.1229,-5.1229,-5.1229,-5.1229,-5.1229,-5.1229,-5.1229,-5.1229,-5.1229,-5.0601,-4.9972,-5.09,-4.9972,-4.8566,-4.9523,-4.9374,-4.888,-4.888,-4.909,-4.9299,-4.9299,-4.9299,-4.9239,-4.894,-4.888,-4.8745,-4.8386,-4.885,-4.9419,-4.9733,-5.0331,-5.069,-5.0421,-5.0361,-5.0361,-5.0361,-5.0361,-5.0451,-5.0704,-5.0541,-5.0451,-5.0704,-5.0734,-5.0734,-5.0734,-5.105,-5.1229,-5.1229,-5.1229,-5.1229,-5.1229,-5.1229,-5.1229,-5.1229,-5.1229,-5.1229,-5.1229,-5.1229,-5.1229,-5.1229,-5.1229,-5.1229,-5.1229,-5.1229,-5.1229,-5.1229,-5.1229,-5.1229,-5.1229,-5.1229,-5.1229,-5.1229,-5.1229,-5.1229,-5.1229,-5.1229,-5.1229,-5.1229]},{"header":{"parameterUnit":"m.s-1","parameterCategory":1,"la1":30.6,"la2":28.766,"lo1":-90.7593,"lo2":-88.6598,"dx":0.0162,"dy":0.0183,"nx":116,"ny":114,"refTime":"2022-12-28T06:00:00:Z","depth":0,"parameterNumber":3,"parameterNumberName":"V-component_of_WINDS"},"data":[0.0,0.0,0.0,0.0,0.0,0.0,0.0,0.0,0.0,0.0,0.0,0.0,0.0,0.0,0.0,0.0,0.0,0.0,0.0,0.0,0.0,0.0,0.0,0.0,0.0,0.0,0.0,0.0,0.0,0.0,0.0,0.0,0.0,0.0,0.0,0.0,0.0,0.0,0.0,0.0,0.0,0.0,0.0,0.0,0.0,0.0,0.0,0.0,0.0,0.0,0.0,0.0,0.0,0.0,0.0,0.0,0.0,0.0,0.0,0.0,0.0,0.0,0.0,0.0,0.0,0.0,0.0,0.0,0.0,0.0,0.0,0.0,0.0,0.0,0.0,0.0,0.0,0.0,0.0,0.0,0.0,0.0,0.0,0.0,0.0,0.0,0.0,0.0,0.0,0.0,0.0,0.0,0.0,0.0,0.0,0.0,0.0,0.0,0.0,0.0,0.0,0.0,0.0,0.0,0.0,0.0,0.0,0.0,0.0,0.0,0.0,0.0,0.0,0.0,0.0,0.0,0.0,0.0,0.0,0.0,0.0,0.0,0.0,0.0,0.0,0.0,0.0,0.0,0.0,0.0,0.0,0.0,0.0,0.0,0.0,0.0,0.0,0.0,0.0,0.0,0.0,0.0,0.0,0.0,0.0,0.0,0.0,0.0,0.0,0.0,0.0,0.0,0.0,0.0,0.0,0.0,0.0,0.0,0.0,0.0,0.0,0.0,0.0,0.0,0.0,0.0,0.0,0.0,0.0,0.0,0.0,0.0,0.0,0.0,0.0,0.0,0.0,0.0,0.0,0.0,0.0,0.0,0.0,0.0,0.0,0.0,0.0,0.0,0.0,0.0,0.0,0.0,0.0,0.0,0.0,0.0,0.0,0.0,0.0,0.0,0.0,0.0,0.0,0.0,0.0,0.0,0.0,0.0,0.0,0.0,0.0,0.0,0.0,0.0,0.0,0.0,0.0,0.0,0.0,0.0,0.0,0.0,0.0,0.0,0.0,0.0,0.0,0.0,0.0,0.0,0.0,0.0,0.0,0.0,0.0,0.0,0.0,0.0,0.0,0.0,0.0,0.0,0.0,0.0,0.0,0.0,0.0,0.0,0.0,0.0,0.0,0.0,0.0,0.0,0.0,0.0,0.0,0.0,0.0,0.0,0.0,0.0,0.0,0.0,0.0,0.0,0.0,0.0,0.0,0.0,0.0,0.0,0.0,0.0,0.0,0.0,0.0,0.0,0.0,0.0,0.0,0.0,0.0,0.0,0.0,0.0,0.0,0.0,0.0,0.0,0.0,0.0,0.0,0.0,0.0,0.0,0.0,0.0,0.0,0.0,0.0,0.0,0.0,0.0,0.0,0.0,0.0,0.0,0.0,0.0,0.0,0.0,0.0,0.0,0.0,0.0,0.0,0.0,0.0,0.0,0.0,0.0,0.0,0.0,0.0,0.0,0.0,0.0,0.0,0.0,0.0,0.0,0.0,0.0,0.0,0.0,0.0,0.0,0.0,0.0,0.0,0.0,0.0,0.0,0.0,0.0,0.0,0.0,0.0,0.0,0.0,0.0,0.0,0.0,0.0,0.0,0.0,0.0,0.0,0.0,0.0,0.0,0.0,0.0,0.0,0.0,0.0,0.0,0.0,0.0,0.0,0.0,0.0,0.0,0.0,0.0,0.0,0.0,0.0,0.0,0.0,0.0,0.0,0.0,0.0,0.0,0.0,0.0,0.0,0.0,0.0,0.0,0.0,0.0,0.0,0.0,0.0,0.0,0.0,0.0,0.0,0.0,0.0,0.0,0.0,0.0,0.0,0.0,0.0,0.0,0.0,0.0,0.0,0.0,0.0,0.0,0.0,0.0,0.0,0.0,0.0,0.0,0.0,0.0,0.0,0.0,0.0,0.0,0.0,0.0,0.0,0.0,0.0,0.0,0.0,0.0,0.0,0.0,0.0,0.0,0.0,0.0,0.0,0.0,0.0,0.0,0.0,0.0,0.0,0.0,0.0,0.0,0.0,0.0,0.0,0.0,0.0,0.0,0.0,0.0,0.0,0.0,0.0,0.0,0.0,0.0,0.0,0.0,0.0,0.0,0.0,0.0,0.0,0.0,0.0,0.0,0.0,0.0,0.0,0.0,0.0,0.0,0.0,0.0,0.0,0.0,0.0,0.0,0.0,0.0,0.0,0.0,0.0,0.0,0.0,0.0,0.0,0.0,0.0,0.0,0.0,0.0,0.0,0.0,0.0,0.0,0.0,0.0,0.0,0.0,0.0,0.0,0.0,0.0,0.0,0.0,0.0,0.0,0.0,0.0,0.0,0.0,0.0,0.0,0.0,0.0,0.0,0.0,0.0,0.0,0.0,0.0,0.0,0.0,0.0,0.0,0.0,0.0,0.0,0.0,0.0,0.0,0.0,0.0,0.0,0.0,0.0,0.0,0.0,0.0,0.0,0.0,0.0,0.0,0.0,0.0,0.0,0.0,0.0,0.0,0.0,0.0,0.0,0.0,0.0,0.0,0.0,0.0,0.0,0.0,0.0,0.0,0.0,0.0,0.0,0.0,0.0,0.0,0.0,0.0,0.0,0.0,0.0,0.0,0.0,0.0,0.0,0.0,0.0,0.0,0.0,0.0,0.0,0.0,0.0,0.0,0.0,0.0,0.0,0.0,0.0,0.0,0.0,0.0,0.0,0.0,0.0,0.0,0.0,0.0,0.0,0.0,0.0,0.0,0.0,0.0,0.0,0.0,0.0,0.0,0.0,0.0,0.0,0.0,0.0,0.0,0.0,0.0,0.0,0.0,0.0,0.0,0.0,0.0,0.0,0.0,0.0,0.0,0.0,0.0,0.0,0.0,0.0,0.0,0.0,0.0,0.0,0.0,0.0,0.0,0.0,0.0,0.0,0.0,0.0,0.0,0.0,0.0,0.0,0.0,0.0,0.0,0.0,0.0,0.0,0.0,0.0,0.0,0.0,0.0,0.0,0.0,0.0,0.0,0.0,0.0,0.0,0.0,0.0,0.0,0.0,0.0,0.0,0.0,0.0,0.0,0.0,0.0,0.0,0.0,0.0,0.0,0.0,0.0,0.0,0.0,0.0,0.0,0.0,0.0,0.0,0.0,0.0,0.0,0.0,0.0,0.0,0.0,0.0,0.0,0.0,0.0,0.0,0.0,0.0,0.0,0.0,0.0,0.0,0.0,0.0,0.0,0.0,0.0,0.0,0.0,0.0,0.0,0.0,0.0,0.0,0.0,0.0,0.0,0.0,0.0,0.0,0.0,0.0,0.0,0.0,0.0,0.0,0.0,0.0,0.0,0.0,0.0,0.0,0.0,0.0,0.0,0.0,0.0,0.0,0.0,0.0,0.0,0.0,0.0,0.0,0.0,0.0,0.0,0.0,0.0,0.0,0.0,0.0,0.0,0.0,0.0,0.0,0.0,0.0,0.0,0.0,0.0,0.0,0.0,0.0,0.0,0.0,0.0,0.0,0.0,0.0,0.0,0.0,0.0,0.0,0.0,0.0,0.0,0.0,0.0,0.0,0.0,0.0,0.0,0.0,0.0,0.0,0.0,0.0,0.0,0.0,0.0,0.0,0.0,0.0,0.0,0.0,0.0,0.0,0.0,0.0,0.0,0.0,0.0,0.0,0.0,0.0,0.0,0.0,0.0,0.0,0.0,0.0,0.0,0.0,0.0,0.0,0.0,0.0,0.0,0.0,0.0,0.0,0.0,0.0,0.0,0.0,0.0,0.0,0.0,0.0,0.0,0.0,0.0,0.0,0.0,0.0,0.0,0.0,0.0,0.0,0.0,0.0,0.0,0.0,0.0,0.0,0.0,0.0,0.0,0.0,0.0,0.0,0.0,0.0,0.0,0.0,0.0,0.0,0.0,0.0,0.0,0.0,0.0,0.0,0.0,0.0,0.0,0.0,0.0,0.0,0.0,0.0,0.0,0.0,0.0,0.0,0.0,0.0,0.0,0.0,0.0,0.0,0.0,0.0,0.0,0.0,0.0,0.0,0.0,0.0,0.0,0.0,0.0,0.0,0.0,0.0,0.0,0.0,0.0,0.0,0.0,0.0,0.0,0.0,0.0,0.0,0.0,0.0,0.0,0.0,0.0,0.0,0.0,0.0,0.0,0.0,0.0,0.0,0.0,0.0,0.0,0.0,0.0,0.0,0.0,0.0,0.0,0.0,0.0,0.0,0.0,0.0,0.0,0.0,0.0,0.0,0.0,0.0,0.0,0.0,0.0,0.0,0.0,0.0,0.0,0.0,0.0,0.0,0.0,0.0,0.0,0.0,0.0,0.0,0.0,0.0,0.0,0.0,0.0,0.0,0.0,0.0,0.0,0.0,0.0,0.0,0.0,0.0,0.0,0.0,0.0,0.0,0.0,0.0,0.0,0.0,0.0,0.0,0.0,0.0,0.0,0.0,0.0,0.0,0.0,0.0,0.0,0.0,0.0,0.0,0.0,0.0,0.0,0.0,0.0,0.0,0.0,0.0,0.0,0.0,0.0,0.0,0.0,0.0,0.0,0.0,0.0,0.0,0.0,0.0,0.0,0.0,0.0,0.0,0.0,0.0,0.0,0.0,0.0,0.0,0.0,0.0,0.0,0.0,0.0,0.0,0.0,0.0,0.0,0.0,0.0,0.0,0.0,0.0,0.0,0.0,0.0,0.0,0.0,0.0,0.0,0.0,0.0,0.0,0.0,0.0,0.0,0.0,0.0,0.0,0.0,0.0,0.0,0.0,0.0,0.0,0.0,0.0,0.0,0.0,0.0,0.0,0.0,0.0,0.0,0.0,0.0,0.0,0.0,0.0,0.0,0.0,0.0,0.0,0.0,0.0,0.0,0.0,0.0,0.0,0.0,0.0,0.0,0.0,0.0,0.0,0.0,0.0,0.0,0.0,0.0,0.0,0.0,0.0,0.0,0.0,0.0,0.0,0.0,0.0,0.0,0.0,0.0,0.0,0.0,0.0,0.0,0.0,0.0,0.0,0.0,0.0,0.0,0.0,0.0,0.0,0.0,0.0,0.0,0.0,0.0,0.0,0.0,0.0,0.0,0.0,0.0,0.0,0.0,0.0,0.0,0.0,0.0,0.0,0.0,0.0,0.0,0.0,0.0,0.0,0.0,0.0,0.0,0.0,0.0,0.0,0.0,0.0,0.0,0.0,0.0,0.0,0.0,0.0,0.0,0.0,0.0,0.0,0.0,0.0,0.0,0.0,0.0,0.0,0.0,0.0,0.0,0.0,0.0,0.0,0.0,0.0,0.0,0.0,0.0,0.0,0.0,0.0,0.0,0.0,0.0,0.0,0.0,0.0,0.0,0.0,0.0,0.0,0.0,0.0,0.0,0.0,0.0,0.0,0.0,0.0,0.0,0.0,0.0,0.0,0.0,0.0,0.0,0.0,0.0,0.0,0.0,0.0,0.0,0.0,0.0,0.0,0.0,0.0,0.0,0.0,0.0,0.0,0.0,0.0,0.0,0.0,0.0,0.0,0.0,0.0,0.0,0.0,0.0,0.0,0.0,0.0,0.0,0.0,0.0,0.0,0.0,0.0,0.0,0.0,0.0,0.0,0.0,0.0,0.0,0.0,0.0,0.0,0.0,0.0,0.0,0.0,0.0,0.0,0.0,0.0,0.0,0.0,0.0,0.0,0.0,0.0,0.0,0.0,0.0,0.0,0.0,0.0,0.0,0.0,0.0,0.0,0.0,0.0,0.0,0.0,0.0,0.0,0.0,0.0,0.0,0.0,0.0,0.0,0.0,0.0,0.0,0.0,0.0,0.0,0.0,0.0,0.0,0.0,0.0,0.0,0.0,0.0,0.0,0.0,0.0,0.0,0.0,0.0,0.0,0.0,0.0,0.0,0.0,0.0,0.0,0.0,0.0,0.0,0.0,0.0,0.0,0.0,0.0,0.0,0.0,0.0,0.0,0.0,0.0,0.0,0.0,0.0,0.0,0.0,0.0,0.0,0.0,0.0,0.0,0.0,0.0,0.0,0.0,0.0,0.0,0.0,0.0,0.0,0.0,0.0,0.0,0.0,0.0,0.0,0.0,0.0,0.0,0.0,0.0,0.0,0.0,0.0,0.0,0.0,0.0,0.0,0.0,3.1093,2.9578,0.0,0.0,0.0,0.0,0.0,0.0,0.0,0.0,0.0,0.0,0.0,0.0,0.0,0.0,0.0,0.0,0.0,0.0,0.0,0.0,0.0,0.0,0.0,0.0,0.0,0.0,0.0,0.0,0.0,0.0,0.0,0.0,0.0,0.0,0.0,0.0,2.0398,2.1575,2.2203,2.355,2.5495,2.4245,2.3414,2.2972,0.0,0.0,0.0,0.0,0.0,0.0,0.0,0.0,0.0,0.0,0.0,0.0,0.0,0.0,0.0,0.0,0.0,0.0,0.0,0.0,0.0,0.0,0.0,0.0,0.0,0.0,0.0,0.0,0.0,0.0,0.0,0.0,0.0,0.0,0.0,0.0,0.0,0.0,0.0,0.0,0.0,0.0,0.0,0.0,0.0,0.0,0.0,0.0,0.0,0.0,0.0,0.0,0.0,0.0,0.0,0.0,0.0,0.0,0.0,0.0,0.0,0.0,0.0,0.0,0.0,0.0,0.0,0.0,0.0,0.0,3.2976,3.2108,0.0,0.0,0.0,0.0,0.0,0.0,0.0,0.0,0.0,0.0,0.0,0.0,0.0,0.0,0.0,0.0,0.0,0.0,0.0,0.0,0.0,0.0,0.0,0.0,1.6615,1.6184,1.6634,1.7006,0.0,0.0,0.0,0.0,0.0,0.0,2.0684,2.1298,2.2456,2.4118,2.5704,2.7021,2.8124,2.8667,2.8338,2.7171,2.4799,0.0,0.0,0.0,0.0,0.0,0.0,0.0,0.0,0.0,0.0,0.0,0.0,0.0,0.0,0.0,0.0,0.0,0.0,0.0,0.0,0.0,0.0,0.0,0.0,0.0,0.0,0.0,0.0,0.0,0.0,0.0,0.0,0.0,0.0,0.0,0.0,0.0,0.0,0.0,0.0,0.0,0.0,0.0,0.0,0.0,0.0,0.0,0.0,0.0,0.0,0.0,0.0,0.0,0.0,0.0,0.0,0.0,0.0,0.0,0.0,0.0,0.0,0.0,3.5013,3.5073,3.5162,3.4472,3.4861,3.5938,3.4831,3.4412,3.4384,3.2557,0.0,0.0,0.0,0.0,0.0,0.0,0.0,0.0,0.0,0.0,0.0,0.0,0.0,0.0,0.0,0.0,0.0,0.0,0.0,0.0,0.0,1.79,1.8161,1.8579,1.8711,1.9189,0.0,0.0,0.0,0.0,0.0,2.2974,2.3157,2.3791,2.4798,2.6183,2.8667,2.9953,3.0133,3.0223,3.0163,2.9924,2.8457,2.738,2.6596,0.0,0.0,0.0,0.0,0.0,0.0,0.0,0.0,0.0,0.0,0.0,0.0,0.0,0.0,0.0,0.0,0.0,0.0,0.0,0.0,0.0,0.0,0.0,0.0,0.0,0.0,0.0,0.0,0.0,0.0,0.0,0.0,0.0,0.0,0.0,0.0,0.0,0.0,0.0,0.0,0.0,2.8098,2.8188,0.0,0.0,0.0,0.0,0.0,0.0,0.0,0.0,0.0,0.0,0.0,0.0,0.0,3.4681,3.4384,3.5519,3.6417,3.7015,3.7015,3.7315,3.7853,3.7195,3.7315,3.8003,3.7823,0.0,3.4444,3.3574,0.0,0.0,0.0,0.0,0.0,0.0,0.0,0.0,0.0,0.0,0.0,0.0,0.0,0.0,0.0,0.0,0.0,0.0,0.0,0.0,0.0,2.0363,2.1027,2.1808,2.2409,2.2684,2.2547,2.3157,0.0,0.0,2.4777,2.5465,2.5848,2.6512,2.7654,2.9328,3.0881,3.1839,3.2198,3.2198,3.2198,3.2168,3.1599,2.9744,2.7016,2.6482,0.0,0.0,0.0,0.0,0.0,0.0,0.0,0.0,0.0,0.0,0.0,0.0,0.0,0.0,0.0,0.0,0.0,0.0,0.0,0.0,0.0,0.0,0.0,0.0,0.0,0.0,0.0,0.0,0.0,0.0,0.0,0.0,0.0,0.0,0.0,0.0,0.0,0.0,0.0,2.741,2.7889,2.9026,2.9475,2.9894,0.0,0.0,0.0,0.0,0.0,0.0,0.0,0.0,0.0,3.525,3.5789,3.6237,3.672,3.7255,3.7704,3.7973,3.8362,3.8691,3.896,3.8661,3.8691,3.896,3.896,3.8302,3.7165,3.6118,3.5908,3.6148,0.0,0.0,0.0,0.0,3.4382,3.4053,0.0,0.0,0.0,0.0,0.0,0.0,0.0,0.0,0.0,0.0,0.0,0.0,2.1372,2.2474,2.3533,2.4592,2.5408,2.5608,2.5067,2.5877,0.0,2.6632,2.741,2.7919,2.8094,2.8906,3.0046,3.1511,3.2318,3.3006,3.3484,3.3484,3.3484,3.3484,3.3484,3.1569,2.8368,2.8517,2.7919,2.6811,0.0,0.0,0.0,0.0,0.0,0.0,0.0,0.0,0.0,0.0,0.0,0.0,0.0,0.0,0.0,0.0,0.0,0.0,0.0,0.0,0.0,0.0,0.0,0.0,0.0,0.0,0.0,0.0,0.0,0.0,0.0,0.0,0.0,0.0,0.0,0.0,0.0,2.8338,2.8846,3.0163,3.118,3.1779,0.0,0.0,0.0,0.0,0.0,0.0,3.5013,3.5342,3.6148,3.7614,3.7554,3.7943,3.8901,3.908,3.917,3.917,3.9679,3.9918,3.9918,3.9918,3.9918,3.9918,3.9918,3.9918,3.9828,3.8482,3.8093,3.8302,3.7345,3.7165,3.7315,3.6537,3.5908,3.5522,0.0,0.0,0.0,0.0,0.0,0.0,0.0,0.0,0.0,0.0,0.0,2.1147,2.2471,2.3636,2.4887,2.6325,2.6538,2.7062,2.8289,2.8427,2.8727,2.9382,3.0584,3.0673,2.9532,3.0731,3.1421,3.1511,3.2826,3.3455,3.3484,3.3484,3.3484,3.3484,3.3484,3.3365,3.3066,3.1809,3.0883,3.0103,2.8244,0.0,0.0,0.0,0.0,0.0,0.0,0.0,0.0,0.0,0.0,0.0,0.0,0.0,0.0,0.0,0.0,0.0,0.0,0.0,0.0,0.0,0.0,0.0,0.0,0.0,0.0,0.0,0.0,0.0,0.0,0.0,0.0,0.0,0.0,0.0,0.0,0.0,0.0,3.2437,3.4083,0.0,0.0,0.0,0.0,3.5459,3.6537,3.6956,3.6417,3.7524,3.8242,3.8332,3.9559,4.0217,4.0307,4.0905,4.1272,4.1272,4.1265,4.1294,4.1294,4.1294,4.1294,4.1294,4.1294,4.1294,4.1175,3.9858,3.896,3.8392,3.8332,3.7913,3.7494,3.8033,3.8212,3.8272,0.0,0.0,0.0,1.65,1.65,1.6701,1.7322,1.7677,1.8174,1.8896,2.0784,2.2698,2.4439,2.5604,2.7198,2.9569,2.9259,2.9405,3.0406,3.0464,3.0554,3.0793,3.1241,3.1481,3.148,3.2347,3.3006,3.3425,3.4352,3.4801,3.4801,3.4801,3.4801,3.4801,3.4801,3.4801,3.4711,3.3365,3.2138,3.1062,3.0374,2.8936,0.0,0.0,0.0,0.0,0.0,0.0,0.0,0.0,0.0,0.0,0.0,0.0,0.0,0.0,0.0,0.0,0.0,0.0,0.0,0.0,0.0,0.0,0.0,0.0,0.0,0.0,0.0,0.0,0.0,0.0,0.0,0.0,0.0,0.0,0.0,0.0,0.0,3.3694,3.516,0.0,3.6686,3.6956,3.7345,3.7973,3.8033,3.8332,3.896,3.9439,3.9888,4.0307,4.0786,4.1025,4.1025,4.1722,4.2051,4.2051,4.2432,4.2641,4.2641,4.2641,4.2641,4.2641,4.2641,4.2641,4.2581,4.1683,4.0943,4.0307,4.0307,4.0157,4.0008,4.0217,4.0038,3.9709,0.0,0.0,0.0,1.65,1.6651,1.6999,1.7576,1.8129,1.8782,1.971,2.1876,2.3985,2.5655,2.7333,2.9139,3.122,3.1189,3.1249,3.181,3.1839,3.1839,3.1839,3.2049,3.2587,3.3514,3.3724,3.4174,3.4863,3.5519,3.5848,3.5848,3.6058,3.6148,3.6148,3.6148,3.5908,3.5459,3.4801,3.3604,3.2138,3.1929,3.0913,2.9535,0.0,0.0,0.0,0.0,0.0,0.0,0.0,0.0,0.0,0.0,0.0,0.0,0.0,0.0,0.0,0.0,0.0,0.0,0.0,0.0,0.0,0.0,0.0,0.0,0.0,0.0,0.0,0.0,0.0,0.0,0.0,0.0,0.0,0.0,3.2796,3.3754,3.4444,3.6237,3.7554,3.7734,3.8153,3.8781,3.9679,3.9529,3.9798,4.0696,4.0726,4.1025,4.1722,4.1752,4.1833,4.2043,4.2462,4.2671,4.2701,4.312,4.329,4.329,4.329,4.329,4.329,4.329,4.329,4.326,4.288,4.2432,4.2013,4.1564,4.1422,4.1422,4.1422,4.1115,4.0726,0.0,0.0,1.65,1.65,1.6999,1.7576,1.8129,1.8657,1.9584,2.1267,2.323,2.4851,2.5981,2.8622,3.0558,3.1106,3.1957,3.2467,3.2527,3.2527,3.2497,3.2527,3.3185,3.4143,3.5459,3.4861,3.4861,3.5519,3.6178,3.6507,3.6537,3.7135,3.7404,3.7404,3.7404,3.6716,3.5609,3.6237,3.537,3.3514,3.2826,3.2138,3.1391,0.0,0.0,0.0,0.0,0.0,0.0,0.0,0.0,0.0,0.0,0.0,0.0,0.0,0.0,0.0,0.0,0.0,0.0,0.0,0.0,0.0,0.0,0.0,0.0,0.0,0.0,0.0,0.0,0.0,0.0,0.0,0.0,0.0,3.2916,3.4322,3.534,3.4773,3.7494,3.917,3.8542,3.9679,4.0427,4.0457,4.1055,4.1452,4.1482,4.1482,4.1782,4.241,4.244,4.2701,4.329,4.329,4.329,4.3319,4.3319,4.3319,4.3349,4.3349,4.3349,4.3349,4.3349,4.3349,4.3349,4.3319,4.3319,4.32,4.1953,4.1482,4.1482,4.1482,4.1482,4.1482,1.65,1.65,1.65,1.65,1.6999,1.7576,1.8129,1.8657,1.9584,2.1267,2.3737,2.5543,2.6016,2.8985,3.0818,3.0558,3.1176,3.1835,3.2437,3.2527,3.2736,3.3215,3.3844,3.4414,3.4773,3.5552,3.6028,3.6207,3.6836,3.7165,3.7165,3.7315,3.7404,3.7404,3.7404,3.7225,3.6896,3.7075,3.6297,3.4891,3.4203,3.3275,3.2228,0.0,0.0,0.0,0.0,0.0,0.0,0.0,0.0,0.0,0.0,0.0,0.0,0.0,0.0,0.0,0.0,0.0,0.0,0.0,0.0,0.0,0.0,0.0,0.0,0.0,0.0,0.0,0.0,0.0,0.0,0.0,3.534,3.5489,3.54,3.6237,3.7345,3.8631,3.917,3.9709,4.0487,4.0905,4.1362,4.1811,4.2021,4.2351,4.2761,4.2791,4.288,4.306,4.306,4.315,4.329,4.329,4.3529,4.4047,4.4047,4.4287,4.4766,4.4766,4.4766,4.4766,4.4766,4.4766,4.4706,4.4257,4.4047,4.3958,4.308,4.2791,4.2791,4.2791,4.2791,4.2791,1.65,1.65,1.6575,1.6848,1.735,1.7903,1.8431,1.8983,2.0011,2.192,2.3915,2.5445,2.6193,2.899,3.0666,3.0211,3.1404,3.2369,3.2886,3.3185,3.3514,3.3873,3.4562,3.504,3.5342,3.6088,3.6596,3.6866,3.7494,3.7823,3.7823,3.8123,3.8242,3.8242,3.8242,3.8093,3.7823,3.7823,3.7225,3.6237,3.5579,3.4532,3.3275,3.2826,3.2108,3.127,3.0524,3.0402,3.0342,2.9355,0.0,0.0,0.0,0.0,0.0,0.0,0.0,0.0,0.0,0.0,0.0,0.0,0.0,0.0,0.0,0.0,0.0,0.0,0.0,0.0,0.0,0.0,0.0,0.0,3.6896,3.7584,3.7704,3.8033,3.8691,3.9858,4.0127,4.0636,4.1722,4.1841,4.2111,4.2731,4.2761,4.294,4.326,4.329,4.329,4.329,4.3559,4.3708,4.3708,4.4018,4.4347,4.4736,4.4736,4.4915,4.5304,4.5304,4.5304,4.5304,4.5304,4.5304,4.5274,4.4885,4.4736,4.4616,0.0,0.0,0.0,0.0,4.329,4.329,1.6525,1.65,1.6697,1.7297,1.7827,1.8381,1.8933,1.9459,2.0589,2.2819,2.3846,2.494,2.635,2.8739,3.0156,2.991,3.199,3.3392,3.3484,3.4053,3.4444,3.4503,3.513,3.5818,3.6477,3.6567,3.6896,3.7524,3.8182,3.8512,3.8512,3.914,3.9373,3.9373,3.9373,3.908,3.8512,3.8512,3.8123,3.7464,3.6836,3.5789,3.4412,3.2617,3.2258,3.2407,3.0013,2.9924,3.0851,3.0133,0.0,0.0,0.0,0.0,0.0,0.0,0.0,0.0,0.0,0.0,0.0,0.0,0.0,0.0,0.0,0.0,0.0,0.0,0.0,0.0,0.0,0.0,0.0,0.0,3.8392,4.0127,3.9709,3.9709,3.9738,3.9649,4.0666,4.1662,4.2321,4.241,4.2641,4.323,4.329,4.3319,4.3409,4.3409,0.0,0.0,0.0,4.4436,4.4436,4.5005,4.5334,4.5394,4.5394,4.5454,4.5514,4.5514,4.5514,4.5514,4.5514,4.5514,4.5514,4.5514,4.5484,4.5274,4.4007,4.3529,4.3529,4.3529,4.3529,4.3529,1.6676,1.65,1.6697,1.7297,1.7827,1.8381,1.8933,1.9459,2.0589,2.2819,2.3846,2.494,2.635,2.863,2.9839,2.9228,3.1194,3.2742,3.3454,3.3604,3.3933,3.4474,3.513,3.5818,3.6477,3.6985,3.7554,3.8212,3.8901,3.923,3.923,3.9313,3.9373,3.9373,3.9373,3.9313,3.923,3.923,3.8841,3.8153,3.7494,3.6447,3.525,3.4891,3.4472,3.3994,3.2916,3.3036,3.3545,3.2347,3.2018,3.2108,3.1988,3.0941,0.0,0.0,0.0,0.0,0.0,0.0,0.0,0.0,0.0,0.0,0.0,0.0,0.0,0.0,0.0,0.0,0.0,0.0,0.0,3.8422,3.92,3.9948,4.0876,4.1482,4.1632,4.1055,4.1235,4.1662,4.2321,4.241,4.2641,4.323,4.329,4.3529,4.4107,4.4137,4.4377,4.4915,4.5035,4.5095,4.5095,4.5244,4.5574,4.6142,4.6142,0.0,4.692,4.692,4.692,4.692,4.692,4.692,4.692,4.692,4.6591,4.6052,4.5244,4.4915,4.4915,4.4915,4.4915,4.4915,1.7526,1.7328,1.7551,1.8103,1.8406,1.8782,1.9334,1.9635,2.0514,2.2443,2.308,2.3838,2.5099,2.7143,2.8184,2.7588,3.0108,3.2278,3.3651,3.3891,3.4292,3.4951,3.531,3.5968,3.6926,3.7255,3.7883,3.8901,3.926,3.9373,3.9373,3.9373,3.9373,3.9373,3.9373,3.9373,3.9373,3.9373,3.923,3.8841,3.8182,3.7315,3.6357,3.537,3.4981,3.4891,3.4233,3.4234,3.4354,3.3335,3.2796,3.2527,3.2527,3.1599,3.0432,0.0,0.0,0.0,0.0,0.0,0.0,0.0,0.0,0.0,0.0,0.0,0.0,0.0,0.0,3.531,3.6267,0.0,3.8272,3.926,4.0247,4.1115,4.1811,4.2201,4.2141,4.1482,4.1722,4.2051,4.2381,4.241,4.28,4.3748,4.3798,4.4107,4.4766,4.4796,4.4945,4.5274,4.5633,4.5813,4.5813,4.6142,4.6471,4.68,4.68,4.698,4.7309,4.7309,4.7309,4.7309,4.7309,4.7309,4.7309,4.7309,4.71,4.677,4.6441,4.5873,4.5304,4.5304,4.5304,4.5304,1.8606,1.8505,1.8631,1.8933,1.9008,1.9183,1.9736,1.9811,2.0363,2.1945,2.2146,2.2573,2.3703,2.5318,2.6369,2.6458,2.9115,3.1668,3.3725,3.382,3.4206,3.5169,3.5198,3.5763,3.6891,3.7242,3.8003,3.923,3.9349,3.9373,3.9373,3.9373,3.9373,3.9373,3.9373,3.9373,3.9373,3.9373,3.9373,3.9313,3.8542,3.7883,3.7195,3.537,3.5011,3.54,3.4711,3.4593,3.4593,3.3903,3.3425,3.3065,3.3065,3.2168,3.1091,3.1091,3.0821,0.0,0.0,0.0,0.0,0.0,0.0,0.0,0.0,3.2916,3.3155,3.5579,3.6178,3.6596,3.7614,3.8781,3.9679,3.9948,4.1205,4.2261,4.2381,4.2291,4.1961,4.1265,4.1692,4.2081,4.2201,4.2201,4.28,4.4197,4.4317,4.4676,4.5454,4.5484,4.5544,4.5693,4.6232,4.6459,4.6459,4.704,4.7309,4.7309,4.7309,4.7309,4.7309,4.7309,4.7309,4.7309,4.7309,4.7309,4.7309,4.7309,4.7309,4.7309,4.7309,4.6651,4.5693,4.5693,4.5693,4.5693,1.9635,1.9635,1.9484,1.9083,1.9008,1.9183,1.9736,1.9811,2.0238,2.1418,2.1568,2.1995,2.307,2.3896,2.5217,2.7517,2.8657,3.0375,3.3095,3.198,3.2083,3.4086,3.4177,3.4495,3.5224,3.6665,3.7764,3.8512,3.911,3.9373,3.9373,3.9373,3.9373,3.9373,3.9373,3.9373,3.9373,3.9373,3.9373,3.9284,3.8033,3.7464,3.7255,3.5908,3.5429,3.54,3.4711,3.4861,3.528,3.4592,3.4711,3.516,3.516,3.4233,3.3155,3.3155,3.1898,3.0462,3.0223,3.0823,3.178,3.2976,3.3215,3.3814,0.0,3.6387,3.6327,3.7764,3.8542,3.8985,3.9134,3.9798,4.0666,4.1871,4.1752,4.1722,4.2321,4.1901,4.1235,4.0576,4.0576,4.0846,4.1482,4.1542,4.2282,4.4167,4.4317,4.4855,4.6142,4.6202,4.6471,4.707,4.716,4.7189,4.7189,4.7279,4.7309,4.7309,4.7309,4.7309,4.7309,4.7309,4.7309,4.7309,4.7309,4.7309,4.7309,4.7309,4.7309,4.7309,4.7309,4.7219,4.707,4.707,4.707,4.707,1.9811,1.9811,1.9736,1.9484,1.9484,1.956,1.9761,1.9811,2.0087,2.0943,2.1043,2.1345,2.2096,2.2975,2.4311,2.6385,2.7305,2.86,3.0449,3.0709,3.1388,3.2664,3.3023,3.3747,3.4969,3.5671,3.6591,3.7823,3.8482,3.8811,3.8841,3.923,3.9373,3.9373,3.9373,3.92,3.8811,3.8811,3.8601,3.8212,3.7644,3.7195,3.6806,3.6267,3.5848,3.54,3.4711,3.4412,0.0,3.3993,3.3844,3.3903,3.4651,3.4262,3.3425,3.3036,3.2617,3.2317,3.2706,3.2736,3.3095,3.4801,3.525,3.5609,3.7075,3.6926,3.6956,3.8631,3.92,3.9649,4.0427,4.1085,4.1752,4.2321,4.2171,4.2081,4.2351,4.1512,4.0846,4.0965,4.0636,4.0666,4.1324,4.2073,4.318,4.4766,4.5244,4.5903,4.683,4.689,4.701,4.7309,4.7309,4.7309,4.7309,4.7309,4.7309,4.7309,4.7309,4.7309,4.7309,4.7309,4.7309,4.7309,4.7309,4.7309,4.7309,4.7309,4.7309,4.7309,4.7309,4.7309,4.7309,4.7309,4.7309,4.7309,1.9811,1.9811,1.9811,1.9811,1.9811,1.9811,1.9811,1.9811,1.9962,2.039,2.044,2.0666,2.1219,2.2246,2.3371,2.4582,2.5666,2.6856,2.8186,2.9107,3.0086,3.1123,3.1689,3.253,3.3684,3.4306,3.5193,3.6353,3.7275,3.7742,3.7742,3.8525,3.8871,3.8871,3.8871,3.8601,3.8123,3.8123,3.7853,3.7404,3.7225,3.6896,3.6477,3.6297,3.5908,3.5429,3.4951,3.4442,3.4083,3.4262,3.3754,3.3245,3.4412,3.4053,3.3215,3.3095,3.3514,3.4203,3.4893,3.4681,3.4711,3.6327,3.6746,3.6896,3.7524,3.7494,3.7764,3.9349,3.9828,4.0307,4.1482,4.2081,4.244,4.265,4.2351,4.2141,4.2141,4.0965,4.0367,4.1025,4.0846,4.0935,4.1632,4.2671,4.3868,4.5185,4.5933,4.6621,4.7279,4.7309,4.7309,4.7309,4.7309,4.7309,4.7309,4.7309,4.7399,4.7578,4.7578,4.7668,4.7848,4.7848,4.7848,4.7848,4.7848,4.7848,4.7848,4.7848,4.7728,4.7578,4.7578,4.7459,4.7309,4.7309,4.7309,4.7309,1.9811,1.9811,1.9811,1.9811,1.9811,1.9811,1.9811,1.9811,1.9811,1.9836,1.9836,2.0062,2.0666,2.1669,2.2347,2.2397,2.3904,2.5512,2.7051,2.6804,2.7524,2.946,3.013,3.051,3.0546,3.26,3.3651,3.3715,3.5275,3.6086,3.6086,3.7055,3.7464,3.7464,3.7464,3.7464,3.7434,3.7434,3.7434,3.7345,3.6746,3.6507,3.6417,3.5789,3.5519,3.5519,3.5489,3.5459,3.5549,3.6178,3.5552,3.4563,3.525,3.4143,3.2796,3.4053,3.4891,3.5579,3.6237,3.6417,3.6537,3.7225,3.7375,3.7554,3.8212,3.8871,3.9493,4.0217,4.0876,4.1572,4.2231,4.2381,4.262,4.317,4.2252,4.1452,4.1452,4.0277,3.9679,4.0337,4.0965,4.1662,4.2291,4.294,4.3868,4.5185,4.5933,4.6621,4.7279,4.7309,4.7309,4.7309,4.7309,4.7309,4.7309,4.7309,4.7638,4.8267,4.8267,4.8596,4.9239,4.9239,4.9239,4.9239,4.9239,4.9239,4.9239,4.9239,4.888,4.8267,4.8267,4.7878,4.7309,4.7309,4.7309,4.7309,1.9811,1.9811,1.9811,1.9811,1.9811,1.9811,1.9811,1.9811,1.9811,1.9811,2.0137,0.0,0.0,0.0,0.0,0.0,2.2623,2.3376,2.3859,2.5152,2.6207,2.6867,2.817,2.9186,2.9804,3.0904,3.1784,3.2422,3.3744,3.4393,3.443,3.5208,3.5552,3.5552,3.6164,3.6213,3.5833,3.651,3.6537,3.6088,3.5429,3.5192,3.5222,3.5429,3.522,3.4951,0.0,3.5878,3.5549,3.5759,3.5549,3.528,3.5938,3.5699,3.525,3.5669,3.5669,3.5639,3.6297,3.6776,3.7255,3.7913,3.8392,3.8901,3.9559,3.9918,4.0367,4.1512,4.1572,4.1602,4.2291,4.241,4.247,4.2641,4.2351,4.1931,4.1482,4.0636,4.0307,4.0965,4.1235,4.1803,4.291,4.3988,4.4825,4.5274,4.6352,4.707,4.7309,4.7309,4.7309,4.7309,4.7309,4.7519,4.7967,4.7967,4.8297,4.897,4.897,4.909,4.9299,4.9299,4.9299,4.9299,4.9299,4.9299,4.9299,4.9299,4.9179,4.897,4.897,4.885,4.864,4.864,4.864,4.8476,1.9811,1.9811,1.9811,1.9811,1.9811,0.0,0.0,0.0,0.0,0.0,0.0,0.0,0.0,0.0,0.0,0.0,0.0,2.202,2.202,2.3527,2.4607,2.5008,2.644,2.7611,2.8395,2.9175,2.9853,3.0502,3.1585,3.2145,3.2145,3.2952,3.3326,3.3362,3.4247,3.4398,3.4057,3.5011,3.5579,3.5729,3.4322,3.4352,3.5162,3.4622,3.4292,0.0,3.5639,3.5878,3.5579,3.6028,3.5878,3.5609,3.6267,3.6148,3.5908,3.6596,3.6507,3.6387,3.7285,3.7823,3.8302,3.8931,3.9439,3.9948,4.0606,4.0935,4.1354,4.2231,4.2081,4.1901,4.2321,4.241,4.241,4.241,4.241,4.2261,4.1841,4.1175,4.0995,4.1692,4.1782,4.2162,4.32,4.4526,4.5304,4.5304,4.6531,4.7309,4.7309,4.7309,4.7429,4.7638,4.7668,4.7967,4.8626,4.8626,4.8955,4.9613,4.9853,4.9972,4.9972,4.9972,4.9972,4.9972,4.9972,4.9972,4.9972,4.9972,4.9823,4.9613,4.9613,4.9464,4.9299,4.9299,4.9299,4.9179,1.9811,1.9811,1.9811,0.0,0.0,0.0,0.0,0.0,0.0,0.0,0.0,0.0,0.0,0.0,0.0,0.0,0.0,0.0,2.1393,2.1945,2.2749,2.3828,2.4908,2.5737,2.6348,2.7394,2.7971,2.8021,2.8905,2.9337,2.9425,3.0344,3.0782,3.0815,3.1606,3.199,3.2054,3.2964,3.444,3.5965,3.3424,3.3933,3.5908,3.3425,3.2826,3.3514,3.4891,3.54,3.5579,3.6836,3.6447,3.5579,3.6357,3.5699,3.5102,3.6985,3.7524,3.7793,3.9044,3.9439,3.9619,4.0247,4.0427,4.0636,4.1294,4.1961,4.241,4.244,4.241,4.241,4.244,4.241,4.241,4.244,4.244,4.244,4.241,4.1871,4.1692,4.2321,4.241,4.2611,4.323,4.4526,4.5304,4.5304,4.6531,4.7309,4.7309,4.7339,4.7638,4.8267,4.8327,4.8656,4.9359,4.9389,4.9673,5.0255,5.0883,5.1229,5.1229,5.1229,5.1229,5.1229,5.1229,5.1229,5.1229,5.1229,5.0794,5.0255,5.0255,4.9912,4.9419,4.9419,4.9419,4.9419,0.0,0.0,0.0,0.0,0.0,0.0,0.0,0.0,0.0,0.0,0.0,0.0,0.0,0.0,0.0,0.0,0.0,0.0,2.0238,2.1167,2.182,2.2121,2.3175,0.0,2.4607,2.531,2.6063,2.6927,2.7145,2.7487,2.786,2.7713,2.7669,2.7678,2.8591,2.9018,2.9084,3.0575,3.1477,3.1889,0.0,3.142,3.2018,3.1809,3.154,3.1509,3.3335,3.3993,3.4143,3.4951,3.5011,3.51,3.7225,3.7674,3.7674,3.92,3.929,3.8955,3.932,3.9768,4.0187,4.0367,4.0756,4.1294,4.1991,4.2291,4.253,4.3,4.2701,4.256,4.3,4.2671,4.256,4.3,4.309,4.291,4.247,4.2261,4.2201,4.2381,4.241,4.2611,4.323,4.4526,4.5304,4.5304,4.6531,4.7309,4.7309,4.7758,4.8117,4.8267,4.8745,4.9344,4.9972,5.0481,5.081,5.0913,5.1139,5.1229,5.1229,5.1229,5.1229,5.1229,5.1229,5.1229,5.1229,5.1229,5.1109,5.0913,5.0913,5.087,5.072,5.072,5.072,5.072,0.0,0.0,0.0,0.0,0.0,0.0,0.0,0.0,0.0,0.0,0.0,0.0,0.0,0.0,0.0,0.0,0.0,0.0,0.0,2.0388,2.0865,2.1144,2.2196,2.302,2.3572,2.4374,2.5008,2.5418,0.0,0.0,2.5837,2.5762,2.5737,2.5803,2.6707,2.7099,2.7195,2.8507,0.0,0.0,0.0,0.0,0.0,0.0,2.9744,2.9804,3.0941,3.1426,3.1807,3.3465,3.4815,3.6058,3.7823,3.8003,3.7883,3.9499,3.9499,3.902,3.9313,3.9888,4.0457,4.0756,4.1115,4.1602,4.2261,4.2171,4.2081,4.2402,4.1953,4.1713,4.2372,4.2192,4.2201,4.2791,4.315,4.317,4.2851,4.2791,4.288,4.318,4.297,4.315,4.4107,4.4855,4.5424,4.5723,4.6711,4.7429,4.7728,4.8087,4.8566,4.9134,4.9494,5.0002,5.0614,5.0973,5.1229,5.1229,5.1229,5.1229,5.1229,5.1229,5.1229,5.1229,5.1229,5.1229,5.1229,5.1229,5.1229,5.1229,5.1229,5.1229,5.1229,5.1229,5.1229,5.1105,0.0,0.0,0.0,0.0,0.0,0.0,0.0,0.0,0.0,2.0112,1.9936,1.9811,1.9811,1.9811,0.0,0.0,0.0,0.0,0.0,0.0,2.0037,2.0566,2.1468,2.2217,2.2769,2.3747,2.4104,2.3778,2.4255,2.428,0.0,0.0,0.0,0.0,0.0,0.0,0.0,0.0,0.0,0.0,0.0,0.0,0.0,0.0,0.0,2.8114,2.8267,2.8812,2.9837,3.251,3.4865,3.6875,3.7938,3.7494,3.6956,3.8573,3.8823,3.8626,3.905,3.9778,4.0546,4.1115,4.1324,4.1542,4.2021,4.1841,4.1542,4.1422,4.1055,4.0965,4.1534,4.1504,4.1615,4.2306,4.2733,4.3071,4.318,4.327,4.3529,4.4227,4.3768,4.3917,4.5185,4.5364,4.5693,4.6249,4.701,4.7698,4.8267,4.8356,4.9015,5.0285,5.0315,5.0584,5.1199,5.1229,5.1229,5.1229,5.1229,5.1229,5.1229,5.1229,5.1229,5.1229,5.1229,5.1229,5.1229,5.1229,5.1229,5.1229,5.1229,5.1229,5.1182,5.1011,5.0917,5.0745,0.0,0.0,0.0,0.0,0.0,0.0,0.0,0.0,0.0,0.0,2.0665,1.9811,0.0,0.0,0.0,0.0,0.0,0.0,0.0,0.0,0.0,1.9936,2.0137,2.0514,2.1119,2.132,2.1823,2.2598,2.2698,2.2895,0.0,0.0,0.0,0.0,0.0,0.0,0.0,0.0,0.0,0.0,0.0,0.0,0.0,0.0,0.0,0.0,2.6504,2.8668,3.1338,3.2879,3.3238,3.3569,3.6599,3.7434,3.7233,3.7252,3.8193,3.9079,3.8264,3.9202,4.0427,4.0546,4.0965,4.1265,4.0846,4.1542,4.2081,4.1542,4.2162,4.2811,4.2931,4.2102,4.1614,4.2295,4.201,4.1902,4.2498,4.2983,4.3529,4.4227,4.4227,4.4436,4.5214,4.5813,4.616,4.6279,4.7429,4.8177,4.8267,4.885,4.9703,5.102,5.105,5.1063,5.1229,5.1229,5.1229,5.1229,5.1229,5.1229,5.1229,5.1229,5.1229,5.1229,5.1229,5.1229,5.1229,5.1229,5.1229,5.1229,5.1229,5.1229,5.1058,4.9969,4.9582,4.9357,0.0,0.0,0.0,0.0,0.0,0.0,0.0,2.1265,2.1719,2.3371,2.315,2.2372,2.1242,2.0338,1.9811,0.0,0.0,0.0,0.0,0.0,0.0,0.0,0.0,0.0,0.0,2.0968,2.1245,2.1468,0.0,2.187,2.187,2.2146,2.2272,2.2272,2.2272,2.2272,2.2272,2.2674,0.0,2.2879,2.3339,2.35,0.0,0.0,0.0,0.0,2.3747,2.5549,2.7905,2.9603,3.066,3.1985,3.6497,3.7534,3.7067,3.6859,3.8018,3.9053,3.7405,3.8237,3.9496,3.9207,3.9406,3.9737,3.9954,4.0217,4.0439,4.0375,4.0876,4.1376,4.1743,4.1025,4.0688,4.1714,4.1605,4.1611,4.2302,4.2911,4.3529,4.4227,4.4317,4.4706,4.5723,4.6142,4.6429,4.68,4.7728,4.8446,4.882,4.9733,5.0571,5.1199,5.1229,5.1229,5.1229,5.1229,5.1229,5.1229,5.1229,5.1229,5.1229,5.1229,5.1229,5.1229,5.1229,5.1229,5.1229,5.1229,5.1229,5.1229,5.1229,5.0745,5.0095,4.9455,4.8738,4.7909,0.0,0.0,0.0,0.0,0.0,0.0,0.0,2.2669,2.3195,2.5227,2.5561,2.4933,2.3201,2.1518,2.0338,0.0,0.0,0.0,0.0,0.0,0.0,0.0,0.0,0.0,0.0,0.0,0.0,2.0515,2.1069,0.0,0.0,0.0,0.0,0.0,2.1493,2.1493,2.1493,2.1493,2.1493,0.0,0.0,2.2192,0.0,0.0,0.0,0.0,0.0,2.2723,2.4476,2.6409,2.8359,3.0797,3.5404,3.6677,3.6456,3.6344,3.7626,3.8642,3.6742,3.7473,3.8635,3.8103,3.8021,3.8145,3.8575,3.8703,3.8659,3.867,3.9056,3.9499,3.9709,3.9439,3.9457,4.021,4.0696,4.1219,4.1911,4.2634,4.3419,4.4227,4.4436,4.5005,4.616,4.6441,4.6741,4.7279,4.8027,4.8775,4.9434,5.0571,5.1229,5.1229,5.1229,5.1229,5.1229,5.1229,5.1229,5.1229,5.1229,5.1229,5.1229,5.1229,5.1229,5.1229,5.1229,5.1229,5.1229,5.1229,5.1011,5.0745,5.0745,4.9921,4.8688,4.8389,4.7605,4.6449,0.0,0.0,0.0,0.0,0.0,0.0,0.0,2.2744,2.4173,2.7394,2.6515,2.5511,2.531,2.3797,2.1992,0.0,0.0,0.0,0.0,0.0,0.0,0.0,0.0,0.0,0.0,0.0,0.0,1.9886,2.049,0.0,0.0,0.0,0.0,0.0,0.0,2.1493,2.1493,2.1493,0.0,0.0,0.0,0.0,0.0,0.0,0.0,0.0,0.0,2.2829,2.4668,2.6007,2.7455,2.905,3.1132,3.3477,3.5322,3.4861,3.6251,3.7729,3.6596,3.7469,3.8596,3.802,3.7937,3.7538,3.6041,3.7229,3.8246,3.6642,3.7942,3.908,3.7883,3.8123,3.8163,3.7131,3.8422,3.9847,4.0556,4.1705,4.291,4.4167,4.4855,4.5514,4.6219,4.686,4.7249,4.7309,4.8476,4.9464,5.0076,5.084,5.1229,5.1229,5.1229,5.1229,5.1229,5.1229,5.1229,5.1229,5.1229,5.1229,5.1229,5.1229,5.1229,5.1229,5.1229,5.1229,5.1229,5.1229,5.0508,4.9357,4.9357,4.8539,4.7146,4.5872,4.5289,4.4994,0.0,0.0,0.0,0.0,0.0,0.0,2.2975,2.292,2.3954,2.762,2.7519,2.6866,2.6223,2.5209,2.3326,2.0087,0.0,0.0,0.0,0.0,0.0,0.0,0.0,0.0,0.0,0.0,1.9811,1.9811,2.0037,0.0,0.0,0.0,0.0,0.0,0.0,2.0489,2.0489,2.0489,0.0,0.0,0.0,0.0,0.0,0.0,0.0,0.0,0.0,0.0,2.2818,2.3661,2.5183,2.6976,2.8386,3.0036,3.1677,3.2712,3.4838,3.6563,3.5253,3.6029,3.7133,3.6586,3.5722,3.501,3.4955,3.5125,3.5183,3.4973,3.5898,3.6488,3.5619,3.6145,3.6442,3.5825,3.7464,3.9324,4.0831,4.1831,4.289,4.4167,4.4885,4.5394,4.5663,4.6681,4.7638,4.8416,4.903,4.9733,5.078,5.1079,5.1229,5.1229,5.1229,5.1229,5.1229,5.1229,5.1229,5.1229,5.1229,5.1229,5.1229,5.1229,5.1229,5.1229,5.1229,5.1229,5.1229,5.1229,5.0383,4.921,4.921,4.7808,4.5767,4.5209,4.4481,4.3713,0.0,0.0,0.0,0.0,0.0,2.0639,2.3125,2.31,2.3979,2.7193,2.762,2.7318,2.6575,2.5393,2.3527,2.079,2.0087,0.0,0.0,0.0,0.0,0.0,0.0,0.0,0.0,0.0,1.9811,1.9811,1.9811,1.9811,0.0,0.0,1.9811,1.9811,0.0,0.0,0.0,0.0,0.0,0.0,0.0,0.0,0.0,0.0,0.0,0.0,0.0,0.0,0.0,0.0,0.0,2.5034,2.6013,2.7168,2.8722,3.1293,3.3554,3.5063,3.4346,3.5087,3.594,3.5426,3.4173,3.3182,3.3638,3.3053,3.2519,3.2737,3.3539,3.3926,3.3092,3.4182,3.499,3.4399,3.662,3.8871,4.0307,4.1602,4.283,4.3898,4.4796,4.5364,4.5574,4.6651,4.7848,4.9209,4.9299,4.9853,5.1139,5.1229,5.1229,5.1229,5.1229,5.1229,5.1229,5.1229,5.1229,5.1229,5.1229,5.1229,5.1229,5.1229,5.0964,5.0603,5.0603,5.0383,5.0017,5.046,4.9582,4.8038,4.8439,4.6888,4.4427,4.4427,4.3797,4.2986,0.0,0.0,0.0,0.0,0.0,0.0,2.2071,2.3276,2.4582,2.6298,2.6524,2.6499,2.6499,2.4004,2.2322,2.2297,2.0765,0.0,0.0,0.0,0.0,0.0,0.0,0.0,0.0,0.0,1.9811,1.9811,1.9811,1.9811,1.9811,1.9811,1.9811,1.9811,0.0,0.0,0.0,0.0,0.0,0.0,0.0,0.0,0.0,0.0,0.0,0.0,0.0,0.0,0.0,0.0,0.0,0.0,0.0,2.5192,2.7278,3.106,3.2607,3.3263,3.4407,3.5113,3.5381,3.4844,3.3897,3.2835,3.1703,3.1332,3.0913,2.9786,3.0993,3.1775,3.0285,3.2481,3.401,3.2478,3.5706,3.8392,3.8422,4.0733,4.265,4.3329,4.4526,4.5574,4.6262,4.692,4.7848,4.9209,4.9299,4.9853,5.1139,5.1229,5.1229,5.1229,5.1229,5.1229,5.1229,5.1229,5.1229,5.1229,5.1229,5.1229,5.1229,5.1229,5.0508,4.921,4.921,4.8439,4.7248,4.8646,4.7582,4.5209,4.6578,4.5449,4.3042,4.3042,4.3042,4.2986,0.0,0.0,0.0,0.0,0.0,0.0,0.0,2.1142,2.187,2.3929,2.3853,2.4054,2.5209,2.3527,2.2322,2.2322,2.0765,0.0,0.0,0.0,0.0,0.0,0.0,0.0,0.0,0.0,1.9987,2.0415,2.0415,2.0415,2.0415,2.0415,2.0214,1.9811,1.9811,1.9811,0.0,0.0,0.0,0.0,0.0,0.0,0.0,0.0,0.0,0.0,0.0,0.0,0.0,0.0,0.0,0.0,0.0,0.0,0.0,2.8147,3.0011,3.1425,3.1795,3.2566,3.3131,3.2575,3.1336,3.0156,2.9779,2.8808,2.7945,2.7742,2.8925,2.9692,2.8621,3.0861,3.2789,3.2647,3.536,3.8157,4.0173,4.089,4.1869,4.3787,4.4002,4.4095,4.4351,4.5393,4.6557,4.7887,4.8816,4.9853,5.1139,5.1229,5.1229,5.1229,5.1229,5.1229,5.1229,5.1229,5.1229,5.1229,5.1229,5.1229,5.1182,5.0239,4.963,4.9161,4.8189,4.7503,4.7146,4.7582,4.6657,4.5048,4.5502,4.4589,4.2986,4.2986,4.2986,4.2986,0.0,0.0,0.0,0.0,0.0,0.0,0.0,2.0239,2.0639,2.202,2.1895,2.2322,2.3973,2.2498,2.1619,2.2246,2.0765,0.0,0.0,0.0,0.0,0.0,0.0,0.0,1.9811,2.0012,2.0514,2.132,2.1747,2.1948,2.1948,2.2146,2.1594,2.0439,2.0439,2.0188,0.0,0.0,0.0,0.0,0.0,0.0,1.9811,0.0,0.0,0.0,0.0,0.0,0.0,0.0,0.0,0.0,0.0,0.0,0.0,0.0,2.7469,2.9227,3.008,3.0783,3.121,3.0884,2.9704,2.8624,2.8624,2.767,2.6839,2.7033,2.8469,2.9433,2.8538,3.076,3.2911,3.362,3.5543,3.7758,4.0038,4.036,4.1097,4.3066,4.3241,4.3223,4.3488,4.4627,4.5982,4.7297,4.8558,4.9853,5.1139,5.0698,5.046,5.046,5.0964,5.0964,5.046,5.046,5.0191,4.9679,4.9679,4.9679,4.963,4.8787,4.8139,4.7554,4.6682,4.603,0.0,4.6135,4.5502,4.4318,4.4779,4.4155,4.2986,4.2986,4.2986,4.2986,0.0,0.0,0.0,0.0,0.0,0.0,0.0,2.0289,2.0641,2.0641,2.0641,2.1219,2.2694,2.1041,2.0439,2.1995,0.0,0.0,0.0,0.0,0.0,0.0,0.0,0.0,1.9861,2.049,2.1345,2.2372,2.3477,2.4029,2.4079,2.4632,2.3728,2.1669,2.1568,2.0891,1.9811,0.0,0.0,0.0,1.9811,1.9811,0.0,0.0,0.0,0.0,0.0,0.0,0.0,0.0,0.0,0.0,0.0,0.0,0.0,0.0,0.0,0.0,0.0,2.9528,2.9603,2.9603,2.8825,2.8047,2.8097,2.767,0.0,2.7293,2.9098,3.0405,2.9635,3.1715,3.3949,3.5078,3.6151,3.7315,3.8585,3.9396,4.0311,4.1315,4.2039,4.2692,4.3211,4.4396,4.5677,4.7032,4.8328,4.964,5.0999,4.9776,4.9112,4.921,5.0287,5.0335,4.921,4.9112,4.8439,4.7248,4.7146,4.7094,4.7094,4.6991,4.6213,4.4994,4.4887,4.418,4.3073,4.4318,4.4126,4.3129,4.4372,4.4126,4.2986,4.2986,4.2986,4.2986,0.0,0.0,0.0,0.0,0.0,0.0,0.0,0.0,0.0,0.0,2.0012,2.0162,2.0539,2.0112,1.9962,0.0,0.0,0.0,0.0,0.0,0.0,0.0,0.0,0.0,2.049,2.1418,2.2272,2.292,2.3653,2.4205,2.46,2.5159,2.4707,2.3376,2.2498,2.1267,1.9811,1.9811,0.0,0.0,1.9811,1.9811,0.0,0.0,0.0,0.0,1.9811,1.9811,0.0,0.0,0.0,0.0,0.0,0.0,0.0,0.0,2.4582,2.531,2.5803,0.0,2.7871,2.7871,2.767,2.7595,0.0,2.767,2.7293,2.7293,2.8231,2.9137,2.9442,3.1063,3.309,3.5471,3.6307,3.7288,3.9169,3.9695,3.9617,3.8933,3.979,4.0531,4.0616,4.1739,4.2981,4.4269,4.5496,4.723,4.9543,4.8339,4.8088,4.9161,4.8439,4.8439,4.921,4.8139,4.7959,4.8688,4.7605,4.7094,4.7043,4.5978,4.5289,4.4941,4.3907,4.3295,4.3042,4.3351,4.3295,4.3042,4.3351,4.3295,4.2986,4.2986,4.2986,4.2986,0.0,0.0,0.0,0.0,0.0,0.0,0.0,0.0,0.0,0.0,0.0,0.0,0.0,0.0,0.0,0.0,0.0,0.0,0.0,0.0,0.0,0.0,0.0,2.1343,2.1069,2.2372,2.3477,2.4255,2.5109,2.5787,2.6339,2.6364,2.5661,2.4305,2.2397,2.1041,2.0188,1.9911,1.9811,1.9811,1.9811,0.0,0.0,0.0,0.0,0.0,1.9811,1.9811,0.0,2.049,2.0867,2.1169,0.0,0.0,0.0,0.0,2.3803,2.4431,2.4431,2.546,2.6515,2.6515,2.6892,2.7369,2.767,2.7896,2.8047,2.8047,0.0,3.0487,3.0639,3.2607,3.4762,3.6318,3.6731,3.715,3.8055,3.8436,3.8501,3.8037,3.8809,3.9468,3.9648,4.0844,4.2066,4.3279,4.4552,4.6172,4.8104,4.6888,4.6474,4.7248,4.5925,4.5872,4.7248,4.6526,4.624,4.6317,4.5555,4.5209,4.5209,4.4427,4.4071,4.4071,4.3351,4.2986,4.2986,4.2986,4.2986,4.2986,4.2986,4.2986,4.2986,4.2986,4.2986,4.2986,0.0,0.0,0.0,0.0,0.0,0.0,0.0,0.0,0.0,0.0,0.0,0.0,0.0,0.0,0.0,0.0,0.0,0.0,0.0,0.0,0.0,0.0,0.0,2.1769,2.187,2.3527,2.4782,2.5586,2.6892,2.777,2.8222,2.7921,2.6816,2.4958,2.2246,2.0968,2.0767,2.0087,1.9811,1.9811,1.9811,0.0,0.0,0.0,0.0,0.0,0.0,0.0,0.0,2.039,2.0867,2.1242,2.1343,0.0,0.0,0.0,0.0,0.0,2.3979,2.4908,2.5862,2.5862,2.6565,2.7379,2.7595,2.8398,2.9038,2.9139,3.092,3.245,3.2409,3.4648,3.6674,3.7137,3.7208,3.6985,3.648,3.6835,3.7387,3.7939,3.8517,3.9094,3.9647,4.072,4.1896,4.2995,4.4154,4.543,4.673,4.5449,4.4779,4.4994,4.3713,4.3547,4.4671,4.4671,4.4209,4.3295,4.3073,4.2986,4.2986,4.2986,4.2986,4.2986,4.2986,4.2986,4.2986,4.2986,4.2986,4.2986,4.2986,4.2986,4.2986,4.2986,4.2986,4.2986,0.0,0.0,0.0,0.0,0.0,0.0,0.0,0.0,0.0,0.0,0.0,0.0,0.0,0.0,0.0,0.0,0.0,0.0,0.0,0.0,0.0,0.0,2.2046,2.307,2.3602,2.5267,2.5946,2.5586,2.767,2.8687,2.8787,2.9704,2.8699,2.6147,2.3778,2.2246,2.1292,2.0238,1.9811,1.9811,1.9811,0.0,0.0,0.0,0.0,0.0,0.0,0.0,0.0,1.9911,1.9987,2.0137,2.0666,0.0,0.0,0.0,0.0,0.0,2.3879,2.5485,2.7017,2.7017,2.7143,2.7645,2.9076,2.9528,2.9804,3.0256,3.0676,3.1592,3.3732,3.4264,3.5105,3.7322,3.7411,3.6985,3.648,3.6835,3.7387,3.7939,3.8517,3.9094,3.9647,4.0307,4.0942,4.1575,4.2271,4.3429,4.5209,4.4071,4.3797,4.4941,4.3713,4.3073,4.3295,4.3295,4.3742,4.4671,4.3547,4.2986,4.2986,4.2986,4.2986,4.2986,4.2986,4.2986,4.2986,4.2986,4.2986,4.2986,4.2986,4.2986,4.2986,4.2986,4.2986,4.2986,0.0,0.0,0.0,0.0,0.0,0.0,0.0,0.0,0.0,0.0,0.0,0.0,0.0,0.0,0.0,0.0,0.0,0.0,0.0,0.0,0.0,2.2397,2.2598,2.31,2.3979,2.5946,2.7067,2.7394,2.9026,2.998,3.0256,2.988,2.8373,2.5946,2.3948,2.2669,2.1845,2.0413,1.9811,1.9811,0.0,0.0,0.0,0.0,0.0,0.0,0.0,0.0,0.0,0.0,2.0289,2.0339,2.0616,0.0,0.0,0.0,0.0,0.0,2.4205,2.5184,2.6314,2.7795,2.9076,3.008,3.0557,3.1135,3.1537,3.1486,3.1964,3.2743,3.3947,3.4736,3.5739,3.7245,3.7067,3.6807,3.6857,3.7287,3.7713,3.7965,3.8517,3.8843,3.8793,3.9295,3.9848,4.04,4.0953,4.1749,4.2928,4.2743,4.284,4.3444,4.3174,4.2986,4.2986,4.2986,4.3295,4.3907,4.3295,4.2986,4.2986,4.2986,4.2986,4.2986,4.2986,4.2986,4.2986,4.2986,4.2986,4.2986,4.2986,4.2986,4.2936,4.269,4.259,4.2539,0.0,0.0,0.0,0.0,0.0,0.0,0.0,0.0,0.0,0.0,0.0,0.0,0.0,0.0,0.0,0.0,0.0,0.0,0.0,0.0,2.084,2.3125,2.2623,2.3201,2.5109,2.6816,2.8222,2.9289,3.0708,3.1461,3.1537,2.9905,2.8072,2.6113,2.4424,2.3321,2.2598,2.0916,2.0137,1.9987,0.0,0.0,0.0,0.0,0.0,0.0,0.0,0.0,0.0,0.0,0.0,0.0,0.0,0.0,0.0,2.1619,2.2372,2.3547,2.4675,2.5352,2.633,2.8687,3.0342,3.1461,3.1562,3.224,3.2867,3.2817,3.3395,3.4048,3.4575,3.5705,3.6707,3.6983,3.6782,3.6757,3.7136,3.7663,3.8015,3.8015,3.8391,3.8492,3.804,3.8642,3.9245,3.9672,4.0325,4.0902,4.125,4.1731,4.1957,4.1957,4.2384,4.2585,4.2585,4.2585,4.271,4.2986,4.2986,4.2986,4.2986,4.2986,4.2986,4.2986,4.2986,4.2986,4.2961,4.2836,4.2785,4.2816,4.2635,4.2585,4.2534,4.2108,4.1957,4.1907,0.0,0.0,0.0,0.0,0.0,0.0,0.0,0.0,0.0,0.0,0.0,0.0,0.0,0.0,0.0,0.0,0.0,0.0,0.0,0.0,2.0137,2.0893,2.182,2.4249,2.8436,2.8687,2.9314,3.0507,3.2616,3.3144,3.2114,3.0482,2.9076,2.7846,2.6163,2.4858,2.3778,2.2071,2.1094,2.0591,2.0012,0.0,0.0,0.0,0.0,0.0,0.0,0.0,0.0,0.0,0.0,0.0,0.0,0.0,2.1543,2.1493,2.2648,2.418,2.5259,2.7042,2.8888,3.0142,2.979,2.964,3.1687,3.2215,3.2717,3.4223,3.4198,3.4525,3.6558,3.7036,3.696,3.6556,3.6857,3.7136,3.7186,3.7663,3.8015,3.8015,3.804,3.804,3.8015,3.8994,3.9647,3.9697,4.0676,4.125,4.1275,4.1326,4.1351,4.1351,4.1376,4.1401,4.1401,4.1401,4.1957,4.2986,4.2986,4.2986,4.2986,4.2986,4.2986,4.2986,4.2986,4.2986,4.2936,4.2489,4.2263,4.2213,4.1656,4.1401,4.1401,4.1351,4.1351,4.1351,0.0,0.0,0.0,0.0,0.0,0.0,0.0,0.0,0.0,0.0,0.0,0.0,0.0,0.0,0.0,0.0,0.0,0.0,0.0,0.0,2.0514,2.2121,2.1945,2.3879,2.8323,2.9101,3.0357,3.2139,3.3319,3.3144,3.1687,3.0733,2.9327,2.7544,2.66,2.5134,2.3376,2.2046,2.0966,2.0112,1.9886,1.9811,0.0,0.0,0.0,0.0,0.0,0.0,0.0,0.0,1.9811,1.9811,1.9811,2.0589,2.1493,2.1493,2.2924,2.4833,2.6264,2.777,2.9314,3.116,3.1562,3.1913,3.342,3.4324,3.4901,3.5132,3.5328,3.5579,3.6081,3.6734,3.701,3.6505,3.6883,3.7186,3.7186,3.7663,3.7889,3.7538,3.7487,3.7487,3.7487,3.8191,3.8793,3.9145,3.9898,4.0325,4.0325,4.0651,4.0774,4.0774,4.11,4.1275,4.1275,4.1275,4.1501,4.1957,4.1957,4.1957,4.1957,4.1957,4.1957,4.1957,4.1957,4.1957,4.1957,4.1731,4.1656,4.163,4.1376,4.1275,4.125,4.0953,4.0774,4.0724,0.0,0.0,0.0,0.0,0.0,0.0,0.0,0.0,0.0,0.0,0.0,0.0,0.0,0.0,0.0,0.0,0.0,0.0,1.9811,1.9987,2.0765,2.2297,2.2297,2.3778,2.6992,2.8674,3.0608,3.2792,3.2993,3.2441,3.111,3.0055,2.885,2.7494,2.6625,2.5259,2.3547,2.2297,2.1091,2.0062,1.9886,1.9811,0.0,0.0,0.0,0.0,0.0,0.0,0.0,0.0,1.9811,1.9811,1.9811,2.0589,2.1518,2.1694,2.3577,2.5912,2.7394,2.885,3.0367,3.229,3.3169,3.3847,3.4731,3.5533,3.6135,3.626,3.6483,3.6458,3.5906,3.6408,3.6908,3.6707,3.7086,3.7437,3.7437,3.7764,3.7789,3.7236,3.7036,3.6985,3.7161,3.7688,3.8241,3.8818,3.9371,3.9697,3.9697,4.0049,4.0249,4.0249,4.0626,4.0774,4.0774,4.0774,4.0774,4.0774,4.0774,4.0949,4.1275,4.1275,4.1275,4.1275,4.1275,4.1275,4.1275,4.11,4.0924,4.0774,4.0774,4.0774,4.0777,4.04,4.0249,4.0199,0.0,0.0,0.0,0.0,0.0,0.0,0.0,0.0,0.0,0.0,0.0,0.0,0.0,0.0,0.0,0.0,0.0,0.0,1.9811,2.0365,2.0691,2.0691,2.2803,2.423,2.475,2.7458,2.9966,3.2215,3.1662,3.111,3.0557,2.8348,2.7595,2.7996,2.6339,2.531,2.465,2.2995,2.1669,2.0641,2.0037,1.9811,1.9811,0.0,0.0,0.0,0.0,0.0,0.0,0.0,1.9811,1.9811,1.9811,2.0589,2.1594,2.2146,2.4682,2.7519,2.8587,3.0532,3.2491,3.3621,3.4324,3.4876,3.5382,3.5508,3.5984,3.7663,3.7563,3.701,3.6505,3.6405,3.6606,3.7086,3.7638,3.8015,3.799,3.799,3.7789,3.7236,3.6757,3.6631,3.7136,3.7688,3.8266,3.8894,3.9371,3.9697,3.9697,3.9697,3.9697,3.9697,3.9697,3.9697,3.9697,3.9697,3.9697,3.9697,3.9697,4.0275,4.1275,4.1275,4.1275,4.1275,4.1275,4.1275,4.1225,4.0727,4.0199,3.9697,3.9697,3.9697,3.9697,3.9697,3.9697,3.9697,0.0,0.0,0.0,0.0,0.0,0.0,0.0,0.0,0.0,0.0,0.0,0.0,0.0,0.0,0.0,0.0,0.0,0.0,1.9811,1.9962,2.0264,2.0666,2.132,2.2272,2.3572,2.6339,2.9051,3.1637,3.1863,3.1085,2.9389,2.9176,2.8072,2.6339,0.0,0.0,2.3025,2.2523,2.1443,2.0037,1.9861,1.9811,1.9811,0.0,0.0,0.0,0.0,0.0,0.0,0.0,0.0,0.0,1.9811,2.0589,2.1594,2.2146,2.4682,2.7519,2.8587,3.0834,3.2993,3.3721,3.4901,3.5931,3.6081,3.6408,3.6835,3.7337,3.6985,3.6606,3.643,3.6732,3.6985,3.7161,3.7638,3.7864,3.7487,3.7437,3.7236,3.6732,3.6857,3.7161,3.7713,3.8291,3.8843,3.9396,3.9597,3.9697,3.9697,3.9697,3.9697,3.9697,3.9697,3.9697,3.9697,3.9697,3.9697,3.9697,3.9697,3.9873,4.0174,4.0174,4.0174,4.0174,4.0174,4.0174,4.0174,3.9998,3.9848,3.9697,3.9697,3.9697,3.9697,3.9697,3.9697,3.9697,0.0,0.0,0.0,0.0,0.0,0.0,0.0,0.0,1.9811,1.9811,1.9811,1.9811,0.0,0.0,0.0,1.9811,1.9811,1.9811,1.9811,2.0012,2.0339,2.0666,2.1119,2.1895,2.307,2.5636,2.7806,2.9428,3.0432,3.0005,2.8298,2.885,2.8097,2.6314,0.0,2.6013,2.3301,2.3075,2.187,2.0189,2.0388,2.0338,2.0162,0.0,0.0,0.0,0.0,0.0,0.0,0.0,0.0,0.0,1.9811,2.0589,2.1769,2.3201,2.5837,2.8649,3.0432,3.2591,3.4519,3.4801,3.5956,3.7059,3.7059,3.7111,3.7111,3.6958,3.6631,3.648,3.6707,3.696,3.7337,3.7789,3.7939,3.7889,3.7563,3.7312,3.6985,3.648,3.6883,3.7387,3.7939,3.8542,3.9094,3.9647,3.9697,3.9697,3.9697,3.9697,3.9697,3.9697,3.9697,3.9697,3.9697,3.9697,3.9697,3.9697,3.9697,3.9697,3.9697,3.9697,3.9697,3.9697,3.9697,3.9697,3.9697,3.9697,3.9697,3.9697,3.9697,3.9697,3.9697,3.9697,3.9697,3.9697,0.0,0.0,0.0,0.0,0.0,0.0,0.0,1.9811,1.9811,1.9811,1.9811,1.9811,0.0,0.0,0.0,1.9811,1.9811,1.9811,1.9811,2.0314,2.0616,2.0616,2.1644,2.2472,2.2945,2.5109,2.6298,2.6348,2.8072,2.8373,2.7293,2.7896,2.7821,2.7143,0.0,2.6791,2.475,2.413,2.2648,2.0817,2.127,2.1119,2.0666,2.1142,0.0,0.0,0.0,0.0,0.0,0.0,0.0,0.0,1.9811,2.0589,2.1995,2.4607,2.7394,3.0206,3.2867,3.4876,3.6279,3.6329,3.7086,3.7889,3.799,3.7538,3.696,3.6505,3.6455,3.6631,3.7086,3.7262,3.7663,3.8693,3.8341,3.799,3.7939,3.7462,3.6935,3.6531,3.6983,3.7487,3.804,3.8617,3.9196,3.9647,3.9697,3.9697,3.9697,3.9697,3.9697,3.9697,3.9697,3.9697,3.9697,3.9697,3.9697,3.9697,3.9697,3.9697,3.9697,3.9697,3.9697,3.9697,3.9697,3.9697,3.9697,3.9697,3.9697,3.9697,3.9697,3.9697,3.9697,3.9697,3.9722,3.9772,0.0,0.0,0.0,0.0,0.0,0.0,1.9811,1.9811,1.9811,1.9811,1.9811,1.9811,1.9811,1.9811,0.0,1.9811,1.9811,1.9811,1.9811,1.9911,1.9987,1.9987,2.1066,2.1719,2.1845,2.3602,2.4732,2.5184,2.7659,2.8373,2.7293,0.0,0.0,2.5988,0.0,2.6063,2.47,2.3276,2.2146,2.132,2.0993,2.0515,2.0012,2.0112,2.0012,0.0,0.0,0.0,0.0,0.0,0.0,0.0,1.9811,2.0589,2.1769,2.3221,2.5937,2.8875,3.0809,3.3169,3.5177,3.5604,3.6232,3.6935,3.7814,3.7236,3.6556,3.643,3.6757,3.7036,3.7161,3.7914,3.8442,3.8216,3.809,3.7864,3.7412,3.6885,3.6707,3.696,3.7487,3.8065,3.8617,3.9195,3.9572,3.9697,3.9697,3.9697,3.9697,3.9697,3.9697,3.9697,3.9697,3.9697,3.9697,3.9697,3.9697,3.9697,3.9697,3.9697,3.9697,3.9697,3.9697,3.9697,3.9697,3.9697,3.9697,3.9697,3.9697,3.9697,3.9697,3.9697,3.9697,3.9697,3.9973,4.035,0.0,0.0,0.0,0.0,0.0,0.0,0.0,0.0,1.9811,1.9811,1.9811,1.9811,1.9811,1.9811,0.0,0.0,1.9811,1.9811,1.9811,1.9811,1.9811,1.9811,2.0666,2.0993,2.069,2.2598,2.3697,2.3973,2.5954,2.6791,0.0,0.0,0.0,2.5661,0.0,2.6716,0.0,2.4255,2.31,2.187,2.187,2.1192,2.0289,2.079,2.069,2.0239,2.0239,0.0,0.0,0.0,0.0,0.0,0.0,0.0,2.187,2.3753,2.5912,2.8373,3.1361,3.3043,3.4324,3.5931,3.6533,3.6985,3.7814,3.7362,3.6732,3.6455,3.6857,3.7262,3.7538,3.8291,3.8768,3.8467,3.8191,3.7814,3.7262,3.6757,3.6606,3.7111,3.7663,3.8241,3.8869,3.9371,3.9697,3.9697,3.9697,3.9697,3.9697,3.9697,3.9697,3.9697,3.9697,3.9697,3.9697,3.9697,3.9697,3.9697,3.9697,3.9697,3.9697,3.9697,3.9697,3.9697,3.9697,3.9697,3.9697,3.9697,3.9697,3.9722,3.9973,4.0099,4.0124,4.0375,4.0651,4.0849,0.0,0.0,0.0,0.0,0.0,0.0,0.0,0.0,0.0,1.9811,1.9811,1.9811,1.9811,1.9811,1.9811,0.0,0.0,0.0,1.9811,1.9811,1.9836,1.9936,2.044,2.0465,1.9962,2.1917,2.292,2.2819,2.3948,2.4808,0.0,0.0,0.0,2.5561,0.0,0.0,0.0,2.5586,2.4456,2.2899,2.3145,2.2347,2.1069,2.187,2.1594,2.0842,2.0842,2.0767,2.0616,2.0112,0.0,0.0,0.0,0.0,2.1945,2.433,2.6038,2.8047,3.2215,3.3495,3.4268,3.6584,3.7186,3.7312,3.7764,3.7513,3.7036,3.6531,3.6885,3.7462,3.7914,3.8492,3.8894,3.8743,3.8241,3.7663,3.7111,3.6707,3.6656,3.7236,3.7739,3.8266,3.8944,3.9421,3.9697,3.9697,3.9697,3.9697,3.9697,3.9697,3.9697,3.9697,3.9697,3.9697,3.9697,3.9697,3.9697,3.9697,3.9697,3.9697,3.9697,3.9697,3.9697,3.9697,3.9697,3.9697,3.9697,3.9798,3.9848,3.9898,4.045,4.0651,4.0701,4.1125,4.1351,4.148,0.0,0.0,0.0,0.0,0.0,0.0,0.0,0.0,0.0,0.0,1.9811,1.9811,1.9811,1.9811,1.9811,1.9811,1.9811,1.9811,1.9811,0.0,0.0,2.0566,2.0641,2.0666,2.0591,2.1769,2.2196,2.1719,2.2794,2.3622,0.0,0.0,0.0,2.4926,0.0,0.0,0.0,0.0,2.5008,2.5084,2.423,2.3175,2.2046,2.1719,2.1518,2.1368,2.1368,2.1094,2.0691,2.0616,2.0239,0.0,0.0,0.0,2.1644,2.2498,2.4588,2.7253,3.0231,3.3445,3.6179,3.6985,3.7186,3.7211,3.7287,3.7236,3.7036,3.6531,3.7186,3.7914,3.799,3.8492,3.8718,3.8216,3.7663,3.7111,3.6606,3.6455,3.6782,3.7764,3.7965,3.8417,3.9496,3.9647,3.9697,3.9697,3.9697,3.9697,3.9697,3.9697,3.9697,3.9697,3.9697,3.9697,3.9697,3.9697,3.9697,3.9697,3.9697,3.9697,3.9697,3.9697,3.9697,3.9697,3.9697,3.9697,3.9747,4.0199,4.04,4.045,4.0949,4.1175,4.1175,4.125,4.163,4.2112,0.0,0.0,0.0,0.0,0.0,0.0,0.0,0.0,0.0,0.0,0.0,1.9811,1.9811,1.9811,1.9811,1.9811,1.9811,1.9811,1.9811,1.9811,1.9911,2.0162,2.0214,2.0214,2.0214,2.1267,2.1568,2.1043,2.2447,2.3246,0.0,2.5209,2.5561,0.0,0.0,0.0,0.0,0.0,0.0,2.5586,2.5435,2.5116,2.4613,2.4004,2.418,2.4657,2.4029,2.3251,2.2447,2.1794,2.1016,2.0264,1.9911,0.0,0.0,0.0,2.3853,2.6289,2.9704,3.2968,3.5655,3.6508,3.7486,3.8014,3.7337,3.7412,3.7387,3.6581,3.6985,3.7638,3.7939,3.8216,3.8291,3.804,3.7538,3.6985,3.648,3.6405,3.6832,3.7864,3.8015,3.8442,3.9597,3.9697,3.9697,3.9697,3.9697,3.9697,3.9697,3.9697,3.9697,3.9697,3.9697,3.9697,3.9697,3.9697,3.9697,3.9697,3.9697,3.9697,3.9697,3.9697,3.9697,3.9722,4.0023,4.0149,4.0199,4.0752,4.0924,4.1028,4.158,4.1781,4.1831,4.2133,4.2409,4.2665,0.0,0.0,0.0,0.0,0.0,0.0,0.0,0.0,0.0,0.0,0.0,1.9811,1.9811,0.0,0.0,0.0,1.9811,1.9811,1.9811,1.9811,1.9811,1.9811,1.9811,1.9811,1.9811,2.0916,2.1142,2.0465,2.197,0.0,2.3346,2.4607,2.5285,0.0,2.531,2.5285,0.0,0.0,0.0,0.0,0.0,2.7027,2.6876,2.6389,2.6766,2.7369,2.6389,2.541,2.4456,2.3326,2.2121,2.1043,2.0589,2.0916,0.0,0.0,0.0,2.6138,2.9327,3.2089,3.4349,3.5454,3.6885,3.7889,3.7312,3.7513,3.7563,3.6782,3.6784,3.7136,3.7688,3.7789,3.7839,3.799,3.7437,3.6883,3.6455,3.6405,3.6757,3.7688,3.7914,3.8391,3.9396,3.9622,3.9697,3.9697,3.9697,3.9697,3.9697,3.9697,3.9697,3.9697,3.9697,3.9697,3.9697,3.9697,3.9697,3.9697,3.9697,3.9697,3.9697,3.9848,3.9898,3.9923,4.035,4.0601,4.0777,4.1329,4.1555,4.1605,4.2158,4.2414,4.2464,4.2836,4.2986,4.2986,0.0,0.0,0.0,0.0,0.0,0.0,0.0,0.0,0.0,0.0,0.0,1.9811,1.9811,1.9811,1.9811,1.9811,1.9811,1.9811,1.9811,1.9811,1.9811,1.9811,1.9811,0.0,1.9811,2.0916,2.0941,1.9836,0.0,0.0,2.3954,2.4029,2.5184,2.7178,2.665,2.5812,2.4926,2.654,2.7494,2.8021,2.8574,2.8473,2.8021,2.7996,2.8021,2.7996,2.7394,2.6851,2.6197,2.5059,2.3602,2.2221,2.2196,2.187,2.1594,0.0,0.0,0.0,2.8674,3.0593,3.2616,3.3746,3.4876,3.5934,3.696,3.7211,3.7211,3.7161,3.6807,3.6631,3.7136,3.7236,3.7387,3.7914,3.7111,3.643,3.6405,3.6405,3.6631,3.7161,3.7688,3.8241,3.8894,3.9396,3.9697,3.9697,3.9697,3.9697,3.9697,3.9697,3.9697,3.9697,3.9697,3.9697,3.9697,3.9697,3.9697,3.9697,3.9697,3.9697,3.9722,4.0249,4.0475,4.0475,4.0501,4.0802,4.1275,4.1882,4.2162,4.2213,4.2766,4.2936,4.2936,4.2961,4.2986,4.2986,0.0,0.0,0.0,0.0,0.0,0.0,0.0,0.0,0.0,0.0,0.0,0.0,0.0,1.9811,1.9811,1.9811,1.9811,1.9811,1.9811,1.9811,1.9811,1.9811,1.9459,1.9459,1.9786,2.0188,2.0213,0.0,0.0,2.197,2.2924,2.3653,2.4431,2.5184,2.5335,2.5385,2.5335,2.5586,2.6214,2.7218,2.9202,3.0306,3.0783,3.116,3.1738,3.224,3.1336,3.0019,2.8423,2.7318,2.5586,2.3772,2.3045,2.2669,2.2694,2.3622,2.4725,2.6264,2.88,3.0306,3.1612,3.3445,3.5253,3.6609,3.6681,3.7211,3.7613,3.7262,3.7036,3.696,3.7136,3.6933,3.6835,3.7387,3.6908,3.6405,3.6405,3.6405,3.6606,3.7111,3.7362,3.7839,3.8818,3.9044,3.932,3.9672,3.9697,3.9697,3.9697,3.9697,3.9697,3.9697,3.9697,3.9697,3.9697,3.9697,3.9697,3.9697,3.9697,3.9873,4.0224,4.0425,4.0902,4.158,4.158,4.1681,4.1907,4.2459,4.274,4.271,4.2911,4.2986,4.2986,4.2986,4.2986,4.2986,0.0,0.0,0.0,0.0,0.0,0.0,0.0,0.0,0.0,2.0062,0.0,0.0,0.0,0.0,1.9811,1.9811,1.9811,1.9811,1.9811,1.9811,1.9811,1.9811,1.9284,1.9233,1.9786,1.9635,1.9635,0.0,0.0,0.0,0.0,2.3075,2.3728,2.428,2.4224,2.4525,2.5059,2.5084,2.5711,2.7002,2.9578,3.1035,3.1788,3.2717,3.342,3.3796,3.3043,3.1964,3.0758,2.9804,2.8273,2.6531,2.5402,2.4675,2.4431,2.5385,2.5385,2.5686,2.8473,2.9503,3.0256,3.229,3.4449,3.6081,3.6081,3.6935,3.7688,3.7487,3.7312,3.7186,3.7186,3.6782,3.6581,3.7086,3.6782,3.6405,3.6405,3.6405,3.6556,3.6908,3.7061,3.7487,3.829,3.8467,3.8818,3.9371,3.9421,3.9496,3.9697,3.9697,3.9697,3.9697,3.9697,3.9697,3.9697,3.9697,3.9697,3.9697,3.9697,3.9973,4.0526,4.0701,4.1279,4.2213,4.2414,4.2489,4.2514,4.2836,4.2986,4.2986,4.2986,4.2986,4.2986,4.2986,4.2986,4.2986,0.0,0.0,0.0,0.0,0.0,0.0,0.0,0.0,2.0037,2.0641,0.0,0.0,0.0,0.0,0.0,1.9861,1.9836,1.9836,1.9836,1.9811,1.9811,1.9836,1.9284,1.9233,1.9786,1.9259,0.0,0.0,0.0,0.0,0.0,0.0,2.315,2.4675,2.3572,2.3421,2.4079,2.5159,2.6214,2.7419,2.9729,3.0633,3.0809,3.2491,3.2792,3.234,3.234,3.2667,3.3043,3.2466,3.1562,3.0432,2.9239,2.7821,2.6675,2.7178,2.6515,2.5988,0.0,0.0,0.0,3.0206,3.229,3.4198,3.5282,3.6408,3.7362,3.7889,3.7588,3.7236,3.7211,3.6807,3.6606,3.7086,3.6782,3.6405,3.6405,3.6405,3.6405,3.6405,3.6883,3.7161,3.7186,3.7663,3.8216,3.8844,3.8919,3.9145,3.9647,3.9697,3.9697,3.9697,3.9697,3.9697,3.9697,3.9697,3.9697,3.9697,3.9722,3.9998,4.0551,4.105,4.1656,4.2263,4.2735,4.2986,4.2986,4.2986,4.2986,4.2986,4.2986,4.2986,4.2986,4.2986,4.2986,4.2986,0.0,0.0,0.0,0.0,0.0,1.9987,2.0616,2.0566,2.0641,0.0,0.0,0.0,0.0,2.1016,2.1016,2.1016,2.0691,2.044,2.044,2.0037,1.9987,2.044,1.9535,1.9233,1.9786,1.9259,0.0,0.0,0.0,0.0,0.0,0.0,0.0,2.3,2.2644,2.3271,2.46,2.531,2.5561,2.5837,2.9654,3.1185,3.1411,3.347,3.465,3.5248,3.5248,3.4801,3.4248,3.4073,3.2767,3.0909,2.9364,2.8587,2.8197,2.7946,2.7128,0.0,2.777,0.0,0.0,0.0,0.0,0.0,3.583,3.701,3.7814,3.7965,3.8216,3.8266,3.7864,3.7337,3.7059,3.7161,3.6782,3.6405,3.6405,3.6405,3.6405,3.6405,3.6531,3.6782,3.7136,3.7312,3.7638,3.8216,3.8642,3.8944,3.9094,3.9471,3.9697,3.9697,3.9697,3.9697,3.9697,3.9697,3.9697,3.9697,4.0099,4.0576,4.1075,4.1681,4.2233,4.2816,4.2911,4.2986,4.2986,4.2986,4.2986,4.2986,4.2986,4.2986,4.2986,4.2986,4.2986,4.2986,0.0,0.0,1.9811,1.9811,2.0188,2.0614,2.0993,2.1219,2.1496,0.0,0.0,0.0,0.0,0.0,2.1744,2.1518,2.1219,2.1043,2.1043,2.069,2.0591,2.0691,1.9811,1.9484,1.9786,1.9058,0.0,0.0,0.0,0.0,0.0,0.0,0.0,0.0,2.2096,2.3125,2.4607,2.654,2.7042,2.6806,3.0331,3.1738,3.2014,3.4474,3.5529,3.573,3.6254,3.5805,3.5132,3.5855,3.4625,3.2566,3.1386,3.0206,2.9227,2.89,2.7519,0.0,0.0,0.0,0.0,2.9528,0.0,0.0,3.4977,3.6383,3.7437,3.7914,3.809,3.814,3.8015,3.7563,3.7262,3.7487,3.7061,3.6681,3.643,3.6405,3.6405,3.6405,3.6405,3.6531,3.6857,3.6883,3.7061,3.7613,3.7965,3.8416,3.8894,3.9396,3.9697,3.9697,3.9697,3.9697,3.9697,3.9697,3.9697,3.9697,4.0249,4.0802,4.13,4.1907,4.2514,4.2986,4.2986,4.2986,4.2986,4.2986,4.2986,4.2986,4.2986,4.2986,4.2986,4.2986,4.2986,4.2986,0.0,0.0,1.9913,1.9987,2.0865,2.1619,2.1744,2.2221,2.2623,0.0,2.2723,0.0,0.0,0.0,0.0,0.0,2.1794,2.1744,2.1669,2.1619,2.1395,2.0893,2.0238,1.9861,1.9811,1.8882,0.0,0.0,0.0,0.0,0.0,0.0,0.0,0.0,2.192,2.31,2.4506,2.8097,2.9528,2.9515,3.1587,3.2441,3.2767,3.5303,3.578,3.5203,3.6182,3.6232,3.5984,3.7437,3.6659,3.4951,3.4223,3.2365,3.0357,3.0005,2.8122,0.0,0.0,0.0,0.0,2.7795,2.9754,0.0,3.3495,3.5077,3.6458,3.7437,3.7387,3.7312,3.7739,3.7437,3.7287,3.7814,3.7462,3.6983,3.6556,3.6455,3.6405,3.6405,3.6405,3.6405,3.6405,3.6405,3.6606,3.7109,3.7161,3.7688,3.8869,3.9346,3.9622,3.9697,3.9697,3.9697,3.9697,3.9697,3.9697,3.9697,4.0325,4.0852,4.13,4.1957,4.2564,4.2986,4.2986,4.2986,4.2986,4.2986,4.2986,4.2986,4.2986,4.2986,4.2986,4.2986,4.2986,4.2986,2.0993,2.0696,2.0732,2.11,2.1719,2.2447,2.3376,2.3979,2.4481,2.4908,2.5393,0.0,0.0,0.0,0.0,0.0,2.3778,2.3326,2.2819,2.2397,2.2096,2.1995,2.1069,2.0314,1.9811,1.9585,1.9585,0.0,0.0,0.0,0.0,0.0,0.0,0.0,2.2468,2.4104,2.6122,2.7745,2.9905,3.234,3.3219,3.3847,3.4349,3.5282,3.6408,3.7387,3.7613,3.7613,3.7513,3.7387,3.7362,3.7036,3.5152,3.4455,3.3853,3.1235,3.0055,2.9202,2.7203,2.6826,2.7243,2.8473,2.9779,0.0,3.342,3.45,3.5102,3.5328,3.6332,3.7086,3.6784,3.6609,3.6757,3.7262,3.6933,3.6681,3.6985,3.6681,3.6405,3.6405,3.6405,3.6405,3.6405,3.6405,3.6455,3.6556,3.6935,3.7688,3.8869,3.902,3.922,3.9672,3.9697,3.9697,3.9697,3.9697,3.9697,3.9697,4.0701,4.1175,4.1326,4.2359,4.2886,4.2986,4.2986,4.2986,4.2986,4.2986,4.2986,4.2986,4.2986,4.2986,4.2986,4.2986,4.2986,4.2986,2.1379,2.0983,2.1014,2.175,2.2598,2.3527,2.4632,2.5285,2.5837,2.6364,2.6917,2.7394,2.767,2.6691,0.0,0.0,0.0,0.0,2.4808,2.4255,2.3703,2.3175,2.2071,2.1119,2.0289,1.9936,1.9811,1.9811,0.0,0.0,0.0,0.0,0.0,0.0,0.0,2.5812,2.9038,3.0105,3.1863,3.3922,3.4198,3.4977,3.6056,3.6885,3.7538,3.8015,3.8015,3.8015,3.7839,3.6734,3.6558,3.6586,3.5805,3.4977,3.3997,3.234,3.0859,2.9352,2.7429,2.6465,2.6314,2.7419,2.8524,0.0,0.0,3.3294,3.3897,3.3897,3.5228,3.6132,3.5303,3.583,3.6405,3.6358,3.6584,3.6684,3.6408,3.6835,3.7186,3.7186,3.6935,3.6832,3.6832,3.6581,3.6405,3.6405,3.7136,3.7713,3.8064,3.8567,3.9045,3.927,3.9546,3.9697,3.9697,3.9697,3.9697,3.9697,4.0802,4.1275,4.1326,4.2484,4.2986,4.2986,4.2986,4.2986,4.2986,4.2986,4.2986,4.2986,4.2986,4.2986,4.2986,4.2986,4.2986,4.2986,2.1763,2.1349,2.1368,2.2275,2.3401,2.4481,2.546,2.6298,2.7002,2.7519,2.8273,2.875,2.875,2.8047,2.7605,2.7605,0.0,0.0,2.7278,2.6816,2.6088,2.4983,2.3552,2.2372,2.1521,2.0489,2.0012,2.0137,0.0,0.0,0.0,0.0,0.0,0.0,0.0,0.0,3.0583,3.2541,3.3847,3.46,3.5027,3.6257,3.7889,3.8617,3.8718,3.8467,3.8241,3.8165,3.799,3.6712,3.616,3.6034,3.6408,3.55,3.4067,3.3169,3.1461,2.949,2.7896,2.654,2.5837,2.6751,2.7695,2.895,0.0,0.0,0.0,3.2591,3.3822,3.4555,3.3596,3.4675,3.5479,3.468,3.5604,3.6006,3.4856,3.6257,3.7412,3.7513,3.7412,3.7211,3.6885,3.696,3.6908,3.6581,3.7638,3.804,3.7387,3.8216,3.8768,3.8919,3.9396,3.9697,3.9697,3.9697,3.9697,3.9697,4.0802,4.1275,4.1326,4.2484,4.2986,4.2986,4.2986,4.2986,4.2986,4.2986,4.2986,4.2986,4.2986,4.2986,4.2986,4.2986,4.2986,4.2986,2.1952,2.202,2.2509,2.2926,2.3948,2.4901,2.5511,2.6917,2.8122,2.8637,3.0055,3.1009,3.1009,3.1336,3.1562,3.1562,3.1512,3.1085,3.0206,3.008,2.9553,2.8386,2.5879,2.4449,2.4324,2.187,2.0842,2.1292,0.0,0.0,0.0,0.0,0.0,0.0,2.6465,2.7469,2.7379,3.239,3.4324,3.4173,3.6132,3.8191,4.0049,3.9195,3.9446,4.0099,3.912,3.8768,3.8818,3.912,3.8542,3.7663,3.7236,3.7613,3.7486,3.347,3.2792,3.2566,2.8976,2.8222,2.8461,2.8624,2.9126,2.9905,3.111,0.0,3.0884,3.0884,0.0,3.2416,3.1788,0.0,0.0,3.1411,3.2516,3.3144,3.2014,3.3721,3.5232,3.5734,3.7061,3.7337,3.5834,3.7914,3.8693,3.7211,3.8592,3.9044,3.7965,3.804,3.8341,3.8894,3.9396,3.9697,3.9697,3.9697,3.9697,3.9697,4.0802,4.1275,4.1326,4.2484,4.2986,4.2986,4.2986,4.2986,4.2986,4.2986,4.2986,4.2986,4.2986,4.2986,4.2986,4.2986,4.2986,4.2986,2.299,2.2506,2.2803,2.3865,2.4474,2.5402,2.7243,2.9227,3.0457,3.0357,3.1537,3.2365,3.2365,3.1989,3.2139,3.3119,3.2591,3.229,3.2516,3.1612,0.0,2.8938,2.6556,2.4833,2.3822,2.2071,2.1295,2.1493,2.1295,0.0,0.0,0.0,0.0,0.0,2.767,2.9402,3.0984,3.3903,3.6182,3.7764,3.804,3.9672,4.1681,3.9295,3.8467,3.8517,3.8065,3.809,3.8341,3.8266,3.814,3.7965,3.7739,3.8216,3.8241,3.5077,3.4204,3.3746,3.0809,3.0181,3.0357,3.0357,3.1035,3.1813,3.2265,3.1938,3.1361,3.0733,0.0,0.0,0.0,0.0,0.0,0.0,3.219,3.296,3.2441,3.3721,3.4881,3.5433,3.6433,0.0,3.6533,3.8718,3.9346,3.7337,3.9044,3.927,3.7161,3.7663,3.8115,3.8366,3.8919,3.9371,3.9697,3.9697,3.9697,3.9697,4.0802,4.1275,4.1326,4.2484,4.2986,4.2986,4.2986,4.2986,4.2986,4.2986,4.2986,4.2986,4.2986,4.2986,4.2986,4.2986,4.2986,4.2986,2.4768,2.354,2.3208,2.4556,2.4901,2.5912,2.8487,3.0658,3.1788,3.126,3.2416,3.3294,3.3294,3.2968,3.337,3.4901,3.4424,3.4324,3.4977,3.3872,3.2591,3.122,2.8473,2.6465,2.5377,2.3276,2.2246,2.2397,2.2096,0.0,0.0,0.0,0.0,0.0,0.0,3.0131,3.2692,3.5002,3.7312,3.9371,3.917,4.0023,4.1153,3.9044,3.7889,3.7387,3.7236,3.7437,3.7739,3.7487,3.7588,3.7814,3.7965,3.8391,3.8467,3.6383,3.5604,3.4876,3.2491,3.1964,3.2114,3.2265,3.2918,3.3571,3.3721,3.3194,3.229,3.0909,3.111,0.0,0.0,0.0,0.0,0.0,0.0,3.1386,3.11,3.224,3.3527,3.468,3.5228,0.0,0.0,3.9346,3.9873,3.7814,3.9722,3.9823,3.7235,3.7513,3.7839,3.799,3.8567,3.912,3.9471,3.9622,3.9697,3.9697,4.0802,4.1275,4.1326,4.2484,4.2986,4.2986,4.2986,4.2986,4.2986,4.2986,4.2986,4.2986,4.2986,4.2986,4.2986,4.2986,4.2986,4.2986,2.7494,2.5434,2.4209,2.4702,2.5234,2.6339,2.8537,3.0357,3.1235,3.0708,3.2516,3.3872,3.3872,3.5324,3.6707,3.7764,3.8366,3.8442,3.7914,3.7814,3.7538,3.6935,3.2767,3.0658,3.111,2.6389,2.418,2.4675,2.3597,0.0,0.0,0.0,0.0,0.0,2.6666,2.8473,2.9414,3.4851,3.6885,3.6732,3.8818,3.8743,3.7487,3.8467,3.8492,3.7914,3.7387,3.7186,3.7287,3.7814,3.7638,0.0,3.7839,3.8391,3.8592,3.6883,3.6757,3.6508,3.3815,3.342,3.3947,3.4474,3.465,3.4756,3.5307,3.4625,3.3244,3.106,3.0206,2.9528,2.8373,0.0,0.0,0.0,0.0,0.0,0.0,2.772,3.0131,3.2842,3.3212,0.0,0.0,3.9697,4.0626,0.0,4.0905,4.1182,3.8969,3.7838,3.7462,3.799,3.8567,3.8919,3.8944,3.9421,3.9697,3.9697,4.0802,4.1275,4.1326,4.2484,4.2986,4.2986,4.2986,4.2986,4.2986,4.2986,4.2986,4.2986,4.2986,4.2986,4.2986,4.2986,4.2986,4.2986,2.9223,2.7035,2.5441,2.5967,2.6705,2.7896,2.9754,3.1763,3.2993,3.2817,3.4073,3.5127,3.5479,3.5705,3.6257,3.7362,3.7638,3.7839,3.799,3.7337,3.6684,3.6085,3.2566,3.0357,2.9779,2.6666,2.4983,2.48,2.4399,0.0,0.0,0.0,0.0,0.0,0.0,2.9515,3.1286,3.4299,3.7337,4.0277,4.0626,4.0224,3.9396,3.9421,3.8818,3.804,3.8241,3.8542,0.0,3.8642,3.8944,3.922,3.8291,3.8894,3.9496,3.7109,3.701,3.7287,3.5253,3.5378,3.6031,3.5855,3.6634,3.7513,3.7713,3.6307,3.463,3.3527,3.1436,2.9553,2.8762,0.0,0.0,0.0,0.0,0.0,0.0,2.9327,3.0256,3.0834,3.219,0.0,0.0,0.0,0.0,0.0,4.0224,0.0,3.8391,3.7588,3.7437,3.799,3.8191,3.8492,3.8919,3.9421,3.9697,3.9697,4.0802,4.1275,4.1326,4.2484,4.2986,4.2986,4.2986,4.2986,4.2986,4.2986,4.2986,4.2986,4.2986,4.2986,4.2986,4.2986,4.2986,4.2986,3.0399,2.8943,2.7798,2.7413,2.8231,2.9428,3.0708,3.2767,3.4048,3.3671,3.4751,3.5708,3.6355,3.6232,3.6584,3.7688,3.7789,3.809,3.8843,3.7864,3.7287,3.7263,3.45,3.2516,3.1571,2.8825,2.7017,2.6255,2.5277,2.4431,0.0,0.0,0.0,0.0,0.0,3.003,3.3401,3.4304,3.7262,4.1257,4.045,3.9948,3.9597,3.9471,3.9195,3.8868,0.0,3.8793,3.9044,3.8693,3.917,3.9747,3.8642,3.9195,3.9798,3.7588,3.7739,3.8191,3.6332,3.6634,3.7387,3.7036,3.7964,3.8919,3.8919,3.7588,3.611,3.5157,3.2692,3.0608,3.0432,0.0,0.0,0.0,0.0,0.0,0.0,2.9754,2.9654,2.9503,0.0,0.0,0.0,0.0,0.0,0.0,0.0,0.0,0.0,3.7588,3.7337,3.7688,3.8115,3.8391,3.8567,3.932,3.9697,3.9697,4.0802,4.1275,4.1326,4.2484,4.2986,4.2986,4.2986,4.2986,4.2986,4.2986,4.2986,4.2986,4.2986,4.2986,4.2986,4.2986,4.2986,4.2986,3.1156,3.1158,3.0984,2.8958,2.983,3.0974,3.1436,3.3395,3.4449,3.342,3.465,3.5809,3.648,3.6958,3.7638,3.8793,3.8869,3.9295,4.0375,3.9421,3.932,4.0425,3.8316,3.6885,3.6458,3.2667,3.0091,2.8963,2.6305,0.0,0.0,0.0,0.0,0.0,2.6373,2.9905,3.5433,3.4906,3.6634,3.9572,3.8517,3.8115,3.8191,3.8718,3.9622,4.0375,3.8693,3.809,3.809,3.809,3.8467,3.8944,3.8919,3.9245,3.9471,3.8366,3.8843,3.922,3.7084,3.7211,3.799,3.7965,3.8417,3.8919,3.8919,3.8442,3.7588,3.5909,3.3828,3.2491,3.3018,3.0482,0.0,0.0,0.0,0.0,0.0,0.0,2.8298,0.0,0.0,0.0,0.0,0.0,0.0,0.0,0.0,0.0,0.0,3.7864,3.7262,3.7186,3.8341,3.8592,3.8015,3.912,3.9697,3.9697,4.0802,4.1275,4.1326,4.2484,4.2986,4.2986,4.2986,4.2986,4.2986,4.2986,4.2986,4.2986,4.2986,4.2986,4.2986,4.2986,4.2986,4.2986,3.3045,3.2482,3.1461,3.0254,3.2389,3.4021,3.3348,3.4776,3.5981,3.6107,3.6508,3.7136,3.8165,3.7588,3.7462,3.8165,3.8241,3.8542,3.9245,3.8617,3.8743,3.9848,3.7387,3.6282,3.696,3.3571,3.126,3.0142,2.8587,2.7283,2.6239,0.0,0.0,0.0,0.0,3.0758,3.4881,3.4776,3.6408,3.9094,3.922,3.9496,3.9848,0.0,4.0425,4.153,3.9848,3.927,3.927,3.927,3.9371,3.9421,3.9045,3.9245,3.9546,3.8843,3.9145,3.9396,3.7965,3.7789,3.7914,3.7487,3.814,3.8919,3.8919,3.8768,3.8291,3.7036,3.5328,3.3997,3.3746,3.2315,0.0,0.0,0.0,0.0,0.0,0.0,0.0,2.664,0.0,0.0,0.0,0.0,0.0,0.0,0.0,0.0,3.902,0.0,3.8467,3.7236,3.8341,3.8592,3.8015,3.912,3.9697,3.9697,4.0802,4.1275,4.1326,4.2484,4.2986,4.2986,4.2986,4.2986,4.2986,4.2986,4.2986,4.2986,4.2986,4.2986,4.2986,4.2986,4.2986,4.2986,3.4873,3.383,3.2696,3.1833,3.4418,3.5965,3.4174,3.5504,3.6883,3.7136,3.7613,3.8266,3.912,3.8442,3.814,3.8693,3.8517,3.8743,3.9546,3.8843,3.8768,3.9647,3.8417,3.7789,3.7914,3.583,3.3872,3.2039,3.0683,2.9202,2.767,0.0,0.0,0.0,0.0,3.2516,3.6182,3.6433,3.7437,3.8868,3.8944,3.9446,0.0,3.9798,4.0275,4.0978,4.03,4.0199,4.04,4.04,4.04,4.035,4.0049,3.9998,3.9948,3.9396,3.9446,3.9496,3.8617,3.8567,3.8617,3.8065,3.8567,3.917,3.8919,3.8919,3.8743,3.8114,3.6784,3.5855,3.6031,3.4951,3.3922,0.0,0.0,0.0,0.0,0.0,0.0,0.0,2.9729,0.0,0.0,0.0,0.0,0.0,0.0,0.0,0.0,0.0,3.8668,3.7236,3.8517,3.8969,3.8391,3.9245,3.9697,3.9697,4.0802,4.1275,4.1326,4.2484,4.2986,4.2986,4.2986,4.2986,4.2986,4.2986,4.2986,4.2986,4.2986,4.2986,4.2986,4.2986,4.2986,4.2986,3.6228,3.5049,3.4149,3.3411,3.5711,3.6929,3.4659,3.6081,3.7437,3.7513,3.8316,3.912,3.9747,3.9245,3.9094,3.9647,3.9195,3.932,4.035,3.9371,3.9044,3.9672,3.9998,3.9848,3.9145,3.8366,3.686,3.455,3.2792,3.1035,0.0,0.0,0.0,0.0,0.0,3.47,3.8065,3.8768,3.9095,3.8944,3.8442,3.8818,3.9697,3.9697,3.9747,3.9873,4.035,4.0724,4.1075,4.115,4.1175,4.12,4.125,4.0949,4.0526,4.0049,3.9848,3.9672,3.912,3.927,3.9471,3.9045,3.922,3.9471,3.902,3.8919,3.8969,3.8894,3.814,3.7814,3.8793,3.7762,3.6732,3.6634,3.5328,0.0,3.4148,0.0,0.0,0.0,0.0,0.0,0.0,0.0,0.0,0.0,0.0,0.0,0.0,0.0,3.8768,3.7337,3.8793,3.9396,3.8994,3.9371,3.9672,3.9823,4.0852,4.1275,4.1326,4.2484,4.2986,4.2986,4.2986,4.2986,4.2986,4.2986,4.2986,4.2986,4.2986,4.2986,4.2986,4.2986,4.2986,4.2986,3.5885,3.5087,3.4564,3.4445,3.5264,3.6067,3.6556,3.7713,3.8743,3.9195,3.9019,3.9245,4.0249,3.9471,3.9094,3.9647,3.9195,3.9145,3.9798,3.8793,3.8617,3.9647,3.8894,3.8994,4.0199,3.8768,3.8015,3.799,3.5855,3.5031,0.0,0.0,0.0,0.0,0.0,3.6508,3.8115,3.9597,3.9973,3.9546,3.9446,3.9521,3.9697,3.9697,3.9973,4.0375,4.0475,4.03,4.0049,4.0501,4.0651,4.0752,4.115,4.1225,4.1125,4.1025,4.0727,4.0249,3.9697,3.9295,3.9045,3.8944,3.8994,3.9045,3.8944,3.922,3.9421,3.902,3.9069,3.932,3.9521,0.0,3.8266,3.7814,3.7086,3.6282,3.5332,0.0,0.0,0.0,0.0,3.4781,0.0,0.0,0.0,0.0,0.0,0.0,0.0,0.0,4.0902,0.0,3.8617,3.9195,0.0,0.0,3.9471,4.0375,4.0974,4.1275,4.1326,4.2484,4.2986,4.2986,4.2986,4.2986,4.2986,4.2986,4.2986,4.2986,4.2986,4.2986,4.2986,4.2986,4.2986,4.2986,3.5841,3.5576,3.5577,3.5571,3.6759,3.7864,3.8391,3.9195,3.9722,3.9697,3.9948,4.0249,4.0501,4.0049,3.9823,4.0099,3.9873,3.9848,4.0099,3.9346,3.912,3.9672,3.917,3.927,4.0074,3.9572,3.917,3.8919,3.8366,3.8241,0.0,0.0,0.0,3.9774,0.0,3.8492,3.8517,3.932,3.9521,3.9295,3.9572,3.9873,4.0124,4.0124,4.03,4.0526,4.0526,4.0174,3.9823,4.0651,4.0899,4.0949,4.12,4.1275,4.1275,4.1275,4.11,4.0824,4.0626,4.035,4.0074,3.9798,3.9722,3.9647,3.9371,3.9496,3.9546,3.8994,3.932,3.9697,3.9697,3.9948,0.0,3.9019,3.8894,3.8417,3.701,0.0,3.568,0.0,0.0,0.0,0.0,0.0,0.0,0.0,0.0,0.0,0.0,0.0,4.1153,0.0,0.0,0.0,3.9697,0.0,3.927,4.0099,4.0874,4.1275,4.1326,4.2484,4.2986,4.2986,4.2986,4.2986,4.2986,4.2986,4.2986,4.2986,4.2986,4.2986,4.2986,4.2986,4.2986,4.2986,3.6708,3.6582,3.6865,3.7184,3.8592,3.9747,3.9848,4.0425,4.0676,4.0124,4.0701,4.1,4.0727,4.0701,4.0701,4.0701,4.0701,4.0701,4.0701,4.0074,3.9747,3.9873,3.9747,3.9697,3.9697,4.0249,4.0199,3.9623,4.0199,4.0099,3.9346,0.0,0.0,0.0,0.0,4.0199,3.9396,3.927,3.922,3.927,3.9697,4.0124,4.0526,4.0526,4.0526,4.0501,4.0375,4.0074,3.9823,4.0701,4.1025,4.1125,4.125,4.1275,4.1275,4.1275,4.12,4.1125,4.125,4.12,4.1025,4.0777,4.0701,4.0551,3.9998,3.9873,3.9722,3.917,3.9396,3.9722,3.9848,4.0475,0.0,4.03,4.0375,4.0124,3.9044,0.0,0.0,0.0,0.0,0.0,3.7588,0.0,0.0,0.0,0.0,0.0,3.9521,0.0,0.0,0.0,0.0,3.9421,4.0199,0.0,3.932,3.9873,4.0824,4.1275,4.1326,4.2484,4.2986,4.2986,4.2986,4.2986,4.2986,4.2986,4.2986,4.2986,4.2986,4.2986,4.2986,4.2986,4.2986,4.2986,3.9321,3.8568,3.8303,3.9826,3.9898,3.9848,4.035,4.1329,4.1806,4.1254,4.0774,4.0752,4.1175,4.12,4.12,4.12,4.12,4.12,4.12,4.0275,3.9923,4.0425,3.9948,3.9697,3.9697,4.0249,4.0953,4.1911,4.0953,3.9697,3.8241,4.1304,4.2811,4.2861,4.1756,4.115,4.1025,4.0576,4.035,4.0375,4.0425,4.0475,4.0526,4.0526,4.0526,4.045,3.9948,3.9747,3.9722,3.9823,4.0174,4.0676,4.1125,4.1275,4.1275,4.1275,4.0924,4.0701,4.115,4.0924,4.0701,4.11,4.12,4.1075,4.0576,4.045,4.0275,3.9722,3.9672,3.9848,4.035,4.0124,4.03,4.176,4.1128,4.0802,4.171,0.0,4.0124,4.0124,0.0,0.0,0.0,4.1756,0.0,0.0,0.0,0.0,0.0,0.0,0.0,4.03,3.9848,4.035,4.1961,4.04,3.9898,4.045,4.1,4.1275,4.1326,4.2484,4.2986,4.2986,4.2986,4.2986,4.2986,4.2986,4.2986,4.2986,4.2986,4.2986,4.2986,4.2986,4.2986,4.2986,3.9695,3.9878,4.0084,4.0427,4.1153,4.163,4.153,4.1936,4.2137,4.1856,4.163,4.1455,4.13,4.163,4.1831,4.1831,4.1831,4.1831,4.1831,4.1103,4.0777,4.0949,4.0475,4.035,4.0676,4.0576,4.0902,4.1656,4.2208,4.2308,4.2007,4.3689,4.394,4.2936,4.2183,4.1455,4.0827,4.0601,4.0526,4.0526,4.0526,4.0701,4.0924,4.0651,4.0526,4.045,3.9898,3.9697,3.9697,3.9697,3.9848,4.0074,4.0275,4.0576,4.0852,4.0852,4.0927,4.1,4.1225,4.1125,4.1,4.1225,4.1275,4.1225,4.1,4.0752,4.045,4.0224,3.9923,3.9672,3.9546,3.9898,4.0174,4.0226,4.0375,4.0551,4.0651,0.0,0.0,3.9521,0.0,3.9446,0.0,0.0,0.0,0.0,0.0,0.0,0.0,0.0,0.0,4.153,0.0,3.9998,4.1656,4.0023,3.9647,4.0526,4.1025,4.1505,4.1856,4.2635,4.2986,4.2986,4.2986,4.2986,4.2986,4.2986,4.2986,4.2986,4.2986,4.2986,4.2986,4.2986,4.2986,4.2986,4.0601,4.1279,4.1806,4.1731,4.2559,4.3037,4.2539,4.2464,4.2389,4.2238,4.2363,4.2183,4.163,4.2057,4.2464,4.2464,4.2464,4.2464,4.2464,4.1882,4.158,4.158,4.1204,4.1028,4.105,4.1028,4.1103,4.1275,4.266,4.3011,4.2434,4.2861,4.3011,4.2936,4.2233,4.148,4.0752,4.0576,4.0601,4.0777,4.0927,4.1128,4.125,4.0902,4.0651,4.045,3.9898,3.9697,3.9697,3.9697,3.9697,3.9697,3.9697,3.9948,4.0275,4.0275,4.0551,4.0824,4.1,4.105,4.1075,4.125,4.1275,4.1275,4.1275,4.0974,4.0701,4.0551,4.0199,3.9772,3.922,3.9747,4.0124,3.9672,3.9848,4.0074,4.0174,3.927,0.0,4.0025,4.0224,4.0249,4.0151,4.2585,0.0,0.0,0.0,0.0,0.0,0.0,0.0,0.0,0.0,0.0,4.1275,4.0023,3.9747,4.0526,4.1025,4.163,4.2238,4.2791,4.2986,4.2986,4.2986,4.2986,4.2986,4.2986,4.2986,4.2986,4.2986,4.2986,4.2986,4.2986,4.2986,4.2986,4.2735,4.2961,4.3288,4.4392,4.4141,4.3614,4.3062,4.2961,4.2816,4.2288,4.269,4.2816,4.2263,4.269,4.2961,4.2961,4.2961,4.2961,4.2961,4.2514,4.2213,4.2213,4.2187,4.1685,4.0551,4.158,4.1882,4.1275,4.1907,4.0553,3.7287,3.7287,3.932,4.2936,4.1831,4.1275,4.125,4.0752,4.0827,4.1326,4.1907,4.1806,4.1275,4.1275,4.0949,4.045,3.9898,3.9697,3.9697,3.9697,3.9697,3.9697,3.9697,3.9697,3.9697,3.9697,3.9697,3.9848,4.0375,4.0526,4.0651,4.115,4.1275,4.1275,4.1275,4.1275,4.1125,4.0626,4.0501,4.035,3.9798,3.9697,4.0049,4.1075,3.9948,3.9471,4.105,3.9421,3.9245,4.2534,4.3413,4.3539,4.2986,4.5447,0.0,0.0,0.0,0.0,0.0,0.0,0.0,4.0576,4.0501,0.0,4.1275,4.0777,4.0501,4.0526,4.1025,4.163,4.2238,4.2791,4.2986,4.2986,4.2986,4.2986,4.2986,4.2986,4.2986,4.2986,4.2986,4.2986,4.2986,4.2986,4.2986,4.2986,4.4041,4.4091,4.4091,4.4066,4.3915,4.3614,4.3062,4.2986,4.2911,4.2791,4.2861,4.2911,4.2735,4.2861,4.2986,4.2986,4.2986,4.2986,4.2986,4.2811,4.2615,4.2238,4.2213,4.2037,4.1685,4.2037,4.1882,4.1275,4.2258,4.2037,4.0603,4.0199,4.0475,4.1304,4.1275,4.1075,4.0802,4.1379,4.1731,4.1907,4.2137,4.2112,4.1882,4.1882,4.1329,4.0501,4.0325,4.0023,3.9697,3.9697,3.9697,3.9697,3.9697,3.9697,3.9697,3.9697,3.9697,3.9747,3.9898,3.9948,4.0099,4.0651,4.0724,4.0824,4.12,4.1275,4.1125,4.0626,4.0802,4.0849,4.035,3.9948,3.9798,4.0149,3.9471,3.9195,4.0099,3.8944,3.8542,3.9998,3.9973,3.9948,4.0149,4.2333,0.0,0.0,0.0,0.0,0.0,0.0,0.0,0.0,4.0375,0.0,4.1275,4.0425,4.0325,4.1025,4.12,4.1831,4.2766,4.2886,4.2986,4.2986,4.2986,4.2986,4.2986,4.2986,4.2986,4.2986,4.2986,4.2986,4.2986,4.2986,4.2986,4.2986,4.4945,4.4769,4.4518,4.4166,4.394,4.3689,4.3338,4.3112,4.2986,4.2986,4.2986,4.2986,4.2986,4.2986,4.2986,4.2986,4.2986,4.2986,4.2986,4.2986,4.2866,4.2539,4.2514,4.2414,4.2213,4.2414,4.2208,4.1656,4.2534,4.2811,4.2514,4.2108,4.1656,4.1153,4.148,4.1354,4.0877,4.1781,4.2213,4.2238,4.2439,4.2389,4.2213,4.2213,4.1605,4.0774,4.0774,4.0475,3.9998,3.9998,3.9873,3.9697,3.9697,3.9697,3.9697,3.9697,3.9697,3.9697,3.9697,3.9697,3.9772,4.0124,4.0199,4.035,4.0902,4.115,4.1125,4.0626,4.0953,4.1125,4.0626,4.0249,3.9998,3.9998,3.9371,3.912,3.9622,3.8894,3.8843,4.0249,3.9923,0.0,0.0,4.1534,4.1961,0.0,0.0,0.0,4.2308,0.0,4.2208,4.2057,4.0174,3.9672,4.0701,4.0249,4.045,4.13,4.1756,4.2308,4.2986,4.2986,4.2986,4.2986,4.2986,4.2986,4.2986,4.2986,4.2986,4.2986,4.2986,4.2986,4.2986,4.2986,4.2986,4.2986,4.5422,4.4995,4.4618,4.4568,4.4141,4.379,4.374,4.3313,4.2986,4.2986,4.2986,4.2986,4.2986,4.2986,4.2986,4.2986,4.2986,4.2986,4.2986,4.2986,4.2986,4.2986,4.2986,4.2791,4.2288,4.271,4.2766,4.2213,4.269,4.2861,4.2861,4.2861,4.2585,4.2162,4.2187,4.1882,4.1376,4.1982,4.2263,4.2313,4.2816,4.2715,4.2263,4.2263,4.1882,4.1351,4.1351,4.1003,4.0526,4.0526,4.0149,3.9697,3.9697,3.9697,3.9697,3.9697,3.9697,3.9697,3.9697,3.9697,3.9697,3.9697,3.9697,3.9823,4.035,4.0824,4.1075,4.0626,4.0953,4.1125,4.0676,4.0576,4.0576,4.0576,3.9672,3.917,3.9672,3.9245,3.9874,4.2434,4.2313,0.0,4.2685,4.2338,4.1458,0.0,0.0,3.9848,3.9973,0.0,4.266,4.0526,3.9923,3.9672,3.9747,4.0249,4.0802,4.1351,4.2484,4.2986,4.2986,4.2986,4.2986,4.2986,4.2986,4.2986,4.2986,4.2986,4.2986,4.2986,4.2986,4.2986,4.2986,4.2986,4.2986,4.2986,4.4819,4.4719,4.4493,4.4066,4.389,4.3664,4.3237,4.3062,4.2986,4.2986,4.2986,4.2986,4.2986,4.2986,4.2986,4.2986,4.2986,4.2986,4.2986,4.2986,4.2986,4.2986,4.2986,4.2911,4.2785,4.2911,4.2766,4.2213,4.1882,4.1731,4.1731,4.1731,4.1601,4.1555,4.1957,4.2137,4.2007,4.2559,4.2841,4.2785,4.2936,4.2886,4.2841,4.2841,4.2434,4.1957,4.1957,4.1329,4.0526,4.0526,4.0149,3.9697,3.9697,3.9697,3.9697,3.9697,3.9697,3.9697,3.9697,3.9697,3.9697,3.9697,3.9697,3.9722,3.9848,4.0325,4.0676,4.0551,4.0953,4.125,4.1125,4.11,4.11,4.11,4.0576,4.0174,4.03,3.9496,3.927,4.035,3.9973,3.9873,4.0425,4.035,4.0802,0.0,0.0,4.1505,4.276,4.2258,4.1304,3.9923,3.9346,3.9471,4.03,4.045,4.1003,4.1982,4.266,4.2986,4.2986,4.2986,4.2986,4.2986,4.2986,4.2986,4.2986,4.2986,4.2986,4.2986,4.2986,4.2986,4.2986,4.2986,4.2986,4.2986,4.4242,4.4041,4.379,4.3489,4.3413,4.3313,4.3011,4.2986,4.2986,4.2986,4.2986,4.2986,4.2986,4.2986,4.2986,4.2986,4.2986,4.2986,4.2986,4.2986,4.2986,4.2986,4.2986,4.2986,4.2986,4.2986,4.2891,4.259,4.2233,4.2082,4.2082,4.2082,4.2082,4.2108,4.2409,4.259,4.2615,4.2861,4.2986,4.2986,4.2986,4.2986,4.2986,4.2986,4.2841,4.259,4.259,4.1831,4.0902,4.0902,4.035,3.9697,3.9697,3.9697,3.9697,3.9697,3.9697,3.9697,3.9697,3.9697,3.9697,3.9697,3.9697,3.9697,3.9697,3.9923,4.0149,4.0149,4.0576,4.0899,4.0899,4.0899,4.1,4.125,4.0824,4.0601,4.0852,4.0375,4.0023,4.0074,3.9798,3.9647,3.9697,3.9697,4.0199,4.1379,4.0927,0.0,4.2233,4.1455,4.0701,4.0099,3.9772,3.9898,4.0501,4.1028,4.1681,4.259,4.2836,4.2986,4.2986,4.2986,4.2986,4.2986,4.2986,4.2986,4.2986,4.2986,4.2986,4.2986,4.2986,4.2986,4.2986,4.2986,4.2986,4.2986,4.3689,4.3288,4.2986,4.2986,4.2986,4.2986,4.2986,4.2986,4.2986,4.2986,4.2986,4.2986,4.2986,4.2986,4.2986,4.2986,4.2986,4.2986,4.2986,4.2986,4.2986,4.2986,4.2986,4.2986,4.2986,4.2986,4.2986,4.2986,4.2986,4.2986,4.2986,4.2986,4.2986,4.2986,4.2986,4.2986,4.2986,4.2986,4.2986,4.2986,4.2986,4.2986,4.2986,4.2986,4.2986,4.2986,4.2986,4.2333,4.1401,4.13,4.0651,3.9798,3.9722,3.9697,3.9697,3.9697,3.9697,3.9697,3.9697,3.9697,3.9697,3.9697,3.9697,3.9697,3.9697,3.9697,3.9697,3.9697,4.0074,4.0425,4.0501,4.0526,4.0827,4.1752,4.1229,4.0953,4.1777,4.1551,4.1125,4.0701,4.0651,4.045,3.9998,3.9948,3.9948,3.9948,3.9948,4.0149,4.0626,4.0651,4.0651,4.0651,4.0651,4.0676,4.0777,4.1835,4.2564,4.2986,4.2986,4.2986,4.2986,4.2986,4.2986,4.2986,4.2986,4.2986,4.2986,4.2986,4.2986,4.2986,4.2986,4.2986,4.2986,4.2986,4.2986,4.2986,4.3112,4.3037,4.2986,4.2986,4.2986,4.2986,4.2986,4.2986,4.2986,4.2986,4.2986,4.2986,4.2986,4.2986,4.2986,4.2986,4.2986,4.2986,4.2986,4.2986,4.2986,4.2986,4.2986,4.2986,4.2986,4.2986,4.2986,4.2986,4.2986,4.2986,4.2986,4.2986,4.2986,4.2986,4.2986,4.2986,4.2986,4.2986,4.2986,4.2986,4.2986,4.2986,4.2986,4.2986,4.2986,4.2986,4.2986,4.2615,4.1957,4.1505,4.0874,4.03,3.9848,3.9697,3.9697,3.9697,3.9697,3.9697,3.9697,3.9697,3.9697,3.9697,3.9697,3.9697,3.9697,3.9697,3.9697,3.9697,3.9772,3.9973,4.0425,4.0526,4.1455,4.4367,4.2811,4.2057,4.4493,4.2811,4.125,4.1175,4.115,4.1125,4.105,4.1025,4.1025,4.1025,4.1025,4.1075,4.115,4.115,4.115,4.115,4.115,4.143,4.1961,4.259,4.2886,4.2986,4.2986,4.2986,4.2986,4.2986,4.2986,4.2986,4.2986,4.2986,4.2986,4.2986,4.2986,4.2986,4.2986,4.2986,4.2986,4.2986,4.2986,4.2986,4.2986,4.2986,4.2986,4.2986,4.2986,4.2986,4.2986,4.2986,4.2986,4.2986,4.2986,4.2986,4.2986,4.2986,4.2986,4.2986,4.2986,4.2986,4.2986,4.2986,4.2986,4.2986,4.2986,4.2986,4.2986,4.2986,4.2986,4.2986,4.2986,4.2986,4.2986,4.2986,4.2986,4.2986,4.2986,4.2986,4.2986,4.2986,4.2986,4.2986,4.2986,4.2986,4.2986,4.2986,4.2986,4.2986,4.2986,4.269,4.2162,4.1856,4.1204,4.0475,4.0224,3.9923,3.9697,3.9697,3.9697,3.9697,3.9697,3.9697,3.9697,3.9697,3.9697,3.9697,3.9697,3.9697,3.9697,3.9697,3.9697,3.9772,4.0023,4.0074,4.0777,4.2911,4.1932,4.1656,4.3815,4.2785,4.1781,4.1781,4.1781,4.1656,4.13,4.1275,4.1275,4.1275,4.1275,4.1455,4.1756,4.1781,4.1907,4.2208,4.1932,4.2032,4.264,4.2861,4.2986,4.2986,4.2986,4.2986,4.2986,4.2986,4.2986,4.2986,4.2986,4.2986,4.2986,4.2986,4.2986,4.2986,4.2986,4.2986,4.2986,4.2986,4.2986,4.2986,4.2986,4.2986,4.2986,4.2986,4.2986,4.2986,4.2986,4.2986,4.2986,4.2986,4.2986,4.2986,4.2986,4.2986,4.2986,4.2986,4.2986,4.2986,4.2986,4.2986,4.2986,4.2986,4.2986,4.2986,4.2986,4.2986,4.2986,4.2986,4.2986,4.2986,4.2986,4.2986,4.2986,4.2986,4.2986,4.2986,4.2986,4.2986,4.2986,4.2986,4.2986,4.2986,4.2986,4.2986,4.2986,4.2986,4.2986,4.2766,4.2389,4.2263,4.1505,4.0676,4.0551,4.0149,3.9697,3.9697,3.9697,3.9697,3.9697,3.9697,3.9697,3.9697,3.9697,3.9697,3.9697,3.9697,3.9697,3.9697,3.9697,3.9697,3.9697,3.9697,4.0174,4.1601,4.1128,4.1178,4.3087,4.2715,4.2162,4.2037,4.2137,4.1932,4.1351,4.1401,4.153,4.153,4.1656,4.1907,4.2389,4.2414,4.259,4.2961,4.2615,4.2615,4.2961,4.2986,4.2986,4.2986,4.2986,4.2986,4.2986,4.2986,4.2986,4.2986,4.2986,4.2986,4.2986,4.2986,4.2986,4.2986,4.2986,4.2986,4.2986,4.2986,4.2986,4.2986,4.2986,4.2986,4.2986,4.2986,4.2986,4.2986,4.2986,4.2986,4.2986,4.2986,4.2986,4.2986,4.2986,4.2986,4.2986,4.2986,4.2986,4.2986,4.2986,4.2986,4.2986,4.2986,4.2986,4.2986,4.2986,4.2986,4.2986,4.2986,4.2986,4.2986,4.2986,4.2986,4.2986,4.2986,4.2986,4.2986,4.2986,4.2986,4.2986,4.2986,4.2986,4.2986,4.2986,4.2986,4.2986,4.2986,4.2986,4.2961,4.2891,4.2389,4.1756,4.1125,4.0676,4.0149,3.9697,3.9697,3.9697,3.9697,3.9697,3.9697,3.9697,3.9697,3.9697,3.9697,3.9697,3.9697,3.9697,3.9697,3.9697,3.9697,3.9697,3.9697,4.0551,4.3187,4.1882,4.1455,4.4116,4.3137,4.1957,4.1401,4.1856,4.1932,4.1351,4.1806,4.2137,4.2137,4.2559,4.2861,4.2911,4.2911,4.2936,4.2986,4.2936,4.2936,4.2986,4.2986,4.2986,4.2986,4.2986,4.2986,4.2986,4.2986,4.2986,4.2986,4.2986,4.2986,4.2986,4.2986,4.2986,4.2986,4.2986,4.2986,4.2986,4.2986,4.2986,4.2986,4.3037,4.2986,4.2986,4.2986,4.2986,4.2986,4.2986,4.2986,4.2986,4.2986,4.2986,4.2986,4.2986,4.2986,4.2986,4.2986,4.2986,4.2986,4.2986,4.2986,4.2986,4.2986,4.2986,4.2986,4.2986,4.2986,4.2986,4.2986,4.2986,4.2986,4.2986,4.2986,4.2986,4.2986,4.2986,4.2986,4.2986,4.2986,4.2986,4.2986,4.2986,4.2986,4.2986,4.2986,4.2986,4.2986,4.2986,4.2986,4.2936,4.2735,4.2082,4.125,4.105,4.04,3.9697,3.9697,3.9697,3.9697,3.9697,3.9697,3.9697,3.9697,3.9697,3.9697,3.9697,3.9697,3.9697,3.9697,3.9697,3.9697,3.9697,3.9697,4.0149,4.153,4.0777,4.0601,4.2278,4.2057,4.158,4.13,4.1831,4.1932,4.1351,4.153,4.1781,4.2187,4.2414,4.2665,4.2961,4.2986,4.2986,4.2986,4.2986,4.2986,4.2986,4.2986,4.2986,4.2986,4.2986,4.2986,4.2986,4.2986,4.2986,4.2986,4.2986,4.2986,4.2986,4.2986,4.2986,4.2986,4.2986,4.2986,4.2986,4.2986,4.2986,4.2986,4.3338,4.3237,4.3187,4.3011,4.2986,4.2986,4.2986,4.2986,4.2986,4.2986,4.2986,4.2986,4.2986,4.2986,4.2986,4.2986,4.2986,4.2986,4.2986,4.2986,4.2986,4.2986,4.2986,4.2986,4.2986,4.2986,4.2986,4.2986,4.2986,4.2986,4.2986,4.2986,4.2986,4.2986,4.2986,4.2986,4.2986,4.2986,4.2986,4.2986,4.2986,4.2986,4.2986,4.2986,4.2986,4.2986,4.2986,4.2986,4.2986,4.2986,4.2233,4.1275,4.1275,4.0576,3.9697,3.9697,3.9697,3.9697,3.9697,3.9697,3.9697,3.9697,3.9697,3.9697,3.9697,3.9697,3.9697,3.9697,3.9697,3.9697,3.9697,3.9697,3.9823,4.0199,3.9948,3.9948,4.0701,4.0924,4.0974,4.0852,4.1304,4.143,4.0877,4.0924,4.1229,4.1605,4.2011,4.2439,4.2936,4.2986,4.2986,4.2986,4.2986,4.2986,4.2986,4.2986,4.2986,4.2986,4.2986,4.2986,4.2986,4.2986,4.2986,4.2986,4.2986,4.2986,4.2986,4.2986,4.2986,4.2986,4.2986,4.2986,4.2986,4.2986,4.2986,4.2986,4.3915,4.3815,4.3639,4.3087,4.2986,4.2986,4.2986,4.2986,4.2986,4.2986,4.2986,4.2986,4.2986,4.2986,4.2986,4.2986,4.2986,4.2986,4.2986,4.2986,4.2986,4.2986,4.2986,4.2986,4.2986,4.2986,4.2986,4.2986,4.2986,4.2986,4.2986,4.2986,4.2986,4.2986,4.2986,4.2986,4.2986,4.2986,4.2986,4.2986,4.2986,4.2986,4.2986,4.2986,4.2986,4.2986,4.2986,4.2986,4.2986,4.2986,4.2233,4.1275,4.1275,4.0576,3.9697,3.9697,3.9697,3.9697,3.9697,3.9697,3.9697,3.9697,3.9697,3.9697,3.9697,3.9697,3.9697,3.9697,3.9697,3.9697,3.9697,3.9697,3.9697,3.9697,3.9697,3.9697,3.9697,4.0174,4.03,3.9747,4.0174,4.03,3.9747,4.0199,4.0501,4.0526,4.153,4.2439,4.2936,4.2986,4.2986,4.2986,4.2986,4.2986,4.2986,4.2986,4.2986,4.2986,4.2986,4.2986,4.2986,4.2986,4.2986,4.2986,4.2986,4.2986,4.2986,4.2986,4.2986,4.2986,4.2986,4.2986,4.2986,4.2986,4.2986,4.2986,4.4493,4.4367,4.4192,4.3639,4.3564,4.3413,4.3037,4.2986,4.2986,4.2986,4.2986,4.2986,4.2986,4.2986,4.2986,4.2986,4.2986,4.2986,4.2986,4.2986,4.2986,4.2986,4.2986,4.2986,4.2986,4.2986,4.2986,4.2986,4.2986,4.2986,4.2986,4.2986,4.2986,4.2986,4.2986,4.2986,4.2986,4.2986,4.2986,4.2986,4.2986,4.2986,4.2986,4.2986,4.2986,4.2986,4.2986,4.2986,4.2986,4.2986,4.2233,4.115,4.0425,3.9948,3.9697,3.9697,3.9697,3.9697,3.9697,3.9697,3.9697,3.9697,3.9697,3.9697,3.9697,3.9697,3.9697,3.9697,3.9697,3.9697,3.9697,3.9697,3.9697,3.9697,3.9697,3.9697,3.9697,4.0174,4.03,3.9747,4.0174,4.03,3.9747,3.9848,4.0099,4.0475,4.153,4.2288,4.2439,4.2816,4.2986,4.2986,4.2986,4.2986,4.2986,4.2986,4.2986,4.2986,4.2986,4.2986,4.2986,4.2986,4.2986,4.2986,4.2986,4.2986,4.2986,4.2986,4.2986,4.2986,4.2986,4.2986,4.2986,4.2986,4.2986,4.2986,4.507,4.497,4.4794,4.4217,4.394,4.3689,4.3363,4.3112,4.2986,4.2986,4.2986,4.2986,4.2986,4.2986,4.2986,4.2986,4.2986,4.2986,4.2986,4.2986,4.2986,4.2986,4.2986,4.2986,4.2986,4.2986,4.2986,4.2986,4.2986,4.2986,4.2986,4.2986,4.2986,4.2986,4.2986,4.2986,4.2986,4.2986,4.2986,4.2986,4.2986,4.2986,4.2986,4.2986,4.2986,4.2986,4.2986,4.2986,4.2986,4.2986,4.2233,4.11,4.0049,3.9697,3.9697,3.9697,3.9697,3.9697,3.9697,3.9697,3.9697,3.9697,3.9697,3.9697,3.9697,3.9697,3.9697,3.9697,3.9697,3.9697,3.9697,3.9697,3.9697,3.9697,3.9697,3.9697,3.9697,3.9973,4.0074,3.9747,3.9998,4.0149,4.0023,4.0023,4.0249,4.0802,4.1455,4.1932,4.2213,4.274,4.2986,4.2986,4.2986,4.2986,4.2986,4.2986,4.2986,4.2986,4.2986,4.2986,4.2986,4.2986,4.2986,4.2986,4.2986,4.2986,4.2986,4.2986,4.2986,4.2986,4.2986,4.2986,4.2986,4.2986,4.2986,4.2986,4.5673,4.5573,4.5372,4.4794,4.4292,4.3915,4.3815,4.3363,4.3037,4.2986,4.2986,4.2986,4.2986,4.2986,4.2986,4.2986,4.2986,4.2986,4.2986,4.2986,4.2986,4.2986,4.2986,4.2986,4.2986,4.2986,4.2986,4.2986,4.2986,4.2986,4.2986,4.2986,4.2986,4.2986,4.2986,4.2986,4.2986,4.2986,4.2986,4.2986,4.2986,4.2986,4.2986,4.2986,4.2986,4.2986,4.2986,4.2986,4.2961,4.2911,4.2183,4.105,4.0074,3.9747,3.9697,3.9697,3.9697,3.9697,3.9697,3.9697,3.9697,3.9697,3.9697,3.9697,3.9747,3.9772,3.9772,3.9772,3.9772,3.9747,3.9697,3.9697,3.9697,3.9697,3.9697,3.9722,3.9747,3.9722,3.9722,3.9772,3.9722,3.9898,4.045,4.0551,4.0802,4.125,4.1326,4.163,4.2187,4.274,4.2986,4.2986,4.2986,4.2986,4.2986,4.2986,4.2986,4.2986,4.2986,4.2986,4.2986,4.2986,4.2986,4.2986,4.2986,4.2986,4.2986,4.2986,4.2986,4.2986,4.2986,4.2986,4.2986,4.2986,4.2986,4.2986,4.615,4.6125,4.5949,4.5397,4.5196,4.4819,4.394,4.3689,4.3463,4.3037,4.2986,4.2986,4.2986,4.2986,4.2986,4.2986,4.2986,4.2986,4.2986,4.2986,4.2986,4.2986,4.2986,4.2986,4.2986,4.2986,4.2986,4.2986,4.2986,4.2986,4.2986,4.2986,4.2986,4.2986,4.2986,4.2986,4.2986,4.2986,4.2986,4.2986,4.2986,4.2986,4.2986,4.2986,4.2986,4.2986,4.2986,4.2986,4.2911,4.2539,4.1605,4.0651,4.04,4.0049,3.9697,3.9697,3.9697,3.9697,3.9697,3.9697,3.9697,3.9697,3.9697,3.9798,4.0249,4.035,4.035,4.035,4.035,4.0199,3.9772,3.9697,3.9697,3.9697,3.9697,3.9848,4.0275,3.9973,3.9848,4.03,3.9948,3.9898,4.045,4.0849,4.115,4.1275,4.1731,4.2087,4.2213,4.274,4.2986,4.2986,4.2986,4.2986,4.2986,4.2986,4.2986,4.2986,4.2986,4.2986,4.2986,4.2986,4.2986,4.2986,4.2986,4.2986,4.2986,4.2986,4.2986,4.2986,4.2986,4.2986,4.2986,4.2986,4.2986,4.2986,4.6301,4.6301,4.6225,4.5924,4.5673,4.5296,4.4694,4.4141,4.3689,4.3413,4.3137,4.2986,4.2986,4.2986,4.2986,4.2986,4.2986,4.2986,4.2986,4.2986,4.2986,4.2986,4.2986,4.2986,4.2986,4.2986,4.2986,4.2986,4.2986,4.2986,4.2986,4.2986,4.2986,4.2986,4.2986,4.2986,4.2986,4.2986,4.2986,4.2986,4.2986,4.2986,4.2986,4.2986,4.2986,4.2986,4.2986,4.2866,4.259,4.2313,4.143,4.0526,4.0526,4.0149,3.9697,3.9697,3.9697,3.9697,3.9697,3.9697,3.9697,3.9697,3.9697,3.9848,4.04,4.0526,4.0601,4.0852,4.0849,4.0827,4.0526,4.0475,4.0475,4.0475,4.0475,4.0576,4.0824,4.0651,4.0576,4.0824,4.0651,4.0701,4.1254,4.1555,4.1731,4.1731,4.2037,4.2213,4.2213,4.274,4.2986,4.2986,4.2986,4.2986,4.2986,4.2986,4.2986,4.2986,4.2986,4.2986,4.2986,4.2986,4.2986,4.2986,4.2986,4.2986,4.2986,4.2986,4.2986,4.2986,4.2986,4.2986,4.2986,4.2986,4.2986,4.2986,4.6301,4.6301,4.6301,4.6301,4.5924,4.5598,4.5497,4.4694,4.4016,4.384,4.3413,4.3087,4.2986,4.2986,4.2986,4.2986,4.2986,4.2986,4.2986,4.2986,4.2986,4.2986,4.2986,4.2986,4.2986,4.2986,4.2986,4.2986,4.2986,4.2986,4.2986,4.2986,4.2986,4.2986,4.2986,4.2986,4.2986,4.2986,4.2986,4.2986,4.2986,4.2986,4.2986,4.2986,4.2986,4.2986,4.2986,4.2615,4.2112,4.2288,4.143,4.04,4.0601,4.0275,3.9848,3.9848,3.9898,3.9973,3.9973,3.9973,3.9948,3.9848,3.9848,3.9948,4.04,4.0601,4.0724,4.12,4.1351,4.1401,4.13,4.1275,4.1275,4.1275,4.1275,4.1326,4.1455,4.1351,4.1326,4.1455,4.148,4.1656,4.2162,4.2288,4.2363,4.2363,4.2363,4.2363,4.2363,4.2791,4.2986,4.2986,4.2986,4.2986,4.2986,4.2986,4.2986,4.2986,4.2986,4.2986,4.2986,4.2986,4.2986,4.2986,4.2986,4.2986,4.2986,4.2986,4.2986,4.2986,4.2986,4.2986,4.2986,4.2986,4.2986,4.2986,4.6301,4.6301,4.6301,4.6301,4.625,4.605,4.5573,4.5372,4.492,4.394,4.374,4.3514,4.3037,4.2986,4.2986,4.2986,4.2986,4.2986,4.2986,4.2986,4.2986,4.2986,4.2986,4.2986,4.2986,4.2986,4.2986,4.2986,4.2986,4.2986,4.2986,4.2986,4.2986,4.2986,4.2986,4.2986,4.2986,4.2986,4.2986,4.2986,4.2986,4.2986,4.2986,4.2986,4.2986,4.2986,4.2986,4.2308,4.1605,4.2534,4.1505,3.9973,4.0874,4.0852,4.04,4.04,4.0752,4.1075,4.1075,4.1075,4.0949,4.0526,4.04,4.0425,4.0501,4.0824,4.12,4.1275,4.1731,4.1907,4.1376,4.1275,4.1275,4.1275,4.1275,4.1505,4.1982,4.163,4.1505,4.2037,4.2112,4.2137,4.2213,4.264,4.2861,4.2861,4.2861,4.2861,4.2861,4.2936,4.2986,4.2986,4.2986,4.2986,4.2986,4.2986,4.2986,4.2986,4.2986,4.2986,4.2986,4.2986,4.2986,4.2986,4.2986,4.2986,4.2986,4.2986,4.2986,4.2986,4.2986,4.2986,4.2986,4.2986,4.2986,4.2986,4.6301,4.6301,4.6301,4.6301,4.6301,4.6225,4.5974,4.5673,4.5321,4.4819,4.4192,4.3714,4.3463,4.3162,4.2986,4.2986,4.2986,4.2986,4.2986,4.2986,4.2986,4.2986,4.2986,4.2986,4.2986,4.2986,4.2986,4.2986,4.2986,4.2986,4.2986,4.2986,4.2986,4.2986,4.2986,4.2986,4.2986,4.2986,4.2986,4.2986,4.2986,4.2986,4.2986,4.2986,4.2986,4.2986,4.2986,4.2459,4.1932,4.271,4.1932,4.0752,4.1555,4.143,4.0924,4.0924,4.11,4.1275,4.1275,4.1275,4.1225,4.0974,4.0924,4.0902,4.0601,4.0899,4.1376,4.1731,4.2233,4.2534,4.2308,4.2258,4.2258,4.2258,4.2258,4.2333,4.264,4.2409,4.2333,4.264,4.2665,4.2665,4.2665,4.2836,4.2986,4.2986,4.2986,4.2986,4.2986,4.2986,4.2986,4.2986,4.2986,4.2986,4.2986,4.2986,4.2986,4.2986,4.2986,4.2986,4.2986,4.2986,4.2986,4.2986,4.2986,4.2986,4.2986,4.2986,4.2986,4.2986,4.2986,4.2986,4.2986,4.2986,4.2986,4.2986]}]]